[[{"header":{"parameterUnit":"m.s-1","parameterCategory":1,"la1":31.0,"la2":29.5877,"lo1":-88.7671,"lo2":-86.6584,"dy":0.0162,"dx":0.0185,"nx":115,"ny":88,"refTime":"2023-04-28T12:00:00:Z","depth":0,"parameterNumber":2,"parameterNumberName":"U-component_of_WINDS"},"data":[0.0,0.0,0.0,0.0,0.0,0.0,0.0,0.0,0.0,0.0,0.0,0.0,0.0,0.0,0.0,0.0,0.0,0.0,0.0,0.0,0.0,0.0,0.0,0.0,0.0,0.0,0.0,0.0,0.0,0.0,0.0,0.0,0.0,0.0,0.0,0.0,0.0,0.0,0.0,0.0,0.0,0.0,0.0,0.0,0.0,0.0,0.0,0.0,0.0,0.0,0.0,0.0,0.0,0.0,0.0,0.0,0.0,0.0,0.0,0.0,0.0,0.0,0.0,0.0,0.0,0.0,0.0,0.0,0.0,0.0,0.0,0.0,0.0,0.0,0.0,0.0,0.0,0.0,0.0,0.0,0.0,0.0,0.0,0.0,0.0,0.0,0.0,0.0,0.0,0.0,0.0,0.0,0.0,0.0,0.0,0.0,0.0,0.0,0.0,0.0,0.0,0.0,0.0,0.0,0.0,0.0,0.0,0.0,0.0,0.0,0.0,0.0,0.0,0.0,0.0,0.0,0.0,0.0,0.0,0.0,0.0,0.0,0.0,0.0,0.0,0.0,0.0,0.0,0.0,0.0,0.0,0.0,0.0,0.0,0.0,0.0,0.0,0.0,0.0,0.0,0.0,0.0,0.0,0.0,0.0,0.0,0.0,0.0,0.0,0.0,0.0,0.0,0.0,0.0,0.0,0.0,0.0,0.0,0.0,0.0,0.0,0.0,0.0,0.0,0.0,0.0,0.0,0.0,0.0,0.0,0.0,0.0,0.0,0.0,0.0,0.0,0.0,0.0,0.0,0.0,0.0,0.0,0.0,0.0,0.0,0.0,0.0,0.0,0.0,0.0,0.0,0.0,0.0,0.0,0.0,0.0,0.0,0.0,0.0,0.0,0.0,0.0,0.0,0.0,0.0,0.0,0.0,0.0,0.0,0.0,0.0,0.0,0.0,0.0,0.0,0.0,0.0,0.0,0.0,0.0,0.0,0.0,0.0,0.0,0.0,0.0,0.0,0.0,0.0,0.0,0.0,0.0,0.0,0.0,0.0,0.0,0.0,0.0,0.0,0.0,0.0,0.0,0.0,0.0,0.0,0.0,0.0,0.0,0.0,0.0,0.0,0.0,0.0,0.0,0.0,0.0,0.0,0.0,0.0,0.0,0.0,0.0,0.0,0.0,0.0,0.0,0.0,0.0,0.0,0.0,0.0,0.0,0.0,0.0,0.0,0.0,0.0,0.0,0.0,0.0,0.0,0.0,0.0,0.0,0.0,0.0,0.0,0.0,0.0,0.0,0.0,0.0,0.0,0.0,0.0,0.0,0.0,0.0,0.0,0.0,0.0,0.0,0.0,0.0,0.0,0.0,0.0,0.0,0.0,0.0,0.0,0.0,0.0,0.0,0.0,0.0,0.0,0.0,0.0,0.0,0.0,0.0,0.0,0.0,0.0,0.0,0.0,0.0,0.0,0.0,0.0,0.0,0.0,0.0,0.0,0.0,0.0,0.0,0.0,0.0,0.0,0.0,0.0,0.0,0.0,0.0,0.0,0.0,0.0,0.0,0.0,0.0,0.0,0.0,0.0,0.0,0.0,0.0,0.0,0.0,0.0,0.0,0.0,0.0,0.0,0.0,0.0,0.0,0.0,0.0,0.0,0.0,0.0,0.0,0.0,0.0,0.0,0.0,0.0,0.0,0.0,0.0,0.0,0.0,0.0,0.0,0.0,0.0,0.0,0.0,0.0,0.0,0.0,0.0,0.0,0.0,0.0,0.0,0.0,0.0,0.0,0.0,0.0,0.0,0.0,0.0,0.0,0.0,0.0,0.0,0.0,0.0,0.0,0.0,0.0,0.0,0.0,0.0,0.0,0.0,0.0,0.0,0.0,0.0,0.0,0.0,0.0,0.0,0.0,0.0,0.0,0.0,0.0,0.0,0.0,0.0,0.0,0.0,0.0,0.0,0.0,0.0,0.0,0.0,0.0,0.0,0.0,0.0,0.0,0.0,0.0,0.0,0.0,0.0,0.0,0.0,0.0,0.0,0.0,0.0,0.0,0.0,0.0,0.0,0.0,0.0,0.0,0.0,0.0,0.0,0.0,0.0,0.0,0.0,0.0,0.0,0.0,0.0,0.0,0.0,0.0,0.0,0.0,0.0,0.0,0.0,0.0,0.0,0.0,0.0,0.0,0.0,0.0,0.0,0.0,0.0,0.0,0.0,0.0,0.0,0.0,0.0,0.0,0.0,0.0,0.0,0.0,0.0,0.0,0.0,0.0,0.0,0.0,0.0,0.0,0.0,0.0,0.0,0.0,0.0,0.0,0.0,0.0,0.0,0.0,0.0,0.0,0.0,0.0,0.0,0.0,0.0,0.0,0.0,0.0,0.0,0.0,0.0,0.0,0.0,0.0,0.0,0.0,0.0,0.0,0.0,0.0,0.0,0.0,0.0,0.0,0.0,0.0,0.0,0.0,0.0,0.0,0.0,0.0,0.0,0.0,0.0,0.0,0.0,0.0,0.0,0.0,0.0,0.0,0.0,0.0,0.0,0.0,0.0,0.0,0.0,0.0,0.0,0.0,0.0,0.0,0.0,0.0,0.0,0.0,0.0,0.0,0.0,0.0,0.0,0.0,0.0,0.0,0.0,0.0,0.0,0.0,0.0,0.0,0.0,0.0,0.0,0.0,0.0,0.0,0.0,0.0,0.0,0.0,0.0,0.0,0.0,0.0,0.0,0.0,0.0,0.0,0.0,0.0,0.0,0.0,0.0,0.0,0.0,0.0,0.0,0.0,0.0,0.0,0.0,0.0,0.0,0.0,0.0,0.0,0.0,0.0,0.0,0.0,0.0,0.0,0.0,0.0,0.0,0.0,0.0,0.0,0.0,0.0,0.0,0.0,0.0,0.0,0.0,0.0,0.0,0.0,0.0,0.0,0.0,0.0,0.0,0.0,0.0,0.0,0.0,0.0,0.0,0.0,0.0,0.0,0.0,0.0,0.0,0.0,0.0,0.0,0.0,0.0,0.0,0.0,0.0,0.0,0.0,0.0,0.0,0.0,0.0,0.0,0.0,0.0,0.0,0.0,0.0,0.0,0.0,0.0,0.0,0.0,0.0,0.0,0.0,0.0,0.0,0.0,0.0,0.0,0.0,0.0,0.0,0.0,0.0,0.0,0.0,0.0,0.0,0.0,0.0,0.0,0.0,0.0,0.0,0.0,0.0,0.0,0.0,0.0,0.0,0.0,0.0,0.0,0.0,0.0,0.0,0.0,0.0,0.0,0.0,0.0,0.0,0.0,0.0,0.0,0.0,0.0,0.0,0.0,0.0,0.0,0.0,0.0,0.0,0.0,0.0,0.0,0.0,0.0,0.0,0.0,0.0,0.0,0.0,0.0,0.0,0.0,0.0,0.0,0.0,0.0,0.0,0.0,0.0,0.0,0.0,0.0,0.0,0.0,0.0,0.0,0.0,0.0,0.0,0.0,0.0,0.0,0.0,0.0,0.0,0.0,0.0,0.0,0.0,0.0,0.0,0.0,0.0,0.0,0.0,0.0,0.0,0.0,0.0,0.0,0.0,0.0,0.0,0.0,0.0,0.0,0.0,0.0,0.0,0.0,0.0,0.0,0.0,0.0,0.0,0.0,0.0,0.0,0.0,0.0,0.0,0.0,0.0,0.0,0.0,0.0,0.0,0.0,0.0,0.0,0.0,0.0,0.0,0.0,0.0,0.0,0.0,0.0,0.0,0.0,0.0,0.0,0.0,0.0,0.0,0.0,0.0,0.0,0.0,0.0,0.0,0.0,0.0,0.0,0.0,0.0,0.0,0.0,0.0,0.0,0.0,0.0,0.0,0.0,0.0,0.0,0.0,0.0,0.0,0.0,0.0,0.0,0.0,0.0,0.0,0.0,0.0,0.0,0.0,0.0,0.0,0.0,0.0,0.0,0.0,0.0,0.0,0.0,0.0,0.0,0.0,0.0,0.0,0.0,0.0,0.0,0.0,0.0,0.0,0.0,0.0,0.0,0.0,0.0,0.0,0.0,0.0,0.0,0.0,0.0,0.0,0.0,0.0,0.0,0.0,0.0,0.0,0.0,0.0,0.0,0.0,0.0,0.0,0.0,0.0,0.0,0.0,0.0,0.0,0.0,0.0,0.0,0.0,0.0,0.0,0.0,0.0,0.0,0.0,0.0,0.0,0.0,0.0,0.0,0.0,0.0,0.0,0.0,0.0,0.0,0.0,0.0,0.0,0.0,0.0,0.0,0.0,0.0,0.0,0.0,0.0,0.0,0.0,-2.0366,0.0,0.0,0.0,0.0,0.0,0.0,0.0,0.0,0.0,0.0,0.0,0.0,0.0,0.0,0.0,0.0,0.0,0.0,0.0,0.0,0.0,0.0,0.0,0.0,0.0,0.0,0.0,0.0,0.0,0.0,0.0,0.0,0.0,0.0,0.0,0.0,0.0,0.0,0.0,0.0,0.0,0.0,0.0,0.0,0.0,0.0,0.0,0.0,0.0,0.0,0.0,0.0,0.0,0.0,0.0,0.0,0.0,0.0,0.0,0.0,0.0,0.0,0.0,0.0,0.0,0.0,0.0,0.0,0.0,0.0,0.0,0.0,0.0,0.0,0.0,0.0,0.0,0.0,0.0,0.0,0.0,0.0,0.0,0.0,0.0,0.0,0.0,0.0,0.0,0.0,0.0,0.0,0.0,0.0,0.0,0.0,0.0,0.0,0.0,0.0,0.0,0.0,0.0,0.0,0.0,0.0,0.0,0.0,0.0,0.0,-2.0131,-2.0131,-2.0301,-2.0401,-2.0579,0.0,0.0,0.0,0.0,0.0,0.0,0.0,0.0,0.0,0.0,0.0,0.0,0.0,0.0,0.0,0.0,0.0,0.0,0.0,0.0,0.0,0.0,0.0,0.0,0.0,0.0,0.0,0.0,0.0,0.0,0.0,0.0,0.0,0.0,0.0,0.0,0.0,0.0,0.0,0.0,0.0,0.0,0.0,0.0,0.0,0.0,0.0,0.0,0.0,0.0,0.0,0.0,0.0,0.0,0.0,0.0,0.0,0.0,0.0,0.0,0.0,0.0,0.0,0.0,0.0,0.0,0.0,0.0,0.0,0.0,0.0,0.0,0.0,0.0,0.0,0.0,0.0,0.0,0.0,0.0,0.0,0.0,0.0,0.0,0.0,0.0,0.0,0.0,0.0,0.0,0.0,0.0,0.0,0.0,0.0,0.0,0.0,0.0,0.0,0.0,0.0,0.0,0.0,0.0,0.0,0.0,0.0,0.0,0.0,0.0,0.0,0.0,-2.0974,-2.1051,-2.1031,0.0,0.0,0.0,0.0,0.0,0.0,0.0,0.0,0.0,0.0,0.0,0.0,0.0,0.0,0.0,0.0,0.0,0.0,0.0,0.0,0.0,0.0,0.0,0.0,0.0,0.0,0.0,0.0,0.0,0.0,0.0,0.0,0.0,0.0,0.0,0.0,0.0,0.0,0.0,0.0,0.0,0.0,0.0,0.0,0.0,0.0,0.0,0.0,0.0,0.0,0.0,0.0,0.0,0.0,0.0,0.0,0.0,0.0,0.0,0.0,0.0,0.0,0.0,0.0,0.0,0.0,0.0,0.0,0.0,0.0,0.0,0.0,0.0,0.0,0.0,0.0,0.0,0.0,0.0,0.0,0.0,0.0,0.0,0.0,0.0,0.0,0.0,0.0,0.0,0.0,0.0,0.0,0.0,0.0,0.0,0.0,0.0,0.0,0.0,0.0,0.0,0.0,0.0,0.0,0.0,0.0,0.0,0.0,0.0,0.0,-2.1205,-2.1436,-2.1436,0.0,-2.2176,0.0,0.0,0.0,0.0,0.0,0.0,0.0,0.0,0.0,0.0,0.0,0.0,0.0,0.0,0.0,0.0,0.0,0.0,0.0,0.0,0.0,0.0,0.0,0.0,0.0,0.0,0.0,0.0,0.0,0.0,0.0,0.0,0.0,0.0,0.0,0.0,0.0,0.0,0.0,0.0,0.0,0.0,0.0,0.0,0.0,0.0,0.0,0.0,0.0,0.0,0.0,0.0,0.0,0.0,0.0,0.0,0.0,0.0,0.0,0.0,0.0,0.0,0.0,0.0,0.0,0.0,0.0,0.0,0.0,0.0,0.0,0.0,0.0,0.0,0.0,0.0,0.0,0.0,0.0,0.0,0.0,0.0,0.0,0.0,0.0,0.0,0.0,0.0,0.0,0.0,0.0,0.0,0.0,0.0,0.0,0.0,0.0,0.0,0.0,0.0,0.0,0.0,0.0,0.0,0.0,0.0,0.0,0.0,0.0,0.0,-2.1818,-2.1873,-2.2252,-2.2606,0.0,0.0,0.0,0.0,0.0,0.0,0.0,0.0,0.0,0.0,0.0,0.0,0.0,0.0,0.0,0.0,0.0,0.0,0.0,0.0,0.0,0.0,0.0,0.0,0.0,0.0,0.0,0.0,0.0,0.0,0.0,0.0,0.0,0.0,0.0,0.0,0.0,0.0,0.0,0.0,0.0,0.0,0.0,0.0,0.0,0.0,0.0,0.0,0.0,0.0,0.0,0.0,0.0,0.0,0.0,0.0,0.0,0.0,0.0,0.0,0.0,0.0,0.0,0.0,0.0,0.0,0.0,0.0,0.0,0.0,0.0,0.0,0.0,0.0,0.0,0.0,0.0,0.0,0.0,0.0,0.0,0.0,0.0,0.0,0.0,0.0,0.0,0.0,0.0,0.0,0.0,0.0,0.0,0.0,0.0,0.0,0.0,0.0,0.0,0.0,0.0,0.0,0.0,0.0,0.0,0.0,0.0,0.0,0.0,0.0,-2.2101,-2.2327,-2.2553,-2.2905,-2.3423,-2.3813,0.0,0.0,0.0,0.0,0.0,0.0,0.0,0.0,0.0,0.0,0.0,0.0,0.0,0.0,0.0,0.0,0.0,0.0,0.0,0.0,0.0,0.0,0.0,0.0,0.0,0.0,0.0,0.0,0.0,0.0,0.0,0.0,0.0,0.0,0.0,0.0,0.0,0.0,0.0,0.0,0.0,0.0,0.0,0.0,0.0,0.0,0.0,0.0,0.0,0.0,0.0,0.0,0.0,0.0,0.0,0.0,0.0,0.0,0.0,0.0,0.0,0.0,0.0,0.0,0.0,0.0,0.0,0.0,0.0,0.0,0.0,0.0,0.0,0.0,0.0,0.0,0.0,0.0,0.0,0.0,0.0,0.0,0.0,0.0,0.0,0.0,0.0,0.0,0.0,0.0,0.0,0.0,0.0,0.0,0.0,0.0,0.0,0.0,0.0,0.0,0.0,0.0,0.0,0.0,0.0,0.0,0.0,0.0,-2.315,-2.2703,-2.2777,-2.3519,-2.3593,-2.3886,0.0,0.0,0.0,0.0,0.0,0.0,0.0,0.0,0.0,0.0,0.0,0.0,0.0,0.0,0.0,0.0,0.0,0.0,0.0,0.0,0.0,0.0,0.0,0.0,0.0,0.0,0.0,0.0,0.0,0.0,0.0,0.0,0.0,0.0,0.0,0.0,0.0,0.0,0.0,0.0,0.0,0.0,0.0,0.0,0.0,0.0,0.0,0.0,0.0,0.0,0.0,0.0,0.0,0.0,0.0,0.0,0.0,0.0,0.0,0.0,0.0,0.0,0.0,0.0,0.0,0.0,0.0,0.0,0.0,0.0,0.0,0.0,0.0,0.0,0.0,0.0,0.0,0.0,0.0,0.0,0.0,0.0,0.0,0.0,0.0,0.0,0.0,0.0,0.0,0.0,0.0,0.0,0.0,0.0,0.0,0.0,0.0,0.0,0.0,0.0,0.0,0.0,0.0,0.0,0.0,0.0,0.0,0.0,0.0,-2.3446,-2.3644,-2.4009,-2.4683,-2.4683,-2.4802,0.0,0.0,0.0,0.0,0.0,0.0,0.0,0.0,0.0,0.0,0.0,0.0,0.0,0.0,0.0,0.0,0.0,0.0,0.0,0.0,0.0,0.0,0.0,0.0,0.0,0.0,0.0,0.0,0.0,0.0,0.0,0.0,0.0,0.0,0.0,0.0,0.0,0.0,0.0,0.0,0.0,0.0,0.0,0.0,0.0,0.0,0.0,0.0,0.0,0.0,0.0,0.0,0.0,0.0,0.0,0.0,0.0,0.0,0.0,0.0,0.0,0.0,0.0,0.0,0.0,0.0,0.0,0.0,0.0,0.0,0.0,0.0,0.0,0.0,0.0,0.0,0.0,0.0,0.0,0.0,0.0,0.0,0.0,0.0,0.0,0.0,0.0,0.0,0.0,0.0,0.0,0.0,0.0,0.0,0.0,0.0,0.0,0.0,0.0,0.0,0.0,0.0,0.0,0.0,0.0,0.0,0.0,0.0,0.0,-2.3886,0.0,-2.5111,-2.5253,-2.5468,-2.5492,0.0,0.0,0.0,0.0,0.0,0.0,0.0,0.0,0.0,0.0,0.0,0.0,0.0,0.0,0.0,0.0,0.0,0.0,0.0,0.0,0.0,0.0,0.0,0.0,0.0,0.0,0.0,0.0,0.0,0.0,0.0,0.0,0.0,0.0,0.0,0.0,0.0,0.0,0.0,0.0,0.0,0.0,0.0,0.0,0.0,0.0,0.0,0.0,0.0,0.0,0.0,0.0,0.0,0.0,0.0,0.0,0.0,0.0,0.0,0.0,0.0,0.0,0.0,0.0,0.0,0.0,0.0,0.0,0.0,0.0,0.0,0.0,0.0,0.0,0.0,0.0,0.0,0.0,0.0,0.0,0.0,0.0,0.0,0.0,0.0,0.0,0.0,0.0,0.0,0.0,0.0,0.0,0.0,0.0,0.0,0.0,0.0,0.0,0.0,0.0,0.0,0.0,0.0,0.0,0.0,0.0,0.0,0.0,-2.3982,-2.4562,-2.5539,-2.5877,-2.5372,-2.5829,-2.5853,0.0,0.0,0.0,0.0,0.0,0.0,0.0,0.0,0.0,0.0,0.0,0.0,0.0,0.0,0.0,0.0,0.0,0.0,0.0,0.0,0.0,0.0,0.0,0.0,0.0,0.0,0.0,0.0,0.0,0.0,0.0,0.0,0.0,0.0,0.0,0.0,0.0,0.0,0.0,0.0,0.0,0.0,0.0,0.0,0.0,0.0,0.0,0.0,0.0,0.0,0.0,0.0,0.0,0.0,0.0,0.0,0.0,0.0,0.0,0.0,0.0,0.0,0.0,0.0,0.0,0.0,0.0,0.0,0.0,0.0,0.0,0.0,0.0,0.0,0.0,0.0,0.0,0.0,0.0,0.0,0.0,0.0,0.0,0.0,0.0,0.0,0.0,0.0,0.0,0.0,0.0,0.0,0.0,0.0,0.0,0.0,0.0,0.0,0.0,0.0,0.0,0.0,0.0,0.0,0.0,0.0,0.0,0.0,0.0,-2.5805,-2.6308,-2.6841,-2.716,-2.6456,-2.6214,0.0,0.0,0.0,0.0,0.0,0.0,0.0,0.0,0.0,0.0,0.0,0.0,0.0,0.0,0.0,0.0,0.0,0.0,0.0,0.0,0.0,0.0,0.0,0.0,0.0,0.0,0.0,0.0,0.0,0.0,0.0,0.0,0.0,0.0,0.0,0.0,0.0,0.0,0.0,0.0,0.0,0.0,0.0,0.0,0.0,0.0,0.0,0.0,0.0,0.0,0.0,0.0,0.0,0.0,0.0,0.0,0.0,0.0,0.0,0.0,0.0,0.0,0.0,0.0,0.0,0.0,0.0,0.0,0.0,0.0,0.0,0.0,0.0,0.0,0.0,0.0,0.0,0.0,0.0,0.0,0.0,0.0,0.0,0.0,0.0,0.0,0.0,0.0,0.0,0.0,0.0,0.0,0.0,0.0,0.0,0.0,0.0,0.0,0.0,0.0,0.0,0.0,0.0,0.0,0.0,0.0,0.0,0.0,0.0,-2.7482,-2.7572,-2.7815,-2.8142,-2.7551,-2.7184,-2.6986,0.0,0.0,0.0,0.0,0.0,0.0,0.0,0.0,0.0,0.0,0.0,0.0,0.0,0.0,0.0,0.0,0.0,0.0,0.0,0.0,0.0,0.0,0.0,0.0,0.0,0.0,0.0,0.0,0.0,0.0,0.0,0.0,0.0,0.0,0.0,0.0,0.0,0.0,0.0,0.0,0.0,0.0,0.0,0.0,0.0,0.0,0.0,0.0,0.0,0.0,0.0,0.0,0.0,0.0,0.0,0.0,0.0,0.0,0.0,0.0,0.0,0.0,0.0,0.0,0.0,0.0,0.0,0.0,0.0,0.0,0.0,0.0,0.0,0.0,0.0,0.0,0.0,0.0,0.0,0.0,0.0,0.0,0.0,0.0,0.0,0.0,0.0,0.0,0.0,0.0,0.0,0.0,0.0,0.0,0.0,0.0,0.0,0.0,0.0,0.0,0.0,0.0,0.0,0.0,0.0,0.0,0.0,0.0,-2.9332,-2.912,-2.89,-2.8642,-2.8987,-2.8586,0.0,0.0,0.0,0.0,0.0,0.0,0.0,0.0,0.0,0.0,0.0,0.0,0.0,0.0,0.0,0.0,0.0,0.0,0.0,0.0,0.0,0.0,0.0,0.0,0.0,0.0,0.0,0.0,0.0,0.0,0.0,0.0,0.0,0.0,0.0,0.0,0.0,0.0,0.0,0.0,0.0,0.0,0.0,0.0,0.0,0.0,0.0,0.0,0.0,0.0,0.0,0.0,0.0,0.0,0.0,0.0,0.0,0.0,0.0,0.0,0.0,0.0,0.0,0.0,0.0,0.0,0.0,0.0,0.0,0.0,0.0,0.0,0.0,0.0,0.0,0.0,0.0,0.0,0.0,0.0,0.0,0.0,0.0,0.0,0.0,0.0,0.0,0.0,0.0,0.0,0.0,0.0,0.0,0.0,0.0,0.0,0.0,0.0,0.0,0.0,0.0,0.0,0.0,0.0,0.0,0.0,0.0,0.0,0.0,-3.0626,-3.0866,-3.0959,-3.0951,-2.9696,-2.9047,0.0,0.0,0.0,0.0,0.0,0.0,0.0,0.0,0.0,0.0,0.0,0.0,0.0,0.0,0.0,0.0,0.0,0.0,0.0,0.0,0.0,0.0,0.0,0.0,0.0,0.0,0.0,0.0,0.0,0.0,0.0,0.0,0.0,0.0,0.0,0.0,0.0,0.0,0.0,0.0,0.0,0.0,0.0,0.0,0.0,0.0,0.0,0.0,0.0,0.0,0.0,0.0,0.0,0.0,0.0,0.0,0.0,0.0,0.0,0.0,0.0,0.0,0.0,0.0,0.0,0.0,0.0,0.0,0.0,0.0,0.0,0.0,0.0,0.0,0.0,0.0,0.0,0.0,0.0,0.0,0.0,0.0,0.0,0.0,0.0,0.0,0.0,0.0,0.0,0.0,0.0,0.0,0.0,0.0,0.0,0.0,0.0,0.0,0.0,0.0,0.0,0.0,0.0,0.0,0.0,0.0,0.0,0.0,-3.0846,-3.1687,-3.2438,-3.286,-3.3121,-3.1497,-3.0498,0.0,0.0,0.0,0.0,0.0,0.0,0.0,0.0,0.0,0.0,0.0,0.0,0.0,0.0,0.0,0.0,0.0,0.0,0.0,0.0,0.0,0.0,0.0,0.0,0.0,0.0,0.0,0.0,0.0,0.0,0.0,0.0,0.0,0.0,0.0,0.0,0.0,0.0,0.0,0.0,0.0,0.0,0.0,0.0,0.0,0.0,0.0,0.0,0.0,0.0,0.0,0.0,0.0,0.0,0.0,0.0,0.0,0.0,0.0,0.0,0.0,0.0,0.0,0.0,0.0,0.0,0.0,0.0,0.0,0.0,0.0,0.0,0.0,0.0,0.0,0.0,0.0,0.0,0.0,0.0,0.0,0.0,0.0,0.0,0.0,0.0,0.0,0.0,0.0,0.0,0.0,0.0,0.0,0.0,0.0,0.0,0.0,0.0,0.0,0.0,0.0,0.0,0.0,0.0,0.0,0.0,0.0,0.0,-3.2323,-3.2709,-3.3851,-3.4603,-3.4835,-3.3746,-3.2256,0.0,0.0,0.0,0.0,0.0,0.0,0.0,0.0,0.0,0.0,0.0,0.0,0.0,0.0,0.0,0.0,0.0,0.0,0.0,0.0,0.0,0.0,0.0,0.0,0.0,0.0,0.0,0.0,0.0,0.0,0.0,0.0,0.0,0.0,0.0,0.0,0.0,0.0,0.0,0.0,0.0,0.0,0.0,0.0,0.0,0.0,0.0,0.0,0.0,0.0,0.0,0.0,0.0,0.0,0.0,0.0,0.0,0.0,0.0,0.0,0.0,0.0,0.0,0.0,0.0,0.0,0.0,0.0,0.0,0.0,0.0,0.0,0.0,0.0,0.0,0.0,0.0,0.0,0.0,0.0,0.0,0.0,0.0,0.0,0.0,0.0,0.0,0.0,0.0,0.0,0.0,0.0,0.0,0.0,0.0,0.0,0.0,0.0,0.0,0.0,0.0,0.0,0.0,0.0,0.0,0.0,0.0,0.0,-3.3408,-3.4311,-3.4768,-3.55,-3.6322,-3.408,-3.2546,0.0,0.0,0.0,0.0,0.0,0.0,0.0,0.0,0.0,0.0,0.0,0.0,0.0,0.0,0.0,0.0,0.0,0.0,0.0,0.0,0.0,0.0,0.0,0.0,0.0,0.0,0.0,0.0,0.0,0.0,0.0,0.0,0.0,0.0,0.0,0.0,0.0,0.0,0.0,0.0,0.0,0.0,0.0,0.0,0.0,0.0,0.0,0.0,-2.6627,0.0,0.0,0.0,0.0,0.0,0.0,0.0,0.0,0.0,0.0,0.0,0.0,0.0,0.0,0.0,0.0,0.0,0.0,0.0,0.0,0.0,0.0,0.0,0.0,0.0,0.0,0.0,0.0,0.0,0.0,0.0,0.0,0.0,0.0,0.0,0.0,0.0,0.0,0.0,0.0,0.0,0.0,0.0,0.0,0.0,0.0,0.0,0.0,0.0,0.0,0.0,0.0,0.0,0.0,0.0,0.0,0.0,0.0,0.0,-3.423,-3.5318,-3.6148,-3.6768,-3.7267,-3.5719,-3.4159,0.0,0.0,0.0,0.0,0.0,0.0,0.0,0.0,0.0,0.0,0.0,0.0,0.0,0.0,0.0,0.0,0.0,0.0,0.0,0.0,0.0,0.0,0.0,0.0,0.0,0.0,0.0,0.0,0.0,0.0,0.0,0.0,0.0,0.0,0.0,0.0,0.0,0.0,0.0,0.0,0.0,0.0,0.0,0.0,0.0,0.0,0.0,0.0,0.0,0.0,0.0,0.0,0.0,0.0,0.0,0.0,0.0,0.0,0.0,0.0,0.0,0.0,0.0,0.0,0.0,0.0,0.0,0.0,0.0,0.0,0.0,0.0,0.0,0.0,0.0,0.0,0.0,0.0,0.0,0.0,0.0,0.0,0.0,0.0,0.0,0.0,0.0,0.0,0.0,0.0,0.0,0.0,0.0,0.0,0.0,0.0,0.0,0.0,0.0,0.0,0.0,0.0,0.0,0.0,0.0,0.0,0.0,-3.3881,-3.5251,-3.6422,-3.7565,-3.8191,-3.8241,-3.7563,-3.6006,-3.3571,0.0,0.0,0.0,0.0,0.0,0.0,0.0,0.0,0.0,0.0,0.0,0.0,0.0,0.0,0.0,0.0,0.0,0.0,0.0,0.0,0.0,0.0,0.0,0.0,0.0,0.0,0.0,0.0,0.0,0.0,0.0,0.0,0.0,0.0,0.0,0.0,0.0,0.0,-2.6173,-2.6801,0.0,0.0,0.0,0.0,0.0,0.0,0.0,0.0,-2.8224,0.0,0.0,0.0,0.0,0.0,0.0,0.0,0.0,0.0,0.0,0.0,0.0,0.0,0.0,0.0,0.0,0.0,0.0,0.0,0.0,0.0,0.0,0.0,0.0,0.0,0.0,0.0,0.0,0.0,0.0,0.0,0.0,0.0,0.0,0.0,0.0,0.0,0.0,0.0,0.0,0.0,0.0,0.0,0.0,0.0,0.0,0.0,0.0,0.0,0.0,0.0,0.0,0.0,0.0,0.0,0.0,-3.4209,-3.5479,-3.686,-3.8417,-3.8642,-3.8944,-3.9346,-3.7965,-3.6533,-3.5177,0.0,0.0,0.0,0.0,0.0,0.0,0.0,0.0,0.0,0.0,0.0,0.0,0.0,0.0,0.0,0.0,0.0,0.0,0.0,0.0,0.0,0.0,0.0,0.0,0.0,0.0,0.0,0.0,0.0,0.0,0.0,0.0,0.0,0.0,0.0,0.0,0.0,0.0,0.0,-2.8913,-2.9291,0.0,0.0,0.0,0.0,0.0,0.0,0.0,0.0,-2.9721,0.0,0.0,0.0,0.0,0.0,0.0,0.0,0.0,0.0,0.0,0.0,0.0,0.0,0.0,0.0,0.0,0.0,0.0,0.0,0.0,0.0,0.0,0.0,0.0,0.0,0.0,0.0,0.0,0.0,0.0,0.0,0.0,0.0,0.0,0.0,0.0,0.0,0.0,0.0,0.0,0.0,0.0,0.0,0.0,0.0,0.0,0.0,0.0,0.0,0.0,0.0,0.0,0.0,0.0,0.0,-3.4274,-3.5931,-3.7462,-3.8818,-3.9145,-3.9295,-3.9245,-3.8191,-3.696,0.0,0.0,0.0,0.0,0.0,0.0,0.0,0.0,0.0,0.0,0.0,0.0,0.0,0.0,0.0,0.0,0.0,0.0,0.0,0.0,0.0,0.0,0.0,0.0,0.0,0.0,0.0,0.0,0.0,0.0,0.0,0.0,0.0,0.0,0.0,0.0,0.0,0.0,0.0,0.0,-2.9728,-2.9779,-3.0218,0.0,0.0,0.0,0.0,0.0,0.0,-3.0426,-3.0175,0.0,0.0,0.0,0.0,0.0,0.0,0.0,0.0,0.0,0.0,0.0,0.0,0.0,0.0,0.0,0.0,0.0,0.0,0.0,0.0,0.0,0.0,0.0,0.0,0.0,0.0,0.0,0.0,0.0,0.0,0.0,0.0,0.0,0.0,0.0,0.0,0.0,0.0,0.0,0.0,0.0,0.0,0.0,0.0,0.0,0.0,0.0,0.0,0.0,0.0,0.0,0.0,0.0,0.0,0.0,-3.4248,-3.6182,-3.7739,-3.8818,-3.9295,-3.9245,-3.8718,-3.814,-3.7111,0.0,0.0,0.0,0.0,0.0,0.0,0.0,0.0,0.0,0.0,0.0,0.0,0.0,0.0,0.0,0.0,0.0,0.0,0.0,0.0,0.0,0.0,0.0,0.0,0.0,0.0,0.0,0.0,0.0,0.0,0.0,0.0,0.0,0.0,0.0,0.0,0.0,0.0,0.0,0.0,0.0,-3.0198,-3.0902,-3.0318,0.0,0.0,0.0,0.0,-3.1144,-3.0957,0.0,0.0,0.0,0.0,0.0,0.0,0.0,0.0,0.0,0.0,0.0,0.0,0.0,0.0,0.0,0.0,0.0,0.0,0.0,0.0,0.0,0.0,0.0,0.0,0.0,0.0,0.0,0.0,0.0,0.0,0.0,0.0,0.0,0.0,0.0,0.0,0.0,0.0,0.0,0.0,0.0,0.0,0.0,0.0,0.0,0.0,0.0,0.0,0.0,0.0,0.0,0.0,0.0,0.0,0.0,0.0,-3.5303,-3.6558,-3.7739,-3.8793,-3.8944,-3.8693,-3.8115,-3.7563,-3.683,0.0,0.0,0.0,0.0,0.0,0.0,0.0,0.0,0.0,0.0,0.0,0.0,0.0,0.0,0.0,0.0,0.0,0.0,0.0,0.0,0.0,0.0,0.0,0.0,0.0,0.0,0.0,0.0,0.0,0.0,0.0,0.0,0.0,0.0,0.0,0.0,0.0,0.0,0.0,0.0,0.0,-3.1665,-3.1064,-3.1236,-3.1438,0.0,0.0,-3.1701,-3.2052,-3.2534,0.0,0.0,0.0,0.0,0.0,0.0,0.0,0.0,0.0,0.0,0.0,0.0,0.0,0.0,0.0,0.0,0.0,0.0,0.0,0.0,0.0,0.0,0.0,0.0,0.0,0.0,0.0,0.0,0.0,0.0,0.0,0.0,0.0,0.0,0.0,0.0,0.0,0.0,0.0,0.0,0.0,0.0,0.0,0.0,0.0,0.0,0.0,0.0,0.0,0.0,0.0,0.0,0.0,0.0,0.0,-3.4035,-3.5713,-3.6729,-3.7713,-3.8818,-3.8542,-3.8115,-3.7563,-3.701,-3.6301,0.0,0.0,0.0,0.0,0.0,0.0,0.0,0.0,0.0,0.0,0.0,0.0,0.0,0.0,0.0,0.0,0.0,0.0,0.0,0.0,0.0,0.0,0.0,0.0,0.0,0.0,0.0,0.0,0.0,0.0,0.0,0.0,0.0,0.0,0.0,0.0,0.0,0.0,0.0,0.0,0.0,0.0,-3.1922,-3.1778,0.0,0.0,0.0,-3.2465,-3.2827,0.0,0.0,0.0,0.0,0.0,0.0,0.0,0.0,0.0,0.0,0.0,0.0,0.0,0.0,0.0,0.0,0.0,0.0,0.0,0.0,0.0,0.0,0.0,0.0,0.0,0.0,0.0,0.0,0.0,0.0,0.0,0.0,0.0,0.0,0.0,0.0,0.0,0.0,0.0,0.0,0.0,0.0,0.0,0.0,0.0,0.0,0.0,0.0,0.0,0.0,0.0,0.0,0.0,0.0,0.0,0.0,0.0,-3.5923,-3.6729,-3.7588,-3.8391,-3.8114,-3.7635,-3.6985,-3.6773,0.0,0.0,0.0,0.0,0.0,0.0,0.0,0.0,0.0,0.0,0.0,0.0,0.0,0.0,0.0,0.0,0.0,0.0,0.0,0.0,0.0,0.0,0.0,0.0,0.0,0.0,0.0,-2.8586,0.0,0.0,0.0,0.0,0.0,0.0,0.0,0.0,0.0,0.0,0.0,0.0,0.0,0.0,-3.1953,-3.2406,-3.2313,-3.2281,0.0,0.0,-3.2922,-3.3492,-3.3387,-3.3187,0.0,0.0,0.0,0.0,0.0,0.0,0.0,0.0,0.0,0.0,0.0,0.0,0.0,0.0,0.0,0.0,0.0,0.0,0.0,0.0,0.0,0.0,0.0,0.0,0.0,0.0,0.0,0.0,0.0,0.0,0.0,0.0,0.0,0.0,0.0,0.0,0.0,0.0,0.0,0.0,0.0,0.0,0.0,0.0,0.0,0.0,0.0,0.0,0.0,0.0,0.0,0.0,0.0,0.0,0.0,-3.5923,-3.6729,-3.7236,-3.7312,-3.7577,-3.7273,-3.6528,-3.6854,-3.6504,0.0,0.0,0.0,0.0,0.0,0.0,0.0,0.0,0.0,0.0,0.0,0.0,0.0,0.0,0.0,0.0,0.0,0.0,0.0,0.0,0.0,0.0,0.0,0.0,0.0,0.0,0.0,0.0,0.0,0.0,0.0,0.0,0.0,0.0,0.0,0.0,0.0,0.0,0.0,0.0,0.0,-3.2085,-3.2035,-3.2909,-3.3428,0.0,0.0,-3.3141,-3.3948,-3.4248,-3.4105,-3.3417,0.0,0.0,0.0,0.0,0.0,0.0,0.0,0.0,0.0,0.0,0.0,0.0,0.0,0.0,0.0,0.0,0.0,0.0,0.0,0.0,0.0,0.0,0.0,0.0,0.0,0.0,0.0,0.0,0.0,0.0,0.0,0.0,0.0,0.0,0.0,0.0,0.0,0.0,0.0,0.0,0.0,0.0,0.0,0.0,0.0,0.0,0.0,0.0,0.0,0.0,0.0,0.0,0.0,-3.5494,-3.6288,-3.6871,-3.7464,-3.8125,-3.7967,-3.784,-3.7845,-3.8038,-3.7715,0.0,0.0,0.0,0.0,0.0,0.0,0.0,0.0,0.0,0.0,0.0,0.0,0.0,0.0,0.0,0.0,0.0,0.0,0.0,0.0,0.0,0.0,0.0,0.0,0.0,0.0,0.0,0.0,-2.9816,-3.0035,-3.0319,0.0,0.0,0.0,0.0,0.0,0.0,0.0,0.0,0.0,0.0,-3.2539,-3.2851,-3.3437,0.0,0.0,-3.3932,-3.4159,-3.4465,-3.4307,-3.4163,-3.3886,-3.352,0.0,0.0,0.0,0.0,0.0,0.0,0.0,0.0,0.0,0.0,0.0,0.0,0.0,0.0,0.0,0.0,0.0,0.0,0.0,0.0,0.0,0.0,0.0,0.0,0.0,0.0,0.0,0.0,0.0,0.0,0.0,0.0,0.0,0.0,0.0,0.0,0.0,0.0,0.0,0.0,0.0,0.0,0.0,0.0,0.0,0.0,0.0,0.0,0.0,0.0,0.0,0.0,-3.6135,-3.6819,-3.733,-3.8005,-3.8774,-3.8537,-3.8512,-3.8774,-3.8994,-3.8549,0.0,0.0,0.0,0.0,0.0,0.0,0.0,0.0,0.0,0.0,0.0,0.0,0.0,0.0,0.0,0.0,0.0,0.0,0.0,0.0,0.0,0.0,0.0,0.0,0.0,0.0,0.0,0.0,-3.0341,-3.0603,-3.1061,0.0,0.0,0.0,0.0,0.0,0.0,0.0,0.0,0.0,0.0,-3.3244,-3.3534,-3.3969,-3.4258,-3.4279,-3.43,-3.4486,-3.49,-3.4569,-3.4279,-3.4279,0.0,0.0,0.0,0.0,0.0,0.0,0.0,0.0,0.0,0.0,0.0,0.0,0.0,0.0,0.0,0.0,0.0,0.0,0.0,0.0,0.0,0.0,0.0,0.0,0.0,0.0,0.0,0.0,0.0,0.0,-3.7464,0.0,0.0,0.0,0.0,0.0,0.0,0.0,0.0,0.0,0.0,0.0,0.0,0.0,0.0,0.0,0.0,0.0,0.0,0.0,0.0,0.0,0.0,-3.6884,-3.7479,-3.835,-3.8748,-3.88,-3.9091,-3.9091,-3.8923,-3.931,-3.8981,-3.7557,0.0,0.0,0.0,0.0,0.0,0.0,0.0,0.0,0.0,0.0,0.0,0.0,0.0,0.0,0.0,0.0,0.0,0.0,0.0,0.0,0.0,0.0,0.0,0.0,0.0,0.0,-3.0188,-3.0624,-3.1061,0.0,0.0,0.0,0.0,0.0,0.0,0.0,0.0,0.0,0.0,-3.3182,-3.4031,-3.4051,-3.4445,-3.4755,-3.4734,-3.401,-3.3886,-3.519,-3.5024,-3.4755,0.0,0.0,0.0,0.0,0.0,0.0,0.0,0.0,0.0,0.0,0.0,0.0,0.0,0.0,0.0,0.0,0.0,0.0,0.0,0.0,0.0,0.0,0.0,0.0,0.0,0.0,0.0,-3.9956,-3.9709,0.0,0.0,0.0,0.0,0.0,0.0,0.0,0.0,0.0,0.0,0.0,-3.9031,-3.9134,0.0,0.0,0.0,0.0,0.0,0.0,0.0,0.0,0.0,0.0,0.0,0.0,-3.773,-3.7992,-3.8903,-3.9492,-3.9803,-3.9927,-4.0135,-4.0426,-4.065,-4.0017,-3.8382,0.0,0.0,0.0,0.0,0.0,0.0,0.0,0.0,0.0,0.0,0.0,0.0,0.0,0.0,0.0,0.0,0.0,0.0,0.0,0.0,0.0,0.0,0.0,0.0,0.0,-3.086,0.0,0.0,0.0,0.0,0.0,0.0,0.0,0.0,0.0,0.0,0.0,-3.2802,-3.3395,-3.4075,-3.431,-3.4191,-3.4714,-3.5211,0.0,0.0,0.0,0.0,0.0,0.0,0.0,0.0,0.0,0.0,0.0,0.0,0.0,0.0,-3.6003,-3.5269,-3.5047,-3.4944,-3.5067,0.0,0.0,0.0,0.0,0.0,0.0,0.0,0.0,0.0,0.0,0.0,0.0,0.0,0.0,-4.1291,0.0,-4.1069,0.0,0.0,0.0,0.0,0.0,0.0,0.0,0.0,-4.159,-4.1617,-4.1157,-4.1073,-4.0718,0.0,-3.976,-3.9005,0.0,0.0,0.0,0.0,0.0,0.0,0.0,0.0,-3.8701,-3.8939,-3.9981,-4.0649,-4.0992,-4.092,-4.1005,-4.1398,-4.1115,-4.0461,-3.9337,-3.8789,-3.8031,0.0,0.0,0.0,0.0,0.0,0.0,0.0,0.0,0.0,0.0,0.0,0.0,0.0,0.0,0.0,0.0,0.0,0.0,0.0,0.0,0.0,0.0,0.0,-3.1429,0.0,0.0,0.0,0.0,0.0,0.0,0.0,0.0,0.0,-3.3551,-3.3677,-3.4054,-3.4368,-3.4762,-3.4909,-3.4527,0.0,0.0,0.0,0.0,0.0,0.0,0.0,-3.5625,-3.6059,-3.6183,-3.6266,-3.6556,-3.7115,-3.7368,-3.7339,0.0,0.0,-3.6322,-3.5983,-3.5988,-3.6115,-3.6234,-3.6391,-3.6677,-3.6486,-3.6383,0.0,0.0,0.0,0.0,0.0,0.0,0.0,0.0,-4.2371,-4.2633,0.0,-4.2318,0.0,0.0,0.0,0.0,0.0,-4.2379,0.0,0.0,-4.309,-4.3234,-4.3102,-4.2992,-4.2653,-4.1973,-4.2334,-4.1786,-4.0278,-3.8505,0.0,0.0,0.0,0.0,0.0,0.0,-3.9801,-4.036,-4.1479,-4.2065,-4.2065,-4.1868,-4.1696,-4.1696,-4.0874,-4.0435,-4.0383,-3.9886,-3.9337,-3.8762,-3.8214,0.0,0.0,0.0,0.0,0.0,0.0,0.0,0.0,0.0,0.0,0.0,0.0,0.0,0.0,0.0,0.0,0.0,0.0,0.0,0.0,-3.2129,0.0,0.0,0.0,0.0,0.0,0.0,0.0,0.0,0.0,0.0,-3.3679,-3.4647,-3.5253,-3.4686,0.0,0.0,0.0,0.0,-3.5583,-3.6039,-3.5749,-3.5769,-3.6639,-3.6784,-3.6949,-3.7425,0.0,0.0,-3.8854,-3.9247,-3.9254,-3.8978,-3.9151,-3.9019,-3.7588,-3.7225,-3.7348,-3.7636,-3.7616,-3.7657,-3.7697,-3.7637,-3.7662,-4.7561,0.0,0.0,0.0,0.0,-4.4941,-4.4649,-4.4388,-4.3899,-4.3731,-4.3654,-4.2986,0.0,0.0,0.0,0.0,0.0,0.0,-4.3409,-4.3778,-4.4273,-4.4608,-4.459,-4.444,-4.4471,-4.487,-4.3749,-4.3118,-4.2944,-4.1341,-3.9885,-3.8742,0.0,0.0,0.0,0.0,-4.1072,-4.1287,-4.179,-4.2065,-4.2065,-4.1993,-4.1895,-4.1696,-4.1241,-4.0853,-4.0435,-4.0278,-4.0009,-3.9649,-3.9302,0.0,0.0,0.0,0.0,0.0,0.0,0.0,0.0,0.0,0.0,0.0,0.0,0.0,0.0,0.0,0.0,0.0,0.0,0.0,-3.2443,-3.2129,-3.217,0.0,0.0,0.0,0.0,0.0,0.0,0.0,0.0,0.0,-3.5729,-3.6099,-3.6242,0.0,0.0,-3.6051,-3.5349,-3.5333,-3.5583,-3.6059,-3.5997,0.0,0.0,-3.6804,-3.7074,-3.786,-3.8553,-3.9151,-3.933,-3.9626,-3.9754,-3.9429,-3.9475,-3.9496,-3.905,-3.8902,-3.887,-3.887,-3.8733,-3.8697,-3.8983,-3.8888,-3.8748,-5.0147,-4.864,-4.7465,-4.6998,-4.6779,-4.622,-4.5909,-4.58,-4.5401,-4.5292,-4.5349,-4.4708,-4.4372,-4.4419,-4.3746,0.0,0.0,0.0,-4.471,-4.5259,-4.5484,-4.5843,-4.6112,-4.6049,-4.6166,-4.6576,-4.5917,-4.5481,-4.5261,-4.3995,-4.2675,-4.1187,0.0,0.0,-4.0947,-4.1775,-4.2247,-4.249,-4.2888,-4.3084,-4.3084,-4.2984,-4.2678,-4.204,-4.1939,-4.1476,-4.0801,-4.0775,-4.0717,-4.0694,-4.0263,-3.9869,0.0,0.0,0.0,0.0,0.0,0.0,0.0,0.0,0.0,0.0,0.0,-3.4495,0.0,0.0,0.0,0.0,-3.3362,-3.3036,-3.2764,-3.2836,0.0,0.0,0.0,0.0,0.0,0.0,0.0,-3.4775,-3.5648,-3.6369,-3.6653,-3.7025,-3.7057,-3.6523,-3.6496,-3.6194,-3.5533,0.0,-3.5852,-3.6328,-3.6556,-3.6825,-3.7281,-3.7363,-3.7653,-3.8564,-3.9296,-3.9853,-4.0054,-4.0203,-4.0226,-4.0226,-4.0106,-4.0208,-4.0085,-4.01,-3.9992,-3.9827,-3.9528,-3.9391,-3.982,-3.9617,-3.9412,-5.2634,-5.1549,-4.8749,-4.7481,-4.731,-4.6916,-4.6726,-4.6665,-4.6696,-4.7034,-4.7558,-4.688,-4.6603,-4.6542,-4.5957,0.0,-4.6376,-4.6376,-4.6468,-4.6689,-4.6719,-4.7026,-4.7399,-4.7762,-4.7821,-4.7427,-4.826,-4.8155,-4.7215,-4.6206,-4.5261,-4.4199,-4.2301,-4.1625,-4.2086,-4.2656,-4.3253,-4.385,-4.4393,-4.4691,-4.4691,-4.4489,-4.3761,-4.2669,-4.2642,-4.2203,-4.135,-4.1298,-4.1398,-4.167,-4.1195,-4.0641,-4.006,0.0,0.0,0.0,0.0,0.0,0.0,0.0,0.0,0.0,0.0,0.0,0.0,0.0,0.0,0.0,-3.36,0.0,-3.3353,-3.3967,0.0,0.0,0.0,-3.4467,-3.4011,-3.4666,-3.5233,-3.5321,0.0,0.0,-3.6741,-3.7549,-3.7819,-3.704,-3.6753,-3.6406,-3.6037,-3.6144,-3.6328,-3.6784,-3.7198,-3.7674,-3.8088,-3.8295,-3.8647,-3.9433,-4.0323,-4.08,-4.082,-4.0841,-4.0862,-4.0841,-4.0882,-4.0862,-4.0882,-4.0862,-4.08,-4.0323,-3.9959,-3.984,-4.033,-4.0248,-3.9939,-5.411,-5.3327,-5.1417,-4.9922,-4.8792,-4.8581,-4.8109,-4.7676,-4.7645,-4.7627,-4.7558,-4.688,-4.6603,-4.6603,-4.6419,-4.6647,-4.7048,-4.7048,-4.725,-4.7637,-4.7981,-4.814,-4.832,-4.8507,-4.8983,-4.9459,-4.8886,-4.8576,-4.8581,-4.7148,-4.6107,-4.5483,-4.4354,-4.3443,-4.2738,-4.3253,-4.3877,-4.4474,-4.4637,-4.4719,-4.4691,-4.4462,-4.3963,-4.3199,-4.2971,-4.2504,-4.1623,-4.1597,-4.1597,-4.1696,-4.1366,-4.1051,-4.0667,-3.9344,0.0,0.0,0.0,0.0,0.0,0.0,0.0,0.0,0.0,-3.6282,-3.5411,0.0,-3.5397,0.0,-3.4416,-3.4289,-3.4393,-3.438,0.0,0.0,-3.4464,-3.4712,-3.4909,-3.5081,-3.5496,-3.626,-3.6544,-3.6828,-3.7178,-3.7724,-3.8073,-3.7841,-3.7627,-3.7465,-3.736,-3.6938,-3.6804,-3.7218,-3.7425,-3.7777,-3.8564,-3.9309,-3.9785,-4.0034,-4.053,-4.0862,-4.0882,-4.0882,-4.0882,-4.0882,-4.0882,-4.0882,-4.0882,-4.1151,-4.1214,-4.082,-4.0717,-4.0822,-4.1606,-4.1503,-4.1193,-5.5567,-5.481,-5.2911,-5.134,-5.0053,-4.9677,-4.9295,-4.8872,-4.8693,-4.8407,-4.8213,-4.7843,-4.7688,-4.7688,-4.7608,-4.763,-4.7886,-4.7886,-4.7935,-4.8133,-4.8359,-4.849,-4.8648,-4.9014,-4.9583,-5.0212,-4.9875,-4.9838,-4.9823,-4.8288,-4.7299,-4.6645,-4.5603,-4.4775,-4.4122,-4.442,-4.4881,-4.5478,-4.5505,-4.5505,-4.5505,-4.5375,-4.4867,-4.3802,-4.3573,-4.287,-4.1921,-4.1597,-4.1597,-4.1895,-4.136,-4.0972,-4.0755,-3.979,-3.9197,0.0,0.0,0.0,0.0,0.0,0.0,0.0,0.0,0.0,0.0,0.0,-3.527,-3.5067,-3.4912,-3.4895,-3.4683,-3.4971,-3.5114,-3.4866,-3.5067,-3.5291,-3.5395,-3.572,-3.6085,-3.6631,-3.6872,-3.709,-3.7352,-3.8008,-3.8423,-3.8444,-3.8528,-3.8402,-3.7912,-3.7336,-3.7198,-3.7446,-3.7653,-3.8026,-3.875,-3.962,-4.022,-4.0261,-4.0593,-4.0882,-4.0882,-4.0882,-4.0882,-4.0882,-4.0882,-4.0882,-4.0882,-4.1069,-4.1214,-4.1214,-4.1007,-4.1151,-4.1793,-4.1752,-4.1544,-5.7099,-5.617,-5.407,-5.2471,-5.1385,-5.0849,-5.0414,-4.9885,-4.954,-4.921,-4.8996,-4.8996,-4.8996,-4.8996,-4.8718,-4.8604,-4.8604,-4.8604,-4.8552,-4.8385,-4.8485,-4.8682,-4.8857,-4.9611,-5.0065,-5.0361,-5.093,-5.1135,-5.0793,-4.9567,-4.8538,-4.7729,-4.6433,-4.5761,-4.5695,-4.5777,-4.6021,-4.6455,-4.6482,-4.6482,-4.6482,-4.6482,-4.5782,-4.4441,-4.4157,-4.3419,-4.2145,-4.1597,-4.1597,-4.1967,-4.132,-4.086,-4.0834,-4.0307,-3.9991,0.0,-3.9651,0.0,0.0,0.0,0.0,0.0,0.0,0.0,0.0,-3.5324,-3.49,-3.4877,-3.5336,-3.5397,-3.4836,-3.5722,-3.6041,-3.5291,-3.5714,-3.6025,-3.5887,-3.629,-3.6719,-3.6762,-3.7134,-3.7374,-3.7396,-3.8226,-3.8816,-3.8755,-3.9217,-3.9109,-3.8231,-3.7863,-3.7722,-3.7591,-3.8026,-3.8564,-3.8978,-3.9744,-4.0323,-4.0365,-4.0634,-4.0862,-4.0882,-4.0882,-4.0882,-4.0882,-4.0882,-4.0882,-4.0882,-4.0924,-4.1089,-4.1358,-4.1234,-4.1131,-4.1565,-4.1626,-4.1375,-5.8984,-5.7691,-5.6182,-5.474,-5.3471,-5.285,-5.1454,-4.9689,-4.9564,-4.9452,-4.921,-4.9078,-4.8996,-4.8996,-4.8718,-4.8604,-4.8604,-4.8604,-4.8604,-4.8583,-4.9488,-4.9896,-4.9992,-5.103,-5.1485,-5.1299,-5.1419,-5.1386,-5.1135,-5.0199,-4.9339,-4.8553,-4.7668,-4.6984,-4.6424,0.0,0.0,0.0,-4.6482,-4.6482,-4.6482,-4.6482,-4.5912,-4.4644,-4.459,0.0,-4.2145,-4.1993,-4.1796,-4.1498,-4.1293,0.0,0.0,0.0,0.0,0.0,0.0,0.0,0.0,0.0,0.0,0.0,-3.8139,-3.6973,-3.7196,-3.6264,-3.5594,-3.5405,-3.5841,-3.614,-3.6031,-3.6268,-3.6341,-3.6005,-3.6204,-3.644,-3.6465,-3.6588,-3.6828,-3.7199,-3.733,-3.7374,-3.7461,-3.8226,-3.8816,-3.8903,-3.9282,-3.9497,-3.8954,-3.8582,-3.8423,-3.8242,-3.8709,-3.9268,-3.9392,-4.0158,-4.0717,-4.0779,-4.08,-4.0882,-4.0882,-4.0882,-4.0882,-4.0882,-4.0882,-4.0882,-4.0882,-4.1172,-4.1296,-4.1069,-4.1213,-4.1682,-4.2112,-4.1908,-4.161,-5.9605,0.0,-5.7149,-5.5641,0.0,-5.3597,-5.227,-5.0781,-5.0434,-5.0196,-4.9953,-4.9999,-4.9832,-4.9491,-4.9242,-4.9158,-4.9127,-4.9127,-4.9312,-4.9682,-5.0273,-5.0559,-5.0808,-5.1422,-5.182,-5.2085,-5.2085,-5.2077,-5.1995,-5.1609,-5.0719,-4.9338,-4.8934,-4.808,-4.6796,-4.6859,-4.7052,-4.7351,-4.7351,-4.7215,-4.6916,-4.6916,-4.6347,-4.5207,0.0,0.0,0.0,0.0,0.0,0.0,0.0,0.0,0.0,0.0,0.0,-4.0827,-4.0618,-4.0331,-4.0043,-4.0278,-4.0239,-3.9792,-3.8262,-3.726,-3.6948,-3.6367,-3.6202,-3.6599,-3.6874,-3.7012,-3.6924,-3.6928,-3.6861,-3.6521,-3.66,-3.6766,-3.689,-3.7013,-3.7112,-3.733,-3.7374,-3.7461,-3.7724,-3.8357,-3.8903,-3.9187,-3.967,-3.9757,-3.9341,-3.8946,-3.8611,-3.8481,-3.9268,-3.9847,-3.9909,-4.0406,-4.0862,-4.0882,-4.0882,-4.0882,-4.0882,-4.0882,-4.0882,-4.0882,-4.0882,-4.0882,-4.0882,-4.1069,-4.1151,-4.1007,-4.1151,-4.1305,-4.1603,-4.1704,-4.1585,-5.9935,-5.9757,-5.7707,-5.6154,-5.5017,-5.3975,-5.3006,-5.2144,0.0,0.0,0.0,-5.1016,-5.07,-5.0204,-5.0036,-4.9866,-4.9866,-4.9866,-5.0174,-5.0697,-5.082,-5.1072,-5.1386,-5.1509,-5.1972,-5.2691,-5.2722,-5.2768,-5.2881,-5.2881,-5.2023,-5.0457,-5.0299,-4.9359,-4.7576,-4.7155,-4.7486,-4.849,-4.8138,-4.7703,-4.7215,-4.7188,-4.6699,-4.5614,-4.4894,-4.4354,-4.3859,-4.2751,-4.216,-4.2126,-4.1281,-4.0958,-4.1402,-4.0984,-4.0984,-4.1559,-4.1533,-4.1246,-4.0775,-4.1089,-4.0689,-3.9499,-3.8515,-3.7489,-3.6271,-3.63,-3.6736,-3.7586,-3.7747,-3.7679,-3.7451,-3.7313,-3.7244,-3.692,-3.7111,-3.7163,-3.7185,-3.7254,-3.7352,-3.7374,-3.7374,-3.7571,-3.8029,-3.851,-3.9012,-3.9493,-3.9952,-4.0018,-3.9341,-3.8814,-3.8541,-3.8626,-3.9268,-3.9909,-4.0096,-4.0427,-4.0758,-4.0862,-4.0882,-4.0882,-4.0882,-4.0882,-4.0882,-4.0882,-4.0882,-4.0882,-4.0882,-4.0903,-4.0903,-4.0843,-4.0945,-4.0955,-4.1082,-4.1163,-4.1085,-6.0293,-5.8837,-5.8477,-5.6971,-5.4781,-5.4401,-5.3703,-5.2902,-5.2175,-5.1859,-5.1777,-5.1455,-5.1203,-5.1109,-5.0715,-5.0543,-5.0543,-5.0543,-5.0605,0.0,-5.1282,-5.1621,-5.1656,-5.2209,-5.2703,-5.2943,-5.288,-5.3054,-5.3114,-5.3204,-5.2625,-5.1842,-5.1712,-5.1104,-4.9983,-4.9173,-4.9087,-4.9684,-4.7758,-4.6672,-4.6591,-4.6591,-4.6292,-4.5641,-4.5505,-4.5078,-4.4253,-4.3712,-4.3243,-4.2563,-4.2154,-4.1951,-4.203,-4.1951,-4.2186,-4.2683,-4.2317,-4.2004,-4.1899,-4.1533,-4.087,-4.0084,-4.0023,-3.8794,-3.594,-3.6438,-3.6989,-3.7173,-3.7563,-3.7679,-3.736,-3.7514,-3.7506,-3.7199,-3.7242,-3.7407,-3.7363,-3.7309,-3.7374,-3.7374,-3.7374,-3.7571,-3.8095,-3.8554,-3.9056,-3.9515,-3.9995,-4.0018,-3.9363,-3.8702,-3.8325,-3.8316,-3.8709,-3.9164,-3.962,-4.0034,-4.0448,-4.082,-4.0862,-4.0882,-4.0882,-4.0882,-4.0882,-4.0882,-4.0882,-4.0882,-4.0882,-4.0882,-4.0884,-4.0904,-4.1061,-4.1062,-4.1032,-4.0449,-3.9719,-6.0502,-5.9638,-5.9032,-5.7822,-5.624,-5.5643,-5.4917,-5.4198,-5.385,-5.3197,-5.2398,-5.2457,-5.2137,-5.1709,-5.145,-5.1308,-5.1221,-5.1251,-5.1436,-5.1836,-5.2483,-5.279,-5.2852,-5.3498,-5.396,-5.4196,-5.4131,-5.4207,-5.4518,-5.4381,-5.3774,-5.2788,-5.173,-5.0777,-5.0085,-4.9281,-4.8899,-4.9033,-4.8626,-4.8246,-4.792,-4.7595,-4.7161,-4.6564,-4.594,-4.5478,-4.4975,-4.442,-4.3793,-4.322,-4.3042,-4.2837,-4.2631,-4.2631,-4.2762,-4.2997,-4.2788,-4.2631,-4.2631,-4.1672,-4.0799,-4.0134,-3.994,-3.8941,-3.6814,-3.7379,-3.7901,-3.7839,-3.8091,-3.8344,-3.8364,-3.8123,-3.8022,-3.7807,-3.7626,-3.7374,-3.7374,-3.7374,-3.7374,-3.7396,-3.7614,-3.7964,-3.8444,-3.8925,-3.9406,-3.9864,-4.004,-3.9757,-3.921,-3.8814,-3.8541,-3.8523,-3.8937,-3.9268,-3.9516,-3.9909,-4.0261,-4.0489,-4.0737,-4.0841,-4.0882,-4.0882,-4.0882,-4.0882,-4.0882,-4.0882,-4.0882,-4.0882,-4.0946,-4.0902,-4.0908,-4.1053,-4.098,-4.0029,-3.8955,-6.0766,-6.0378,-5.9491,-5.8429,-5.7345,-5.6599,-5.5866,-5.5146,-5.5114,-5.4333,-5.3184,-5.3333,-5.3097,-5.2455,-5.2337,-5.2162,-5.2017,-5.1929,-5.2206,-5.2729,-5.3252,-5.356,-5.3775,-5.4268,-5.4727,-5.5241,-5.5013,-5.5183,-5.5521,-5.528,-5.4798,-5.3875,-5.2116,-5.1051,-5.0735,-4.9661,-4.8982,-4.8707,-4.9549,-4.9657,-4.8952,-4.849,-4.7975,-4.7351,-4.6482,-4.594,-4.5777,-4.511,-4.4479,-4.4037,-4.383,-4.3545,-4.3206,-4.3206,-4.3284,-4.3363,-4.3284,-4.3154,-4.2892,-4.206,-4.1131,-4.0645,-4.0134,-3.9306,-3.8035,-3.8508,-3.8727,-3.8482,-3.8481,-3.8757,-3.8912,-3.8693,-3.838,-3.8261,-3.7736,-3.7374,-3.7374,-3.7374,-3.7374,-3.7418,-3.7811,-3.827,-3.8772,-3.9253,-3.9711,-4.0126,-3.9888,-3.9494,-3.921,-3.8814,-3.8583,-3.8761,-3.9019,-3.9206,-3.9351,-3.962,-3.9889,-4.0034,-4.061,-4.0796,-4.0717,-4.0779,-4.0882,-4.0882,-4.0882,-4.0882,-4.0882,-4.0882,-4.0987,-4.0898,-4.1009,-4.0903,-4.0257,-3.9405,-3.828,-6.1052,-6.0089,-5.9908,-5.8722,-5.7011,-5.6631,-5.5986,-5.5241,-5.5146,-5.4703,-5.3985,-5.3844,-5.3758,-5.3608,-5.3139,-5.2931,-5.2962,-5.2695,-5.2637,-5.2698,-5.279,-5.3129,-5.3745,-5.3837,-5.4297,-5.521,-5.5043,-5.5243,-5.5611,-5.534,-5.5478,-5.5722,-5.438,-5.341,-5.2977,-5.1294,-5.0184,-4.9847,-4.9956,-4.9467,-4.8409,-4.8273,-4.7948,-4.7378,-4.7269,-4.6944,-4.6374,-4.6005,-4.5472,-4.4676,-4.4414,-4.4098,-4.3887,-4.3807,-4.4016,-4.4487,-4.4068,-4.3572,-4.3101,-4.2866,-4.258,-4.2034,-4.1864,-4.0823,-3.8981,-3.9172,-3.8961,-3.8205,-3.8321,-3.8663,-3.8862,-3.8596,-3.8261,-3.7998,-3.7616,-3.7374,-3.7374,-3.7374,-3.7374,-3.7374,-3.7855,-3.8292,-3.8838,-3.9318,-3.9755,-4.0214,-3.9757,-3.9341,-3.921,-3.8702,-3.8325,-3.8253,-3.8336,-3.8523,-3.8812,-3.8937,-3.9226,-3.9558,-4.0355,-4.0605,-4.0485,-4.0572,-4.0862,-4.0758,-4.0882,-4.0882,-4.0882,-4.0903,-4.0884,-4.0914,-4.0833,-4.0472,-3.9028,-3.8503,-3.7946,-6.0408,-5.9856,-5.9618,-5.8707,-5.762,-5.765,-5.719,-5.6347,-5.5936,-5.5367,-5.4703,-5.4206,-5.3962,-5.3789,-5.3409,-5.3233,-5.3086,-5.2819,-5.2729,-5.279,-5.3498,-5.4052,-5.436,-5.5191,-5.5838,-5.6076,-5.5749,-5.5789,-5.6295,-5.6312,-5.6183,-5.5649,-5.4749,-5.3827,-5.2807,-5.146,-5.0599,-5.0263,-5.0123,-4.9766,-4.9304,-4.8952,-4.849,-4.792,-4.7541,-4.7079,-4.6537,-4.635,-4.6032,-4.5447,-4.5209,-4.4917,-4.473,-4.449,-4.4487,-4.4696,-4.4513,-4.4121,-4.3572,-4.352,-4.3284,-4.2709,-4.2327,-4.1439,-3.9898,-3.9555,-3.9125,-3.8436,-3.8459,-3.878,-3.898,-3.8716,-3.838,-3.8118,-3.7758,-3.7374,-3.7374,-3.7374,-3.7461,-3.7767,-3.8248,-3.8707,-3.9187,-3.9668,-4.0039,-4.0257,-3.9888,-3.9494,-3.921,-3.8814,-3.8437,-3.8325,-3.8191,-3.8253,-3.846,-3.8709,-3.8916,-3.9144,-3.9696,-3.9986,-3.9889,-4.0179,-4.0489,-4.0489,-4.0696,-4.0841,-4.0882,-4.0903,-4.0823,-4.0706,-4.0171,-3.9587,-3.8605,-3.8177,-3.7241,-6.0041,-5.9778,-5.8899,-5.8228,-5.7748,-5.7905,-5.7534,-5.6752,-5.6125,-5.5493,-5.483,-5.4324,-5.4017,-5.3876,-5.3584,-5.3409,-5.3175,-5.3093,-5.3065,-5.3129,-5.4206,-5.4822,-5.5068,-5.5961,-5.6577,-5.6664,-5.6457,-5.6455,-5.699,-5.7273,-5.675,-5.566,-5.5041,-5.3971,-5.2505,-5.146,-5.0795,-5.0487,-5.015,-5.001,-4.9928,-4.9603,-4.9087,-4.8517,-4.7893,-4.7323,-4.6754,-4.6564,-4.635,-4.6007,-4.5715,-4.5502,-4.518,-4.5014,-4.4983,-4.4957,-4.48,-4.4565,-4.4121,-4.4121,-4.3859,-4.3284,-4.2792,-4.1813,-4.0684,-4.005,-3.945,-3.8689,-3.8711,-3.8964,-3.9239,-3.8834,-3.8477,-3.838,-3.7878,-3.7495,-3.7374,-3.7374,-3.7571,-3.8051,-3.8488,-3.9078,-3.9646,-4.0039,-4.0257,-4.0279,-4.0018,-3.9625,-3.921,-3.8946,-3.8549,-3.8325,-3.8191,-3.8191,-3.8212,-3.8419,-3.8647,-3.8771,-3.9061,-3.9351,-3.9392,-3.9744,-4.0034,-4.0075,-4.0448,-4.0655,-4.0655,-4.0574,-4.0453,-4.0045,-3.9445,-3.8836,-3.8097,-3.7629,-3.7082,-6.0562,-5.9728,-5.8092,-5.7356,-5.7216,-5.6846,-5.6257,-5.5724,-5.5328,-5.483,-5.4292,-5.4134,-5.4103,-5.4103,-5.3876,-5.3584,-5.3471,-5.3765,-5.3742,-5.3622,-5.436,-5.5068,-5.5622,-5.5715,-5.6115,-5.6761,-5.6762,-5.69,-5.7109,-5.7693,-5.7404,-5.6249,-5.5654,-5.4685,-5.3015,-5.1599,-5.0822,-5.0487,-5.015,-5.001,-5.001,-4.9983,-4.9657,-4.9087,-4.8517,-4.792,-4.7351,-4.6781,-4.6404,-4.6034,-4.5795,-4.5555,-4.5259,-4.5407,-4.5584,-4.5506,-4.5062,-4.4722,-4.467,-4.4643,-4.4408,-4.3909,-4.3438,-4.2569,-4.0977,-4.0612,-4.0033,-3.8758,-3.9104,-3.9262,-3.9285,-3.893,-3.8716,-3.8358,-3.8118,-3.7758,-3.7374,-3.7374,-3.7614,-3.8051,-3.8575,-3.9231,-4.0083,-4.0257,-4.0279,-4.0279,-3.9888,-3.9625,-3.921,-3.8946,-3.857,-3.8304,-3.8191,-3.8191,-3.8191,-3.8274,-3.8274,-3.8357,-3.8647,-3.8874,-3.904,-3.9206,-3.9433,-3.9661,-4.0013,-4.022,-4.0183,-4.0024,-3.9875,-3.9416,-3.8894,-3.8191,-3.7649,-3.7095,-3.6588,-5.9994,-5.9392,-5.8838,-5.8085,-5.7152,-5.6861,-5.6559,-5.6098,-5.5391,-5.4988,-5.4703,-5.4292,-5.4103,-5.4103,-5.4017,-5.3758,-5.3409,-5.3334,-5.3158,-5.3191,-5.4206,-5.4853,-5.513,-5.593,-5.6484,-5.6761,-5.6684,-5.6889,-5.7406,-5.7993,-5.7464,-5.6045,-5.5634,-5.446,-5.2484,-5.1349,-5.0795,-5.0683,-5.0235,-5.001,-5.001,-5.001,-4.9901,-4.9684,-4.9114,-4.8517,-4.7948,-4.7703,-4.7487,-4.7379,-4.6946,-4.6754,-4.6535,-4.6278,-4.6003,-4.5663,-4.5428,-4.514,-4.48,-4.4748,-4.4643,-4.4379,-4.383,-4.3144,-4.2288,-4.1363,-4.0476,-4.0035,-3.9522,-3.9308,-3.919,-3.9049,-3.8693,-3.8358,-3.8118,-3.778,-3.7495,-3.7374,-3.7571,-3.8095,-3.8772,-3.9558,-4.0061,-4.0279,-4.0279,-4.0279,-4.0018,-3.9625,-3.921,-3.8946,-3.8549,-3.8304,-3.8191,-3.8191,-3.8191,-3.8191,-3.8191,-3.8212,-3.8357,-3.8419,-3.8543,-3.8833,-3.9061,-3.9164,-3.9495,-3.9791,-3.9956,-4.0085,-3.9625,-3.9249,-3.8705,-3.7722,-3.7249,-3.6496,-3.6062,-5.9111,-5.8486,-5.8183,-5.7488,-5.6647,-5.636,-5.6189,-5.5866,-5.5162,-5.4853,-5.4703,-5.4292,-5.4103,-5.4103,-5.4017,-5.3758,-5.3409,-5.3272,-5.3217,-5.3129,-5.4206,-5.473,-5.4914,-5.5899,-5.6423,-5.6515,-5.6623,-5.699,-5.7613,-5.8203,-5.7315,-5.545,-5.5409,-5.4237,-5.2093,-5.1348,-5.1017,-5.0795,-5.0375,-5.0123,-5.001,-5.001,-5.001,-4.9956,-4.9603,-4.9142,-4.8572,-4.8355,-4.8246,-4.8137,-4.7808,-4.7584,-4.7495,-4.6915,-4.6395,-4.6186,-4.582,-4.5454,-4.5062,-4.4826,-4.4748,-4.4722,-4.4177,-4.3738,-4.3381,-4.2037,-4.1196,-4.0737,-3.9942,-3.9377,-3.9675,-3.9414,-3.9061,-3.8724,-3.8363,-3.81,-3.7736,-3.7614,-3.7855,-3.8379,-3.9209,-3.9864,-4.0192,-4.0257,-4.0279,-4.0279,-4.0018,-3.9757,-3.921,-3.8946,-3.8681,-3.8304,-3.8191,-3.8191,-3.8191,-3.8191,-3.8191,-3.8212,-3.8212,-3.8191,-3.8233,-3.8502,-3.8667,-3.873,-3.8924,-3.9419,-3.9675,-3.982,-3.9665,-3.9288,-3.8253,-3.7081,-3.6569,-3.599,-3.5608,-5.8286,-5.7263,-5.5894,-5.5668,-5.5554,-5.5389,-5.5044,-5.4889,-5.4592,-5.4337,-5.4198,-5.4103,-5.4134,-5.4166,-5.4088,-5.3765,-5.3689,-5.4099,-5.3985,-5.3622,-5.4299,-5.4668,-5.4791,-5.5468,-5.5869,-5.5961,-5.6776,-5.7425,-5.7758,-5.8157,-5.7288,-5.5477,-5.5371,-5.4374,-5.1815,-5.1652,-5.1266,-5.0906,-5.0599,-5.0263,-5.001,-5.001,-5.001,-5.001,-4.9956,-4.9684,-4.9142,-4.8626,-4.8409,-4.8245,-4.8053,-4.7798,-4.7748,-4.7118,-4.6761,-4.6996,-4.6264,-4.5741,-4.5558,-4.5114,-4.4931,-4.4853,-4.4692,-4.4494,-4.3857,-4.28,-4.1898,-4.142,-4.041,-3.9721,-4.041,-4.0295,-3.9779,-3.9196,-3.8985,-3.8742,-3.8297,-3.8095,-3.8292,-3.8772,-3.9515,-4.017,-4.0279,-4.0279,-4.0279,-4.0279,-4.0279,-4.0018,-3.9341,-3.9231,-3.8814,-3.8437,-3.8191,-3.8191,-3.8191,-3.8191,-3.8191,-3.8191,-3.8191,-3.8191,-3.8191,-3.8357,-3.8378,-3.846,-3.8957,-3.9316,-3.9434,-3.9593,-3.9592,-3.9168,-3.784,-3.7007,-3.6408,-3.604,-3.5713,-5.8119,-5.7676,-5.6645,-5.5863,-5.536,-5.5196,-5.4948,-5.4813,-5.4497,-5.4242,-5.4103,-5.4103,-5.4356,-5.4735,-5.4743,-5.4731,-5.4844,-5.5031,-5.4386,-5.3374,-5.3745,-5.433,-5.4791,-5.5376,-5.5961,-5.6423,-5.6757,-5.7113,-5.7486,-5.7849,-5.7363,-5.6285,-5.5596,-5.4627,-5.3034,-5.204,-5.1266,-5.0906,-5.0599,-5.0402,-5.001,-5.001,-5.001,-5.001,-5.001,-4.9901,-4.9739,-4.9549,-4.9467,-4.944,-4.9243,-4.8873,-4.8409,-4.7985,-4.7545,-4.7336,-4.7022,-4.6395,-4.5767,-4.5794,-4.5689,-4.5506,-4.5663,-4.5787,-4.5477,-4.4231,-4.3094,-4.2414,-4.1329,-4.0647,-4.0341,-4.0502,-4.0167,-3.9484,-3.9196,-3.8975,-3.8486,-3.824,-3.8335,-3.875,-3.91,-3.9537,-4.0083,-4.0257,-4.0236,-4.0257,-4.0257,-4.0149,-3.9625,-3.9363,-3.9078,-3.8681,-3.8437,-3.8191,-3.8191,-3.8191,-3.8191,-3.8191,-3.8191,-3.8191,-3.8191,-3.8191,-3.8191,-3.8357,-3.8833,-3.9117,-3.9252,-3.9385,-3.9544,-3.9362,-3.8576,-3.7666,-3.6867,-3.6243,-3.5678,-5.7842,-5.7609,-5.658,-5.583,-5.5442,-5.5246,-5.5031,-5.4813,-5.4613,-5.4359,-5.4189,-5.4103,-5.4324,-5.4703,-5.4735,-5.4725,-5.4688,-5.4719,-5.3982,-5.3065,-5.3714,-5.433,-5.4791,-5.5407,-5.6084,-5.6638,-5.6761,-5.6782,-5.6686,-5.7021,-5.6615,-5.5466,-5.4923,-5.415,-5.3034,-5.2012,-5.1376,-5.0906,-5.0711,-5.046,-5.0123,-5.001,-5.001,-5.001,-5.001,-5.001,-5.001,-5.001,-5.001,-4.9897,-4.9697,-4.924,-4.8895,-4.8405,-4.8015,-4.7702,-4.7388,-4.6891,-4.6107,-4.6029,-4.6029,-4.5767,-4.595,-4.6264,-4.6169,-4.5067,-4.382,-4.3198,-4.1803,-4.08,-4.0709,-4.0563,-4.0418,-3.9901,-3.9634,-3.9031,-3.8552,-3.824,-3.8204,-3.851,-3.875,-3.9143,-3.973,-3.9952,-4.0146,-4.0212,-4.0322,-4.0018,-3.9625,-3.9341,-3.8946,-3.8681,-3.8304,-3.8191,-3.8191,-3.8191,-3.8191,-3.8191,-3.8191,-3.8191,-3.8191,-3.8191,-3.8191,-3.8336,-3.8709,-3.8753,-3.8989,-3.9734,-4.0017,-3.9551,-3.8728,-3.7815,-3.6633,-3.5634,-3.5003,-5.7465,-5.6867,-5.5894,-5.5442,-5.5409,-5.5409,-5.5196,-5.4813,-5.4813,-5.4528,-5.4189,-5.4103,-5.4166,-5.4198,-5.4387,-5.4222,-5.3684,-5.3845,-5.3641,-5.3435,-5.4052,-5.473,-5.4945,-5.5561,-5.6207,-5.6669,-5.6761,-5.6433,-5.6053,-5.6161,-5.519,-5.3965,-5.3913,-5.312,-5.2396,-5.1843,-5.1458,-5.1017,-5.0906,-5.0572,-5.001,-5.001,-5.001,-5.001,-5.001,-5.001,-5.001,-5.001,-5.001,-4.9897,-4.9442,-4.9125,-4.901,-4.8548,-4.8146,-4.8094,-4.7649,-4.7179,-4.6578,-4.6342,-4.5976,-4.582,-4.5924,-4.5787,-4.6056,-4.536,-4.4259,-4.3228,-4.1442,-4.0578,-4.1044,-4.0806,-4.0286,-4.0118,-3.9713,-3.9064,-3.8262,-3.8051,-3.816,-3.8226,-3.851,-3.8903,-3.9374,-3.9577,-3.9774,-4.0144,-4.0256,-3.9844,-3.9494,-3.921,-3.8835,-3.857,-3.8304,-3.8191,-3.8191,-3.8191,-3.8191,-3.8191,-3.8191,-3.8191,-3.8191,-3.8191,-3.8191,-3.8336,-3.8512,-3.8534,-3.8768,-3.9385,-3.9347,-3.8612,-3.7856,-3.7049,-3.6308,-3.541,-3.4967,-5.7,-5.6911,-5.5814,-5.5409,-5.5409,-5.5409,-5.5196,-5.4813,-5.4813,-5.4528,-5.4189,-5.4103,-5.4356,-5.483,-5.483,-5.4882,-5.4746,-5.4812,-5.4665,-5.4237,-5.4483,-5.5037,-5.5499,-5.6115,-5.6515,-5.6669,-5.6638,-5.6813,-5.6777,-5.6101,-5.5753,-5.5719,-5.4,-5.3452,-5.3063,-5.2202,-5.1458,-5.1017,-5.0906,-5.0572,-5.0123,-5.001,-5.001,-5.001,-5.001,-5.001,-5.001,-5.001,-4.9897,-4.967,-4.9354,-4.901,-4.8779,-4.8431,-4.8172,-4.8146,-4.8041,-4.7702,-4.7283,-4.7283,-4.7074,-4.6395,-4.6499,-4.6394,-4.554,-4.6527,-4.5221,-4.2923,-4.056,-3.9959,-4.0646,-4.05,-4.0005,-3.9199,-3.9031,-3.8608,-3.7911,-3.7876,-3.8095,-3.8117,-3.8226,-3.8575,-3.9182,-3.9533,-3.9752,-4.0081,-4.004,-3.9757,-3.9494,-3.9078,-3.8681,-3.857,-3.8437,-3.8304,-3.8191,-3.8191,-3.8191,-3.8191,-3.8191,-3.8191,-3.8191,-3.8191,-3.8191,-3.8233,-3.852,-3.8697,-3.8425,-3.8574,-3.8116,-3.7727,-3.7343,-3.6805,-3.6282,-3.544,-3.5121,-5.6911,-5.6757,-5.5894,-5.5409,-5.5278,-5.5196,-5.4948,-5.4697,-5.4613,-5.4444,-5.4189,-5.4103,-5.4324,-5.4672,-5.4703,-5.475,-5.4773,-5.4715,-5.4383,-5.4113,-5.4145,-5.4637,-5.5222,-5.5776,-5.593,-5.5899,-5.5612,-5.5463,-5.532,-5.4862,-5.4596,-5.4206,-5.3446,-5.284,-5.2675,-5.223,-5.1458,-5.1017,-5.0906,-5.0572,-5.001,-5.001,-5.001,-5.001,-5.001,-5.001,-5.001,-5.001,-4.9897,-4.9556,-4.924,-4.901,-4.8663,-4.8431,-4.8172,-4.8172,-4.8172,-4.7937,-4.7519,-4.7649,-4.7388,-4.6734,-4.6839,-4.628,-4.5464,-4.6025,-4.4668,-4.2064,-4.0203,-3.9855,-4.019,-4.0114,-3.9254,-3.8387,-3.8055,-3.7923,-3.7396,-3.7614,-3.7767,-3.7789,-3.7833,-3.7964,-3.8641,-3.8991,-3.9511,-3.9689,-3.978,-3.9649,-3.9494,-3.8946,-3.8681,-3.857,-3.8437,-3.8325,-3.8191,-3.8191,-3.8191,-3.8191,-3.8212,-3.8212,-3.8253,-3.8253,-3.8161,-3.8192,-3.8528,-3.8465,-3.8058,-3.774,-3.7682,-3.7278,-3.6989,-3.6399,-3.5539,-3.5129,-3.4845,-5.6954,-5.6603,-5.5894,-5.5409,-5.5031,-5.4896,-5.4697,-5.4412,-5.4412,-5.4327,-5.4103,-5.4103,-5.4134,-5.4103,-5.4143,-5.3994,-5.3765,-5.3715,-5.3357,-5.3307,-5.3466,-5.3899,-5.4391,-5.4822,-5.4945,-5.4882,-5.4036,-5.3909,-5.3852,-5.2939,-5.2292,-5.2408,-5.2033,-5.1759,-5.1871,-5.1706,-5.1348,-5.0906,-5.0795,-5.0572,-5.0123,-5.001,-5.001,-5.001,-5.001,-5.001,-5.001,-5.001,-4.9897,-4.9556,-4.9213,-4.901,-4.8663,-4.8315,-4.8198,-4.8172,-4.8172,-4.7963,-4.7571,-4.7519,-4.7205,-4.6656,-4.636,-4.5778,-4.4738,-4.407,-4.2964,-4.1235,-4.0112,-3.9583,-3.9779,-3.9417,-3.8774,-3.7956,-3.7539,-3.7396,-3.7374,-3.7374,-3.7374,-3.7396,-3.7418,-3.7461,-3.7745,-3.827,-3.9034,-3.9905,-3.978,-3.954,-3.9363,-3.8946,-3.857,-3.8304,-3.8325,-3.8191,-3.8191,-3.8191,-3.8191,-3.8191,-3.8233,-3.8253,-3.8264,-3.8171,-3.8077,-3.8146,-3.7903,-3.7509,-3.7158,-3.6922,-3.6717,-3.6219,-3.5521,-3.4766,-3.4243,-3.4126,-3.3924,-5.6414,-5.61,-5.536,-5.498,-5.4896,-5.4813,-5.4613,-5.4412,-5.4412,-5.4242,-5.4189,-5.4103,-5.4103,-5.4103,-5.3931,-5.3758,-5.3496,-5.3321,-5.3055,-5.2819,-5.2821,-5.2975,-5.3437,-5.4145,-5.4668,-5.4636,-5.4844,-5.454,-5.3873,-5.2938,-5.2625,-5.2238,-5.1281,-5.0984,-5.1347,-5.1071,-5.0906,-5.0599,-5.0572,-5.0266,-5.0014,-4.9901,-4.9901,-4.9901,-4.9928,-4.9956,-4.9983,-5.001,-4.9897,-4.9556,-4.9213,-4.8815,-4.8405,-4.8315,-4.8172,-4.8172,-4.8172,-4.812,-4.7989,-4.7858,-4.7545,-4.6517,-4.5716,-4.4675,-4.2772,-4.2184,-4.1208,-4.0082,-3.9492,-3.9323,-3.9181,-3.9115,-3.864,-3.7989,-3.7495,-3.7374,-3.7374,-3.7374,-3.7374,-3.744,-3.768,-3.8073,-3.8423,-3.8838,-3.9406,-3.9864,-3.9823,-3.9583,-3.921,-3.8946,-3.857,-3.8325,-3.8191,-3.8191,-3.8191,-3.8191,-3.8191,-3.8191,-3.8212,-3.812,-3.8109,-3.8044,-3.797,-3.7545,-3.6916,-3.663,-3.6352,-3.5406,-3.503,-3.4475,-3.4092,-3.3914,-3.37,-3.3432,-3.3247,-5.6179,-5.562,-5.5164,-5.4781,-5.4613,-5.4528,-5.4359,-5.4242,-5.4242,-5.4157,-5.4103,-5.4103,-5.4103,-5.4103,-5.3876,-5.3702,-5.3496,-5.3233,-5.2966,-5.2729,-5.2729,-5.2729,-5.2793,-5.353,-5.396,-5.3745,-5.3088,-5.2845,-5.2526,-5.1802,-5.0976,-5.118,-5.0365,-5.0043,-5.024,-5.0214,-4.9913,-4.9694,-4.9666,-4.9528,-4.9196,-4.9196,-4.9196,-4.9196,-4.9169,-4.9169,-4.9142,-4.9169,-4.9108,-4.8959,-4.8813,-4.863,-4.8495,-4.8315,-4.8172,-4.8172,-4.8172,-4.8015,-4.7885,-4.7963,-4.7444,-4.5985,-4.5285,-4.3861,-4.2323,-4.1273,-4.055,-3.9684,-3.9308,-3.919,-3.8812,-3.8777,-3.8439,-3.7967,-3.7616,-3.7374,-3.7374,-3.7374,-3.7374,-3.7418,-3.7571,-3.7942,-3.8423,-3.9012,-3.9406,-3.9668,-3.9866,-3.9625,-3.921,-3.8946,-3.857,-3.8304,-3.8191,-3.8191,-3.8191,-3.8191,-3.8191,-3.8191,-3.8212,-3.7965,-3.7893,-3.7733,-3.7585,-3.7174,-3.6475,-3.6047,-3.5563,-3.4559,-3.3836,-3.3939,-3.3726,-3.3472,-3.3211,-3.3196,-3.2876,-5.6053,-5.5328,-5.5081,-5.4749,-5.4327,-5.4189,-5.4103,-5.4103,-5.4103,-5.4103,-5.4103,-5.4103,-5.4103,-5.4017,-5.3758,-5.3702,-5.3528,-5.3264,-5.2908,-5.2729,-5.2729,-5.2729,-5.2793,-5.2917,-5.2887,-5.2398,-5.1832,-5.1491,-5.1052,-4.9953,-4.9794,-4.9476,-4.9292,-4.9324,-4.9111,-4.9003,-4.8925,-4.8763,-4.8791,-4.8654,-4.8382,-4.8382,-4.8382,-4.8409,-4.8409,-4.8409,-4.8326,-4.8326,-4.8241,-4.8252,-4.8139,-4.8205,-4.8373,-4.8405,-4.8172,-4.8172,-4.8172,-4.8015,-4.7716,-4.7652,-4.7095,-4.5182,-4.4709,-4.3639,-4.1938,-4.0972,-4.0223,-3.9684,-3.919,-3.9049,-3.8812,-3.8522,-3.8305,-3.7878,-3.7616,-3.7374,-3.7374,-3.7374,-3.7374,-3.7396,-3.7614,-3.7964,-3.8292,-3.8772,-3.9122,-3.9493,-3.9563,-3.9604,-3.9188,-3.8946,-3.8549,-3.8304,-3.8191,-3.8191,-3.8191,-3.8191,-3.8191,-3.8191,-3.8212,-3.7872,-3.7469,-3.6524,-3.6228,-3.6596,-3.6208,-3.5538,-3.4733,-3.3768,-3.3265,-3.3621,-3.343,-3.31,-3.3042,-3.2978,-3.2674,-5.5409,-5.5328,-5.4581,-5.4189,-5.4157,-5.4071,-5.404,-5.4103,-5.404,-5.4103,-5.4103,-5.4103,-5.4049,-5.3876,-5.3552,-5.3321,-5.2966,-5.2819,-5.2819,-5.2729,-5.2729,-5.2729,-5.267,-5.2551,-5.2122,-5.1964,-5.178,-5.1739,-5.0895,-5.0227,-4.9211,-4.8834,-4.8548,-4.8531,-4.8541,-4.8545,-4.8273,-4.811,-4.8137,-4.8056,-4.8056,-4.8056,-4.8056,-4.8056,-4.8029,-4.7947,-4.8029,-4.8001,-4.8077,-4.8449,-4.7628,-4.7536,-4.7845,-4.7974,-4.8015,-4.8041,-4.8015,-4.7858,-4.7806,-4.7262,-4.6616,-4.5385,-4.4011,-4.2583,-4.1256,-4.0317,-3.9684,-3.9426,-3.9049,-3.8812,-3.8812,-3.8358,-3.7998,-3.7878,-3.7616,-3.7374,-3.7374,-3.7374,-3.7374,-3.7396,-3.768,-3.7964,-3.827,-3.8575,-3.8969,-3.9169,-3.926,-3.9216,-3.8929,-3.8708,-3.8507,-3.8416,-3.8191,-3.8191,-3.8191,-3.8191,-3.8191,-3.8212,-3.8099,-3.757,-3.6757,-3.5211,-3.4706,-3.5463,-3.5294,-3.4532,-3.3571,-3.2878,-3.2628,-3.2624,-3.2664,-3.2748,-3.2723,-3.2526,-3.2353,-5.3743,-5.3579,-5.3164,-5.3028,-5.3028,-5.3028,-5.325,-5.3566,-5.3597,-5.3787,-5.4008,-5.4103,-5.4017,-5.3789,-5.3496,-5.3144,-5.2788,-5.2729,-5.2729,-5.2729,-5.2729,-5.2729,-5.2762,-5.2671,-5.242,-5.2067,-5.2053,-5.1432,-5.0191,-4.9338,-4.8686,-4.8247,-4.7834,-4.7791,-4.7667,-4.7482,-4.7351,-4.7378,-4.7378,-4.7378,-4.7351,-4.7351,-4.7351,-4.7351,-4.7351,-4.7216,-4.7082,-4.6975,-4.6946,-4.7127,-4.6716,-4.6705,-4.7013,-4.7188,-4.7283,-4.731,-4.7336,-4.7336,-4.7388,-4.6888,-4.636,-4.4653,-4.3399,-4.2232,-4.0905,-3.9847,-3.9308,-3.9049,-3.893,-3.8693,-3.8596,-3.8118,-3.7998,-3.7878,-3.7616,-3.7374,-3.7374,-3.7374,-3.7374,-3.7374,-3.7505,-3.7767,-3.8117,-3.8444,-3.8712,-3.889,-3.9022,-3.8852,-3.8696,-3.8477,-3.8235,-3.8221,-3.8129,-3.8191,-3.8191,-3.8191,-3.8191,-3.8191,-3.7965,-3.755,-3.6055,-3.4415,-3.426,-3.477,-3.4207,-3.3446,-3.272,-3.2049,-3.1924,-3.1867,-3.204,-3.2301,-3.2126,-3.2093,-3.1951,-5.2426,-5.2182,-5.2017,-5.2017,-5.2017,-5.2017,-5.2365,-5.2807,-5.287,-5.3155,-5.3544,-5.3575,-5.3436,-5.3396,-5.3258,-5.3055,-5.2729,-5.2729,-5.2729,-5.2729,-5.2729,-5.2729,-5.2673,-5.2698,-5.2402,-5.1187,-5.0784,-5.0414,-4.9638,-4.8651,-4.7931,-4.768,-4.7343,-4.7108,-4.6878,-4.6778,-4.6482,-4.6482,-4.6482,-4.6482,-4.6482,-4.6482,-4.6482,-4.6377,-4.6377,-4.6299,-4.6062,-4.5955,-4.6035,-4.6055,-4.5941,-4.591,-4.6159,-4.6186,-4.6133,-4.6159,-4.6316,-4.6447,-4.6264,-4.6154,-4.5229,-4.3462,-4.311,-4.1876,-4.0667,-3.9587,-3.919,-3.893,-3.8693,-3.8574,-3.8358,-3.7998,-3.7878,-3.7758,-3.7495,-3.7374,-3.7374,-3.7374,-3.7374,-3.7374,-3.7374,-3.7527,-3.7855,-3.7913,-3.826,-3.8204,-3.8315,-3.8146,-3.7971,-3.7842,-3.7707,-3.7992,-3.8067,-3.815,-3.8191,-3.8191,-3.8191,-3.8191,-3.7924,-3.7583,-3.5665,-3.3632,-3.3725,-3.3671,-3.318,-3.2402,-3.1804,-3.1435,-3.1361,-3.1405,-3.1666,-3.1693,-3.1663,-3.1694,-3.1734,-5.2232,-5.2556,-5.215,-5.2017,-5.1954,-5.1922,-5.2017,-5.2112,-5.2144,-5.2092,-5.2178,-5.2031,-5.2175,-5.2362,-5.2719,-5.2757,-5.2729,-5.2729,-5.2729,-5.2729,-5.2608,-5.2337,-5.1787,-5.0976,-5.0854,-5.0184,-4.9252,-4.9092,-4.9036,-4.8274,-4.7726,-4.7418,-4.7108,-4.6796,-4.6692,-4.656,-4.6482,-4.6482,-4.6482,-4.6482,-4.6482,-4.6482,-4.635,-4.6139,-4.6007,-4.5901,-4.5688,-4.5502,-4.5552,-4.5813,-4.5197,-4.5166,-4.5532,-4.5192,-4.4983,-4.5245,-4.5656,-4.6108,-4.5488,-4.4965,-4.4053,-4.2676,-4.1614,-4.0478,-3.9962,-3.9541,-3.919,-3.8812,-3.8596,-3.8358,-3.7998,-3.7637,-3.7495,-3.7495,-3.7495,-3.7374,-3.7374,-3.7374,-3.7374,-3.7374,-3.7374,-3.7374,-3.7527,-3.7609,-3.7644,-3.7567,-3.7486,-3.7445,-3.7401,-3.7207,-3.7182,-3.7446,-3.7839,-3.7964,-3.8088,-3.8088,-3.7904,-3.8037,-3.7945,-3.7388,-3.5103,-3.3139,-3.2329,-3.2053,-3.1752,-3.1782,-3.1765,-3.1412,-3.1044,-3.0893,-3.1065,-3.1071,-3.1039,-3.1264,-3.1437,-5.0897,-5.1057,-5.0897,-5.0816,-5.0816,-5.0816,-5.0988,-5.1222,-5.1285,-5.134,-5.1455,-5.1518,-5.1724,-5.194,-5.2109,-5.2359,-5.2637,-5.2698,-5.2729,-5.2608,-5.2518,-5.2124,-5.1693,-5.1214,-5.0632,-4.9363,-4.9095,-4.8833,-4.8703,-4.8201,-4.7596,-4.7521,-4.7108,-4.6901,-4.6692,-4.6587,-4.6482,-4.6482,-4.6482,-4.6482,-4.6482,-4.6482,-4.635,-4.6007,-4.6007,-4.5795,-4.5395,-4.5287,-4.5151,-4.528,-4.48,-4.4826,-4.5009,-4.4905,-4.4748,-4.4774,-4.514,-4.5363,-4.5339,-4.4459,-4.3391,-4.2482,-4.1424,-4.0669,-3.9823,-3.9426,-3.9072,-3.8596,-3.85,-3.8141,-3.7758,-3.7495,-3.7374,-3.7374,-3.7374,-3.7374,-3.7374,-3.7374,-3.7374,-3.7374,-3.7374,-3.7253,-3.7154,-3.7083,-3.7031,-3.6972,-3.6851,-3.6603,-3.6686,-3.685,-3.6846,-3.7032,-3.7405,-3.7736,-3.786,-3.7943,-3.7441,-3.7502,-3.782,-3.6929,-3.4552,-3.2784,-3.2036,-3.1528,-3.1418,-3.1412,-3.1514,-3.1178,-3.0601,-3.0574,-3.0578,-3.0567,-3.0534,-3.0627,-3.0814,-4.9741,-4.9852,-4.9852,-4.99,-4.99,-4.99,-5.0168,-5.0448,-5.0398,-5.063,-5.0788,-5.0923,-5.1126,-5.145,-5.1616,-5.2021,-5.2421,-5.2637,-5.2608,-5.2518,-5.2215,-5.1757,-5.1195,-5.0951,-5.0242,-4.898,-4.8922,-4.8675,-4.807,-4.7494,-4.7391,-4.7521,-4.7005,-4.6796,-4.6796,-4.6587,-4.6482,-4.6482,-4.6482,-4.6482,-4.6482,-4.6482,-4.6245,-4.6034,-4.5822,-4.5582,-4.518,-4.5072,-4.4964,-4.4748,-4.4774,-4.4774,-4.48,-4.4774,-4.4505,-4.4396,-4.4442,-4.4351,-4.4249,-4.3677,-4.3109,-4.219,-4.1492,-4.0222,-3.9518,-3.919,-3.8953,-3.85,-3.8261,-3.7998,-3.7637,-3.7374,-3.7374,-3.7374,-3.7374,-3.7374,-3.7374,-3.7374,-3.7374,-3.7374,-3.7253,-3.7154,-3.6911,-3.6789,-3.6588,-3.6321,-3.6118,-3.5852,-3.606,-3.6349,-3.6515,-3.6639,-3.6991,-3.7363,-3.7501,-3.7513,-3.7031,-3.6789,-3.7104,-3.6289,-3.3882,-3.2524,-3.1739,-3.1405,-3.1118,-3.1044,-3.0985,-3.0634,-3.0316,-3.0095,-3.0049,-3.0082,-3.0162,-3.0255,-3.041,-4.9452,-4.9613,-4.9852,-4.99,-4.99,-4.99,-4.9963,-5.001,-4.9819,-4.9609,-4.9614,-4.9687,-4.9889,-5.0259,-5.1097,-5.1682,-5.1836,-5.2452,-5.2457,-5.2215,-5.1849,-5.1105,-5.0501,-4.9853,-4.9194,-4.8336,-4.8302,-4.8042,-4.7624,-4.7212,-4.7081,-4.6901,-4.6796,-4.6587,-4.6587,-4.6587,-4.6482,-4.6482,-4.6482,-4.6482,-4.6482,-4.6482,-4.6245,-4.5822,-4.5582,-4.5368,-4.483,-4.4722,-4.4748,-4.4748,-4.4748,-4.4748,-4.4748,-4.4505,-4.4287,-4.3848,-4.3492,-4.3235,-4.2775,-4.2322,-4.1335,-4.0177,-3.9613,-3.9659,-3.9331,-3.9049,-3.8716,-3.85,-3.8261,-3.7878,-3.7616,-3.7374,-3.7374,-3.7374,-3.7374,-3.7374,-3.7374,-3.7374,-3.7374,-3.7374,-3.7253,-3.7032,-3.6789,-3.6545,-3.63,-3.6178,-3.5788,-3.5645,-3.5728,-3.5935,-3.6059,-3.6246,-3.6597,-3.6841,-3.6992,-3.68,-3.6716,-3.5916,-3.5665,-3.4883,-3.3327,-3.2402,-3.1651,-3.1299,-3.1135,-3.0726,-3.0299,-3.0157,-2.9871,-2.9585,-2.9521,-2.9665,-2.9856,-2.9965,-3.0283,-4.9077,-4.9613,-4.9661,-4.9773,-4.99,-4.99,-4.9852,-4.9693,-4.9533,-4.921,-4.8883,-4.8995,-4.9281,-4.9835,-5.0574,-5.1344,-5.1744,-5.2421,-5.2215,-5.1941,-5.1386,-5.0603,-4.9834,-4.9178,-4.871,-4.8004,-4.7699,-4.7494,-4.7212,-4.7005,-4.6769,-4.6665,-4.6587,-4.6587,-4.6482,-4.6482,-4.6482,-4.6482,-4.6482,-4.6482,-4.6482,-4.6482,-4.6245,-4.5715,-4.5582,-4.5261,-4.483,-4.4748,-4.4748,-4.4748,-4.4748,-4.4748,-4.4613,-4.4287,-4.3738,-4.327,-4.2936,-4.215,-4.1468,-4.1124,-4.0548,-3.9755,-3.9308,-3.9308,-3.9308,-3.9167,-3.8834,-3.8477,-3.8261,-3.7878,-3.7495,-3.7374,-3.7374,-3.7374,-3.7374,-3.7374,-3.7374,-3.7374,-3.7374,-3.7374,-3.7253,-3.7154,-3.6789,-3.6423,-3.6178,-3.5932,-3.5665,-3.5438,-3.5521,-3.5562,-3.5728,-3.5727,-3.6036,-3.6152,-3.6302,-3.6365,-3.625,-3.5317,-3.4209,-3.3459,-3.2542,-3.2228,-3.1508,-3.1277,-3.0993,-3.0567,-3.0157,-2.9855,-2.9585,-2.9441,-2.9314,-2.9345,-2.9568,-2.9806,-3.006,-4.8587,-4.934,-4.9452,-4.9613,-4.9852,-4.9821,-4.9773,-4.9613,-4.9291,-4.8965,-4.8604,-4.8635,-4.885,-4.9466,-5.0082,-5.0574,-5.1097,-5.1563,-5.1576,-5.1242,-5.0653,-5.0044,-4.9288,-4.8681,-4.8207,-4.7699,-4.7494,-4.7184,-4.7005,-4.6901,-4.6665,-4.656,-4.6482,-4.6482,-4.6482,-4.6482,-4.6482,-4.6482,-4.6482,-4.6482,-4.6482,-4.635,-4.6139,-4.5609,-4.5502,-4.518,-4.4856,-4.4748,-4.4748,-4.4748,-4.4748,-4.4748,-4.4396,-4.3932,-4.3381,-4.2824,-4.2125,-4.1215,-4.0548,-4.0223,-3.9989,-3.9426,-3.9308,-3.9308,-3.9308,-3.919,-3.8738,-3.85,-3.8238,-3.7878,-3.7374,-3.7374,-3.7374,-3.7374,-3.7374,-3.7374,-3.7374,-3.7374,-3.7374,-3.7374,-3.7132,-3.6789,-3.6524,-3.6178,-3.5932,-3.5665,-3.5541,-3.5418,-3.5438,-3.548,-3.548,-3.5355,-3.5353,-3.5489,-3.5618,-3.504,-3.4467,-3.3876,-3.2939,-3.2606,-3.2001,-3.1563,-3.1401,-3.1135,-3.0852,-3.0425,-3.014,-2.9712,-2.9441,-2.9298,-2.9298,-2.9314,-2.9361,-2.9568,-2.9727,-4.8152,-4.8965,-4.8996,-4.9372,-4.9852,-4.9693,-4.9613,-4.9533,-4.921,-4.8883,-4.8604,-4.8604,-4.8635,-4.8881,-4.9558,-4.9843,-5.0058,-5.058,-5.0543,-5.0152,-4.9562,-4.9155,-4.8665,-4.801,-4.7707,-4.7568,-4.7288,-4.6977,-4.6901,-4.6692,-4.656,-4.6455,-4.6482,-4.6482,-4.6482,-4.6482,-4.6482,-4.6482,-4.6482,-4.6482,-4.635,-4.6139,-4.5795,-4.5609,-4.5395,-4.5072,-4.4856,-4.4748,-4.4748,-4.4748,-4.4748,-4.4613,-4.4396,-4.3636,-4.2836,-4.1914,-4.1118,-4.0245,-3.9498,-3.9403,-3.9285,-3.9308,-3.9308,-3.9308,-3.919,-3.8834,-3.85,-3.8238,-3.7998,-3.7637,-3.7374,-3.733,-3.7309,-3.7352,-3.7352,-3.733,-3.7309,-3.7374,-3.7374,-3.7253,-3.6789,-3.6423,-3.6156,-3.5911,-3.5665,-3.5418,-3.5418,-3.5418,-3.5418,-3.517,-3.5046,-3.4818,-3.4544,-3.4318,-3.4121,-3.3325,-3.273,-3.2168,-3.1815,-3.1771,-3.1566,-3.1285,-3.1124,-3.0943,-3.071,-3.0283,-2.9855,-2.9568,-2.9441,-2.9298,-2.9298,-2.9298,-2.9314,-2.9345,-2.9504,-4.7534,-4.8376,-4.881,-4.921,-4.9421,-4.9452,-4.9421,-4.9372,-4.9159,-4.88,-4.8604,-4.8604,-4.8604,-4.8736,-4.9082,-4.945,-4.9488,-4.9546,-4.9494,-4.8761,-4.8325,-4.7683,-4.7348,-4.7247,-4.6985,-4.692,-4.6806,-4.6687,-4.656,-4.6451,-4.6428,-4.6482,-4.6455,-4.6482,-4.6482,-4.6482,-4.6455,-4.6245,-4.6139,-4.6139,-4.5928,-4.5822,-4.5609,-4.5395,-4.5287,-4.5072,-4.4748,-4.4748,-4.4748,-4.4722,-4.4613,-4.4318,-4.3804,-4.2796,-4.1607,-4.0612,-3.9608,-3.8942,-3.878,-3.8915,-3.9049,-3.9144,-3.919,-3.9167,-3.893,-3.8812,-3.8477,-3.8118,-3.7878,-3.7616,-3.7495,-3.7046,-3.7003,-3.7221,-3.7243,-3.7199,-3.7199,-3.733,-3.7374,-3.7154,-3.6789,-3.63,-3.6055,-3.5788,-3.5541,-3.5418,-3.5418,-3.5294,-3.5294,-3.4673,-3.4298,-3.3902,-3.3603,-3.3181,-3.2819,-3.219,-3.1833,-3.1532,-3.1431,-3.1388,-3.1167,-3.0784,-3.0724,-3.0576,-3.0217,-2.9997,-2.9712,-2.9568,-2.9441,-2.9298,-2.9298,-2.9298,-2.9298,-2.9298,-2.9345,-4.6744,-4.7552,-4.8016,-4.8283,-4.8506,-4.891,-4.9128,-4.9047,-4.8883,-4.8718,-4.8604,-4.8604,-4.8604,-4.8675,-4.8783,-4.8773,-4.8748,-4.8618,-4.8235,-4.7503,-4.7218,-4.6881,-4.6615,-4.625,-4.6245,-4.6109,-4.5997,-4.601,-4.5723,-4.5831,-4.594,-4.6102,-4.6374,-4.6455,-4.6482,-4.635,-4.6245,-4.6007,-4.5901,-4.5822,-4.5715,-4.5502,-4.5395,-4.518,-4.5072,-4.4964,-4.4748,-4.4748,-4.4722,-4.4561,-4.4214,-4.3785,-4.284,-4.1546,-4.0449,-3.9498,-3.8637,-3.8113,-3.809,-3.8273,-3.8271,-3.8316,-3.8703,-3.8812,-3.8693,-3.8455,-3.8238,-3.7998,-3.7878,-3.7506,-3.7134,-3.6784,-3.6784,-3.7025,-3.7003,-3.6959,-3.6958,-3.7089,-3.7032,-3.6911,-3.6545,-3.6178,-3.5932,-3.5665,-3.5418,-3.5418,-3.5418,-3.517,-3.4922,-3.4298,-3.3524,-3.3146,-3.2638,-3.215,-3.1727,-3.1244,-3.0918,-3.0786,-3.0728,-3.0785,-3.0566,-3.0186,-3.0053,-3.0069,-3.0026,-2.9822,-2.9712,-2.9441,-2.9298,-2.9298,-2.9298,-2.9298,-2.9298,-2.9298,-2.9298,-4.5988,-4.6511,-4.6603,-4.6665,-4.6929,-4.8202,-4.8728,-4.8543,-4.8604,-4.8604,-4.8604,-4.8604,-4.8604,-4.8521,-4.8416,-4.811,-4.7598,-4.7399,-4.6843,-4.6437,-4.6117,-4.5987,-4.5817,-4.5579,-4.5465,-4.5293,-4.5157,-4.52,-4.48,-4.518,-4.5424,-4.5695,-4.6238,-4.6296,-4.635,-4.6139,-4.5928,-4.5795,-4.5688,-4.5502,-4.5368,-4.5261,-4.518,-4.5072,-4.4964,-4.4778,-4.4617,-4.4565,-4.4539,-4.4167,-4.3342,-4.2837,-4.1823,-4.0355,-3.9609,-3.8824,-3.8106,-3.7724,-3.7429,-3.7428,-3.7289,-3.7354,-3.7753,-3.8134,-3.8313,-3.8149,-3.7998,-3.7878,-3.7616,-3.7188,-3.6806,-3.6697,-3.6588,-3.6653,-3.6631,-3.6709,-3.6695,-3.6724,-3.6667,-3.6423,-3.6178,-3.5788,-3.5665,-3.5418,-3.517,-3.4922,-3.4673,-3.4027,-3.3902,-3.3776,-3.3019,-3.2128,-3.1616,-3.0972,-3.0526,-3.0336,-3.0259,-3.0091,-2.9778,-2.9681,-2.9496,-2.9456,-2.9428,-2.9444,-2.9628,-2.9631,-2.9552,-2.9441,-2.9298,-2.9298,-2.9298,-2.9298,-2.9298,-2.9298,-2.9298,-4.5711,-4.5926,-4.6388,-4.6603,-4.6665,-4.7114,-4.7515,-4.7896,-4.8389,-4.8604,-4.8604,-4.8604,-4.845,-4.8521,-4.7849,-4.7448,-4.6929,-4.6255,-4.5652,-4.5274,-4.5044,-4.4629,-4.4566,-4.4539,-4.4508,-4.4601,-4.4593,-4.4556,-4.4773,-4.4963,-4.5234,-4.5668,-4.5786,-4.5951,-4.5926,-4.5688,-4.5635,-4.5529,-4.5289,-4.5235,-4.4993,-4.4859,-4.4752,-4.4699,-4.4673,-4.4434,-4.4199,-4.4014,-4.3883,-4.3334,-4.2516,-4.1853,-4.0938,-3.9491,-3.8366,-3.7223,-3.7077,-3.713,-3.6861,-3.6906,-3.6812,-3.6538,-3.6706,-3.6993,-3.7303,-3.7688,-3.7626,-3.7528,-3.7298,-3.6894,-3.6566,-3.6391,-3.6143,-3.5938,-3.5982,-3.6102,-3.6209,-3.6453,-3.6274,-3.6178,-3.5788,-3.5665,-3.5418,-3.517,-3.4922,-3.4548,-3.4047,-3.3272,-3.2765,-3.2765,-3.2256,-3.1359,-3.0843,-3.0213,-2.9822,-2.9613,-2.9464,-2.9367,-2.9108,-2.8977,-2.8942,-2.8903,-2.8688,-2.8841,-2.9071,-2.936,-2.9425,-2.9282,-2.9298,-2.9298,-2.9298,-2.9298,-2.9298,-2.9298,-2.9298,-4.5187,-4.5249,-4.5618,-4.5803,-4.5865,-4.608,-4.6449,-4.688,-4.7527,-4.7804,-4.7804,-4.7773,-4.764,-4.728,-4.6876,-4.6542,-4.5933,-4.5421,-4.4862,-4.4425,-4.3965,-4.3859,-4.3807,-4.3684,-4.3876,-4.3901,-4.3939,-4.385,-4.4203,-4.4455,-4.4726,-4.4651,-4.5039,-4.5177,-4.4941,-4.4678,-4.4626,-4.4705,-4.4811,-4.4728,-4.4594,-4.4382,-4.4278,-4.404,-4.4014,-4.3859,-4.3492,-4.3334,-4.2889,-4.2211,-4.1392,-4.0202,-3.9346,-3.8309,-3.7434,-3.6501,-3.642,-3.6382,-3.6117,-3.6072,-3.5912,-3.5795,-3.5676,-3.5917,-3.634,-3.6626,-3.6859,-3.7079,-3.6828,-3.6653,-3.6326,-3.5903,-3.5613,-3.5323,-3.5358,-3.5414,-3.5584,-3.5933,-3.5924,-3.5746,-3.5541,-3.5418,-3.5294,-3.5046,-3.4673,-3.4173,-3.3398,-3.2511,-3.2001,-3.1744,-3.123,-3.0325,-2.9952,-2.943,-2.9299,-2.9316,-2.9316,-2.9185,-2.8824,-2.871,-2.8609,-2.8402,-2.8221,-2.8387,-2.8551,-2.8821,-2.9059,-2.925,-2.9298,-2.9298,-2.9298,-2.9298,-2.9298,-2.9298,-2.9298,-4.451,-4.451,-4.4572,-4.4695,-4.4695,-4.528,-4.5526,-4.5557,-4.6124,-4.6493,-4.6677,-4.677,-4.6661,-4.6471,-4.6177,-4.5608,-4.4964,-4.4385,-4.3891,-4.376,-4.3322,-4.3133,-4.3203,-4.3273,-4.3218,-4.319,-4.3176,-4.328,-4.3101,-4.3463,-4.3795,-4.3425,-4.3819,-4.409,-4.4067,-4.3833,-4.3781,-4.3809,-4.4098,-4.4147,-4.3885,-4.3729,-4.3572,-4.2996,-4.2918,-4.284,-4.2553,-4.208,-4.1631,-4.0789,-3.9898,-3.8587,-3.7769,-3.7169,-3.6478,-3.6191,-3.5931,-3.5733,-3.5535,-3.5424,-3.5023,-3.4909,-3.4906,-3.5124,-3.5545,-3.607,-3.6509,-3.6544,-3.6435,-3.6195,-3.5773,-3.5418,-3.5107,-3.4769,-3.4602,-3.4806,-3.4939,-3.5302,-3.5579,-3.55,-3.5541,-3.5418,-3.5294,-3.4922,-3.3862,-3.3505,-3.2765,-3.1744,-3.1102,-3.0714,-3.0343,-2.9561,-2.943,-2.9299,-2.9299,-2.9316,-2.9316,-2.9053,-2.8659,-2.8411,-2.8278,-2.8089,-2.7788,-2.8027,-2.8265,-2.8551,-2.8805,-2.8996,-2.9171,-2.9298,-2.9298,-2.9298,-2.9282,-2.925,-2.9298,-4.3802,-4.3864,-4.4356,-4.4572,-4.4572,-4.4756,-4.4742,-4.4618,-4.4322,-4.5403,-4.6895,-4.7363,-4.7152,-4.6262,-4.5486,-4.4792,-4.4142,-4.3279,-4.2564,-4.2371,-4.212,-4.2356,-4.2425,-4.2412,-4.2535,-4.2889,-4.29,-4.2695,-4.2528,-4.2888,-4.3245,-4.3098,-4.3296,-4.3277,-4.3303,-4.3098,-4.297,-4.2944,-4.3179,-4.3363,-4.318,-4.3075,-4.2892,-4.2342,-4.208,-4.1482,-4.1064,-4.0464,-3.9978,-3.934,-3.8345,-3.7416,-3.6438,-3.6105,-3.5863,-3.5643,-3.5533,-3.5312,-3.5202,-3.498,-3.4758,-3.4646,-3.4644,-3.4666,-3.4949,-3.5583,-3.5954,-3.602,-3.5954,-3.5577,-3.5266,-3.4956,-3.4533,-3.424,-3.3989,-3.4148,-3.4414,-3.4814,-3.5333,-3.5355,-3.5294,-3.517,-3.5046,-3.4383,-3.332,-3.2454,-3.1726,-3.0843,-3.0213,-2.9822,-2.9952,-2.943,-2.943,-2.9299,-2.9299,-2.9185,-2.9185,-2.8922,-2.8527,-2.8263,-2.7849,-2.7745,-2.755,-2.7725,-2.7947,-2.8233,-2.8503,-2.8757,-2.8932,-2.9075,-2.898,-2.8917,-2.8837,-2.8837,-2.9075,-4.331,-4.3512,-4.3956,-4.4141,-4.4172,-4.4449,-4.4496,-4.4327,-4.4261,-4.478,-4.5656,-4.565,-4.5347,-4.4929,-4.421,-4.3688,-4.2951,-4.2266,-4.1957,-4.1626,-4.1333,-4.1513,-4.1517,-4.1625,-4.2005,-4.2358,-4.2316,-4.2124,-4.192,-4.1603,-4.1648,-4.1815,-4.204,-4.2282,-4.218,-4.2184,-4.2317,-4.2239,-4.2317,-4.2317,-4.2396,-4.2371,-4.2216,-4.1776,-4.1154,-4.048,-3.996,-3.9259,-3.8558,-3.8046,-3.7251,-3.6626,-3.5995,-3.5753,-3.5511,-3.5423,-3.5312,-3.5202,-3.498,-3.4869,-3.4758,-3.4534,-3.4534,-3.4578,-3.4578,-3.5146,-3.5364,-3.5408,-3.5255,-3.4902,-3.4826,-3.4511,-3.4069,-3.36,-3.3476,-3.3559,-3.4087,-3.471,-3.4677,-3.4507,-3.4568,-3.4483,-3.3961,-3.2912,-3.1982,-3.1763,-3.0897,-3.0213,-2.9561,-2.9299,-2.9299,-2.9316,-2.9185,-2.9316,-2.9316,-2.9185,-2.8922,-2.8659,-2.8328,-2.7965,-2.7551,-2.7318,-2.7296,-2.7486,-2.7677,-2.7884,-2.817,-2.8424,-2.8411,-2.8365,-2.8428,-2.8475,-2.8428,-2.8333,-2.8302,-4.2794,-4.321,-4.3389,-4.3525,-4.3648,-4.4172,-4.4251,-4.4204,-4.4486,-4.4137,-4.3596,-4.2796,-4.2063,-4.2105,-4.1996,-4.1677,-4.1374,-4.1211,-4.1187,-4.1032,-4.0822,-4.0903,-4.0892,-4.1028,-4.1408,-4.1585,-4.1558,-4.1221,-4.079,-4.0585,-4.0447,-4.0044,-4.0211,-4.0461,-4.0592,-4.0984,-4.1481,-4.1533,-4.1458,-4.1328,-4.1458,-4.1641,-4.1284,-4.09,-4.0287,-3.975,-3.9129,-3.8396,-3.7418,-3.6989,-3.6472,-3.6059,-3.573,-3.54,-3.5312,-3.5202,-3.498,-3.498,-3.4869,-3.4646,-3.4534,-3.4534,-3.4534,-3.4534,-3.4534,-3.4644,-3.4862,-3.4727,-3.4575,-3.4441,-3.4388,-3.4183,-3.365,-3.3245,-3.3142,-3.3078,-3.3762,-3.4304,-3.4146,-3.3803,-3.3631,-3.3544,-3.2657,-3.1616,-3.1138,-3.0915,-3.0396,-2.9857,-2.9299,-2.9316,-2.9185,-2.9185,-2.9053,-2.9185,-2.9117,-2.8804,-2.8508,-2.8162,-2.7703,-2.7422,-2.7222,-2.7026,-2.7073,-2.7264,-2.7455,-2.7645,-2.7684,-2.7921,-2.7878,-2.771,-2.7866,-2.7819,-2.7647,-2.7538,-2.729,-4.2517,-4.2713,-4.2786,-4.3021,-4.3332,-4.3516,-4.3441,-4.319,-4.2938,-4.2344,-4.1791,-4.1256,-4.1338,-4.2593,-4.1934,-4.1411,-4.0769,-4.0412,-3.9905,-3.9734,-3.9888,-4.0078,-4.0296,-4.0421,-4.0599,-4.0722,-4.0723,-4.0602,-4.0014,-3.9865,-3.9833,-3.9616,-4.014,-4.0357,-4.0488,-4.088,-4.1246,-4.1172,-4.0997,-4.0896,-4.0795,-4.0594,-3.9954,-3.9337,-3.8477,-3.7737,-3.712,-3.6688,-3.658,-3.6363,-3.6059,-3.573,-3.5423,-3.5202,-3.498,-3.4869,-3.4758,-3.4646,-3.4646,-3.4513,-3.4534,-3.4534,-3.4534,-3.4423,-3.4534,-3.4556,-3.4575,-3.4328,-3.422,-3.4108,-3.399,-3.3877,-3.3409,-3.3173,-3.2954,-3.3161,-3.3596,-3.3557,-3.3311,-3.3074,-3.2729,-3.2409,-3.1705,-3.0828,-3.0366,-3.0142,-2.9822,-2.9282,-2.9316,-2.9185,-2.9168,-2.9003,-2.8871,-2.8719,-2.855,-2.8143,-2.785,-2.7491,-2.7312,-2.7001,-2.6903,-2.6771,-2.6867,-2.7153,-2.713,-2.7288,-2.7311,-2.7332,-2.7199,-2.72,-2.7231,-2.7308,-2.7107,-2.6876,-2.6632]},{"header":{"parameterUnit":"m.s-1","parameterCategory":1,"la1":31.0,"la2":29.5877,"lo1":-88.7671,"lo2":-86.6584,"dy":0.0162,"dx":0.0185,"nx":115,"ny":88,"refTime":"2023-04-28T12:00:00:Z","depth":0,"parameterNumber":3,"parameterNumberName":"V-component_of_WINDS"},"data":[0.0,0.0,0.0,0.0,0.0,0.0,0.0,0.0,0.0,0.0,0.0,0.0,0.0,0.0,0.0,0.0,0.0,0.0,0.0,0.0,0.0,0.0,0.0,0.0,0.0,0.0,0.0,0.0,0.0,0.0,0.0,0.0,0.0,0.0,0.0,0.0,0.0,0.0,0.0,0.0,0.0,0.0,0.0,0.0,0.0,0.0,0.0,0.0,0.0,0.0,0.0,0.0,0.0,0.0,0.0,0.0,0.0,0.0,0.0,0.0,0.0,0.0,0.0,0.0,0.0,0.0,0.0,0.0,0.0,0.0,0.0,0.0,0.0,0.0,0.0,0.0,0.0,0.0,0.0,0.0,0.0,0.0,0.0,0.0,0.0,0.0,0.0,0.0,0.0,0.0,0.0,0.0,0.0,0.0,0.0,0.0,0.0,0.0,0.0,0.0,0.0,0.0,0.0,0.0,0.0,0.0,0.0,0.0,0.0,0.0,0.0,0.0,0.0,0.0,0.0,0.0,0.0,0.0,0.0,0.0,0.0,0.0,0.0,0.0,0.0,0.0,0.0,0.0,0.0,0.0,0.0,0.0,0.0,0.0,0.0,0.0,0.0,0.0,0.0,0.0,0.0,0.0,0.0,0.0,0.0,0.0,0.0,0.0,0.0,0.0,0.0,0.0,0.0,0.0,0.0,0.0,0.0,0.0,0.0,0.0,0.0,0.0,0.0,0.0,0.0,0.0,0.0,0.0,0.0,0.0,0.0,0.0,0.0,0.0,0.0,0.0,0.0,0.0,0.0,0.0,0.0,0.0,0.0,0.0,0.0,0.0,0.0,0.0,0.0,0.0,0.0,0.0,0.0,0.0,0.0,0.0,0.0,0.0,0.0,0.0,0.0,0.0,0.0,0.0,0.0,0.0,0.0,0.0,0.0,0.0,0.0,0.0,0.0,0.0,0.0,0.0,0.0,0.0,0.0,0.0,0.0,0.0,0.0,0.0,0.0,0.0,0.0,0.0,0.0,0.0,0.0,0.0,0.0,0.0,0.0,0.0,0.0,0.0,0.0,0.0,0.0,0.0,0.0,0.0,0.0,0.0,0.0,0.0,0.0,0.0,0.0,0.0,0.0,0.0,0.0,0.0,0.0,0.0,0.0,0.0,0.0,0.0,0.0,0.0,0.0,0.0,0.0,0.0,0.0,0.0,0.0,0.0,0.0,0.0,0.0,0.0,0.0,0.0,0.0,0.0,0.0,0.0,0.0,0.0,0.0,0.0,0.0,0.0,0.0,0.0,0.0,0.0,0.0,0.0,0.0,0.0,0.0,0.0,0.0,0.0,0.0,0.0,0.0,0.0,0.0,0.0,0.0,0.0,0.0,0.0,0.0,0.0,0.0,0.0,0.0,0.0,0.0,0.0,0.0,0.0,0.0,0.0,0.0,0.0,0.0,0.0,0.0,0.0,0.0,0.0,0.0,0.0,0.0,0.0,0.0,0.0,0.0,0.0,0.0,0.0,0.0,0.0,0.0,0.0,0.0,0.0,0.0,0.0,0.0,0.0,0.0,0.0,0.0,0.0,0.0,0.0,0.0,0.0,0.0,0.0,0.0,0.0,0.0,0.0,0.0,0.0,0.0,0.0,0.0,0.0,0.0,0.0,0.0,0.0,0.0,0.0,0.0,0.0,0.0,0.0,0.0,0.0,0.0,0.0,0.0,0.0,0.0,0.0,0.0,0.0,0.0,0.0,0.0,0.0,0.0,0.0,0.0,0.0,0.0,0.0,0.0,0.0,0.0,0.0,0.0,0.0,0.0,0.0,0.0,0.0,0.0,0.0,0.0,0.0,0.0,0.0,0.0,0.0,0.0,0.0,0.0,0.0,0.0,0.0,0.0,0.0,0.0,0.0,0.0,0.0,0.0,0.0,0.0,0.0,0.0,0.0,0.0,0.0,0.0,0.0,0.0,0.0,0.0,0.0,0.0,0.0,0.0,0.0,0.0,0.0,0.0,0.0,0.0,0.0,0.0,0.0,0.0,0.0,0.0,0.0,0.0,0.0,0.0,0.0,0.0,0.0,0.0,0.0,0.0,0.0,0.0,0.0,0.0,0.0,0.0,0.0,0.0,0.0,0.0,0.0,0.0,0.0,0.0,0.0,0.0,0.0,0.0,0.0,0.0,0.0,0.0,0.0,0.0,0.0,0.0,0.0,0.0,0.0,0.0,0.0,0.0,0.0,0.0,0.0,0.0,0.0,0.0,0.0,0.0,0.0,0.0,0.0,0.0,0.0,0.0,0.0,0.0,0.0,0.0,0.0,0.0,0.0,0.0,0.0,0.0,0.0,0.0,0.0,0.0,0.0,0.0,0.0,0.0,0.0,0.0,0.0,0.0,0.0,0.0,0.0,0.0,0.0,0.0,0.0,0.0,0.0,0.0,0.0,0.0,0.0,0.0,0.0,0.0,0.0,0.0,0.0,0.0,0.0,0.0,0.0,0.0,0.0,0.0,0.0,0.0,0.0,0.0,0.0,0.0,0.0,0.0,0.0,0.0,0.0,0.0,0.0,0.0,0.0,0.0,0.0,0.0,0.0,0.0,0.0,0.0,0.0,0.0,0.0,0.0,0.0,0.0,0.0,0.0,0.0,0.0,0.0,0.0,0.0,0.0,0.0,0.0,0.0,0.0,0.0,0.0,0.0,0.0,0.0,0.0,0.0,0.0,0.0,0.0,0.0,0.0,0.0,0.0,0.0,0.0,0.0,0.0,0.0,0.0,0.0,0.0,0.0,0.0,0.0,0.0,0.0,0.0,0.0,0.0,0.0,0.0,0.0,0.0,0.0,0.0,0.0,0.0,0.0,0.0,0.0,0.0,0.0,0.0,0.0,0.0,0.0,0.0,0.0,0.0,0.0,0.0,0.0,0.0,0.0,0.0,0.0,0.0,0.0,0.0,0.0,0.0,0.0,0.0,0.0,0.0,0.0,0.0,0.0,0.0,0.0,0.0,0.0,0.0,0.0,0.0,0.0,0.0,0.0,0.0,0.0,0.0,0.0,0.0,0.0,0.0,0.0,0.0,0.0,0.0,0.0,0.0,0.0,0.0,0.0,0.0,0.0,0.0,0.0,0.0,0.0,0.0,0.0,0.0,0.0,0.0,0.0,0.0,0.0,0.0,0.0,0.0,0.0,0.0,0.0,0.0,0.0,0.0,0.0,0.0,0.0,0.0,0.0,0.0,0.0,0.0,0.0,0.0,0.0,0.0,0.0,0.0,0.0,0.0,0.0,0.0,0.0,0.0,0.0,0.0,0.0,0.0,0.0,0.0,0.0,0.0,0.0,0.0,0.0,0.0,0.0,0.0,0.0,0.0,0.0,0.0,0.0,0.0,0.0,0.0,0.0,0.0,0.0,0.0,0.0,0.0,0.0,0.0,0.0,0.0,0.0,0.0,0.0,0.0,0.0,0.0,0.0,0.0,0.0,0.0,0.0,0.0,0.0,0.0,0.0,0.0,0.0,0.0,0.0,0.0,0.0,0.0,0.0,0.0,0.0,0.0,0.0,0.0,0.0,0.0,0.0,0.0,0.0,0.0,0.0,0.0,0.0,0.0,0.0,0.0,0.0,0.0,0.0,0.0,0.0,0.0,0.0,0.0,0.0,0.0,0.0,0.0,0.0,0.0,0.0,0.0,0.0,0.0,0.0,0.0,0.0,0.0,0.0,0.0,0.0,0.0,0.0,0.0,0.0,0.0,0.0,0.0,0.0,0.0,0.0,0.0,0.0,0.0,0.0,0.0,0.0,0.0,0.0,0.0,0.0,0.0,0.0,0.0,0.0,0.0,0.0,0.0,0.0,0.0,0.0,0.0,0.0,0.0,0.0,0.0,0.0,0.0,0.0,0.0,0.0,0.0,0.0,0.0,0.0,0.0,0.0,0.0,0.0,0.0,0.0,0.0,0.0,0.0,0.0,0.0,0.0,0.0,0.0,0.0,0.0,0.0,0.0,0.0,0.0,0.0,0.0,0.0,0.0,0.0,0.0,0.0,0.0,0.0,0.0,0.0,0.0,0.0,0.0,0.0,0.0,0.0,0.0,0.0,0.0,0.0,0.0,0.0,0.0,0.0,0.0,0.0,0.0,0.0,0.0,0.0,0.0,0.0,0.0,0.0,0.0,0.0,0.0,0.0,0.0,0.0,0.0,0.0,0.0,0.0,0.0,0.0,0.0,0.0,0.0,0.0,0.0,0.0,0.0,0.0,0.0,0.0,0.0,0.0,0.0,0.0,0.0,0.0,0.0,-3.4063,0.0,0.0,0.0,0.0,0.0,0.0,0.0,0.0,0.0,0.0,0.0,0.0,0.0,0.0,0.0,0.0,0.0,0.0,0.0,0.0,0.0,0.0,0.0,0.0,0.0,0.0,0.0,0.0,0.0,0.0,0.0,0.0,0.0,0.0,0.0,0.0,0.0,0.0,0.0,0.0,0.0,0.0,0.0,0.0,0.0,0.0,0.0,0.0,0.0,0.0,0.0,0.0,0.0,0.0,0.0,0.0,0.0,0.0,0.0,0.0,0.0,0.0,0.0,0.0,0.0,0.0,0.0,0.0,0.0,0.0,0.0,0.0,0.0,0.0,0.0,0.0,0.0,0.0,0.0,0.0,0.0,0.0,0.0,0.0,0.0,0.0,0.0,0.0,0.0,0.0,0.0,0.0,0.0,0.0,0.0,0.0,0.0,0.0,0.0,0.0,0.0,0.0,0.0,0.0,0.0,0.0,0.0,0.0,0.0,0.0,-3.452,-3.452,-3.4465,-3.4633,-3.4936,0.0,0.0,0.0,0.0,0.0,0.0,0.0,0.0,0.0,0.0,0.0,0.0,0.0,0.0,0.0,0.0,0.0,0.0,0.0,0.0,0.0,0.0,0.0,0.0,0.0,0.0,0.0,0.0,0.0,0.0,0.0,0.0,0.0,0.0,0.0,0.0,0.0,0.0,0.0,0.0,0.0,0.0,0.0,0.0,0.0,0.0,0.0,0.0,0.0,0.0,0.0,0.0,0.0,0.0,0.0,0.0,0.0,0.0,0.0,0.0,0.0,0.0,0.0,0.0,0.0,0.0,0.0,0.0,0.0,0.0,0.0,0.0,0.0,0.0,0.0,0.0,0.0,0.0,0.0,0.0,0.0,0.0,0.0,0.0,0.0,0.0,0.0,0.0,0.0,0.0,0.0,0.0,0.0,0.0,0.0,0.0,0.0,0.0,0.0,0.0,0.0,0.0,0.0,0.0,0.0,0.0,0.0,0.0,0.0,0.0,0.0,0.0,-3.5429,-3.5383,-3.535,0.0,0.0,0.0,0.0,0.0,0.0,0.0,0.0,0.0,0.0,0.0,0.0,0.0,0.0,0.0,0.0,0.0,0.0,0.0,0.0,0.0,0.0,0.0,0.0,0.0,0.0,0.0,0.0,0.0,0.0,0.0,0.0,0.0,0.0,0.0,0.0,0.0,0.0,0.0,0.0,0.0,0.0,0.0,0.0,0.0,0.0,0.0,0.0,0.0,0.0,0.0,0.0,0.0,0.0,0.0,0.0,0.0,0.0,0.0,0.0,0.0,0.0,0.0,0.0,0.0,0.0,0.0,0.0,0.0,0.0,0.0,0.0,0.0,0.0,0.0,0.0,0.0,0.0,0.0,0.0,0.0,0.0,0.0,0.0,0.0,0.0,0.0,0.0,0.0,0.0,0.0,0.0,0.0,0.0,0.0,0.0,0.0,0.0,0.0,0.0,0.0,0.0,0.0,0.0,0.0,0.0,0.0,0.0,0.0,0.0,-3.5291,-3.5152,-3.5152,0.0,-3.4643,0.0,0.0,0.0,0.0,0.0,0.0,0.0,0.0,0.0,0.0,0.0,0.0,0.0,0.0,0.0,0.0,0.0,0.0,0.0,0.0,0.0,0.0,0.0,0.0,0.0,0.0,0.0,0.0,0.0,0.0,0.0,0.0,0.0,0.0,0.0,0.0,0.0,0.0,0.0,0.0,0.0,0.0,0.0,0.0,0.0,0.0,0.0,0.0,0.0,0.0,0.0,0.0,0.0,0.0,0.0,0.0,0.0,0.0,0.0,0.0,0.0,0.0,0.0,0.0,0.0,0.0,0.0,0.0,0.0,0.0,0.0,0.0,0.0,0.0,0.0,0.0,0.0,0.0,0.0,0.0,0.0,0.0,0.0,0.0,0.0,0.0,0.0,0.0,0.0,0.0,0.0,0.0,0.0,0.0,0.0,0.0,0.0,0.0,0.0,0.0,0.0,0.0,0.0,0.0,0.0,0.0,0.0,0.0,0.0,0.0,-3.4916,-3.4835,-3.4594,-3.4317,0.0,0.0,0.0,0.0,0.0,0.0,0.0,0.0,0.0,0.0,0.0,0.0,0.0,0.0,0.0,0.0,0.0,0.0,0.0,0.0,0.0,0.0,0.0,0.0,0.0,0.0,0.0,0.0,0.0,0.0,0.0,0.0,0.0,0.0,0.0,0.0,0.0,0.0,0.0,0.0,0.0,0.0,0.0,0.0,0.0,0.0,0.0,0.0,0.0,0.0,0.0,0.0,0.0,0.0,0.0,0.0,0.0,0.0,0.0,0.0,0.0,0.0,0.0,0.0,0.0,0.0,0.0,0.0,0.0,0.0,0.0,0.0,0.0,0.0,0.0,0.0,0.0,0.0,0.0,0.0,0.0,0.0,0.0,0.0,0.0,0.0,0.0,0.0,0.0,0.0,0.0,0.0,0.0,0.0,0.0,0.0,0.0,0.0,0.0,0.0,0.0,0.0,0.0,0.0,0.0,0.0,0.0,0.0,0.0,0.0,-3.4691,-3.4546,-3.4399,-3.4118,-3.3764,-3.3539,0.0,0.0,0.0,0.0,0.0,0.0,0.0,0.0,0.0,0.0,0.0,0.0,0.0,0.0,0.0,0.0,0.0,0.0,0.0,0.0,0.0,0.0,0.0,0.0,0.0,0.0,0.0,0.0,0.0,0.0,0.0,0.0,0.0,0.0,0.0,0.0,0.0,0.0,0.0,0.0,0.0,0.0,0.0,0.0,0.0,0.0,0.0,0.0,0.0,0.0,0.0,0.0,0.0,0.0,0.0,0.0,0.0,0.0,0.0,0.0,0.0,0.0,0.0,0.0,0.0,0.0,0.0,0.0,0.0,0.0,0.0,0.0,0.0,0.0,0.0,0.0,0.0,0.0,0.0,0.0,0.0,0.0,0.0,0.0,0.0,0.0,0.0,0.0,0.0,0.0,0.0,0.0,0.0,0.0,0.0,0.0,0.0,0.0,0.0,0.0,0.0,0.0,0.0,0.0,0.0,0.0,0.0,0.0,-3.4,-3.43,-3.425,-3.3745,-3.3694,-3.3487,0.0,0.0,0.0,0.0,0.0,0.0,0.0,0.0,0.0,0.0,0.0,0.0,0.0,0.0,0.0,0.0,0.0,0.0,0.0,0.0,0.0,0.0,0.0,0.0,0.0,0.0,0.0,0.0,0.0,0.0,0.0,0.0,0.0,0.0,0.0,0.0,0.0,0.0,0.0,0.0,0.0,0.0,0.0,0.0,0.0,0.0,0.0,0.0,0.0,0.0,0.0,0.0,0.0,0.0,0.0,0.0,0.0,0.0,0.0,0.0,0.0,0.0,0.0,0.0,0.0,0.0,0.0,0.0,0.0,0.0,0.0,0.0,0.0,0.0,0.0,0.0,0.0,0.0,0.0,0.0,0.0,0.0,0.0,0.0,0.0,0.0,0.0,0.0,0.0,0.0,0.0,0.0,0.0,0.0,0.0,0.0,0.0,0.0,0.0,0.0,0.0,0.0,0.0,0.0,0.0,0.0,0.0,0.0,0.0,-3.3797,-3.361,-3.3351,-3.2904,-3.2904,-3.2765,0.0,0.0,0.0,0.0,0.0,0.0,0.0,0.0,0.0,0.0,0.0,0.0,0.0,0.0,0.0,0.0,0.0,0.0,0.0,0.0,0.0,0.0,0.0,0.0,0.0,0.0,0.0,0.0,0.0,0.0,0.0,0.0,0.0,0.0,0.0,0.0,0.0,0.0,0.0,0.0,0.0,0.0,0.0,0.0,0.0,0.0,0.0,0.0,0.0,0.0,0.0,0.0,0.0,0.0,0.0,0.0,0.0,0.0,0.0,0.0,0.0,0.0,0.0,0.0,0.0,0.0,0.0,0.0,0.0,0.0,0.0,0.0,0.0,0.0,0.0,0.0,0.0,0.0,0.0,0.0,0.0,0.0,0.0,0.0,0.0,0.0,0.0,0.0,0.0,0.0,0.0,0.0,0.0,0.0,0.0,0.0,0.0,0.0,0.0,0.0,0.0,0.0,0.0,0.0,0.0,0.0,0.0,0.0,0.0,-3.3487,0.0,-3.2874,-3.2468,-3.2598,-3.2628,0.0,0.0,0.0,0.0,0.0,0.0,0.0,0.0,0.0,0.0,0.0,0.0,0.0,0.0,0.0,0.0,0.0,0.0,0.0,0.0,0.0,0.0,0.0,0.0,0.0,0.0,0.0,0.0,0.0,0.0,0.0,0.0,0.0,0.0,0.0,0.0,0.0,0.0,0.0,0.0,0.0,0.0,0.0,0.0,0.0,0.0,0.0,0.0,0.0,0.0,0.0,0.0,0.0,0.0,0.0,0.0,0.0,0.0,0.0,0.0,0.0,0.0,0.0,0.0,0.0,0.0,0.0,0.0,0.0,0.0,0.0,0.0,0.0,0.0,0.0,0.0,0.0,0.0,0.0,0.0,0.0,0.0,0.0,0.0,0.0,0.0,0.0,0.0,0.0,0.0,0.0,0.0,0.0,0.0,0.0,0.0,0.0,0.0,0.0,0.0,0.0,0.0,0.0,0.0,0.0,0.0,0.0,0.0,-3.3466,-3.3043,-3.3284,-3.3121,-3.2475,-3.3059,-3.309,0.0,0.0,0.0,0.0,0.0,0.0,0.0,0.0,0.0,0.0,0.0,0.0,0.0,0.0,0.0,0.0,0.0,0.0,0.0,0.0,0.0,0.0,0.0,0.0,0.0,0.0,0.0,0.0,0.0,0.0,0.0,0.0,0.0,0.0,0.0,0.0,0.0,0.0,0.0,0.0,0.0,0.0,0.0,0.0,0.0,0.0,0.0,0.0,0.0,0.0,0.0,0.0,0.0,0.0,0.0,0.0,0.0,0.0,0.0,0.0,0.0,0.0,0.0,0.0,0.0,0.0,0.0,0.0,0.0,0.0,0.0,0.0,0.0,0.0,0.0,0.0,0.0,0.0,0.0,0.0,0.0,0.0,0.0,0.0,0.0,0.0,0.0,0.0,0.0,0.0,0.0,0.0,0.0,0.0,0.0,0.0,0.0,0.0,0.0,0.0,0.0,0.0,0.0,0.0,0.0,0.0,0.0,0.0,0.0,-3.3177,-3.3825,-3.4201,-3.4298,-3.371,-3.3552,0.0,0.0,0.0,0.0,0.0,0.0,0.0,0.0,0.0,0.0,0.0,0.0,0.0,0.0,0.0,0.0,0.0,0.0,0.0,0.0,0.0,0.0,0.0,0.0,0.0,0.0,0.0,0.0,0.0,0.0,0.0,0.0,0.0,0.0,0.0,0.0,0.0,0.0,0.0,0.0,0.0,0.0,0.0,0.0,0.0,0.0,0.0,0.0,0.0,0.0,0.0,0.0,0.0,0.0,0.0,0.0,0.0,0.0,0.0,0.0,0.0,0.0,0.0,0.0,0.0,0.0,0.0,0.0,0.0,0.0,0.0,0.0,0.0,0.0,0.0,0.0,0.0,0.0,0.0,0.0,0.0,0.0,0.0,0.0,0.0,0.0,0.0,0.0,0.0,0.0,0.0,0.0,0.0,0.0,0.0,0.0,0.0,0.0,0.0,0.0,0.0,0.0,0.0,0.0,0.0,0.0,0.0,0.0,0.0,-3.4242,-3.4819,-3.5125,-3.5064,-3.4636,-3.4329,-3.4386,0.0,0.0,0.0,0.0,0.0,0.0,0.0,0.0,0.0,0.0,0.0,0.0,0.0,0.0,0.0,0.0,0.0,0.0,0.0,0.0,0.0,0.0,0.0,0.0,0.0,0.0,0.0,0.0,0.0,0.0,0.0,0.0,0.0,0.0,0.0,0.0,0.0,0.0,0.0,0.0,0.0,0.0,0.0,0.0,0.0,0.0,0.0,0.0,0.0,0.0,0.0,0.0,0.0,0.0,0.0,0.0,0.0,0.0,0.0,0.0,0.0,0.0,0.0,0.0,0.0,0.0,0.0,0.0,0.0,0.0,0.0,0.0,0.0,0.0,0.0,0.0,0.0,0.0,0.0,0.0,0.0,0.0,0.0,0.0,0.0,0.0,0.0,0.0,0.0,0.0,0.0,0.0,0.0,0.0,0.0,0.0,0.0,0.0,0.0,0.0,0.0,0.0,0.0,0.0,0.0,0.0,0.0,0.0,-3.6061,-3.6283,-3.6009,-3.5213,-3.5637,-3.5459,0.0,0.0,0.0,0.0,0.0,0.0,0.0,0.0,0.0,0.0,0.0,0.0,0.0,0.0,0.0,0.0,0.0,0.0,0.0,0.0,0.0,0.0,0.0,0.0,0.0,0.0,0.0,0.0,0.0,0.0,0.0,0.0,0.0,0.0,0.0,0.0,0.0,0.0,0.0,0.0,0.0,0.0,0.0,0.0,0.0,0.0,0.0,0.0,0.0,0.0,0.0,0.0,0.0,0.0,0.0,0.0,0.0,0.0,0.0,0.0,0.0,0.0,0.0,0.0,0.0,0.0,0.0,0.0,0.0,0.0,0.0,0.0,0.0,0.0,0.0,0.0,0.0,0.0,0.0,0.0,0.0,0.0,0.0,0.0,0.0,0.0,0.0,0.0,0.0,0.0,0.0,0.0,0.0,0.0,0.0,0.0,0.0,0.0,0.0,0.0,0.0,0.0,0.0,0.0,0.0,0.0,0.0,0.0,0.0,-3.833,-3.8287,-3.8061,-3.7714,-3.6671,-3.6191,0.0,0.0,0.0,0.0,0.0,0.0,0.0,0.0,0.0,0.0,0.0,0.0,0.0,0.0,0.0,0.0,0.0,0.0,0.0,0.0,0.0,0.0,0.0,0.0,0.0,0.0,0.0,0.0,0.0,0.0,0.0,0.0,0.0,0.0,0.0,0.0,0.0,0.0,0.0,0.0,0.0,0.0,0.0,0.0,0.0,0.0,0.0,0.0,0.0,0.0,0.0,0.0,0.0,0.0,0.0,0.0,0.0,0.0,0.0,0.0,0.0,0.0,0.0,0.0,0.0,0.0,0.0,0.0,0.0,0.0,0.0,0.0,0.0,0.0,0.0,0.0,0.0,0.0,0.0,0.0,0.0,0.0,0.0,0.0,0.0,0.0,0.0,0.0,0.0,0.0,0.0,0.0,0.0,0.0,0.0,0.0,0.0,0.0,0.0,0.0,0.0,0.0,0.0,0.0,0.0,0.0,0.0,0.0,-3.8953,-3.9482,-3.9879,-4.0039,-3.9824,-3.8379,-3.7328,0.0,0.0,0.0,0.0,0.0,0.0,0.0,0.0,0.0,0.0,0.0,0.0,0.0,0.0,0.0,0.0,0.0,0.0,0.0,0.0,0.0,0.0,0.0,0.0,0.0,0.0,0.0,0.0,0.0,0.0,0.0,0.0,0.0,0.0,0.0,0.0,0.0,0.0,0.0,0.0,0.0,0.0,0.0,0.0,0.0,0.0,0.0,0.0,0.0,0.0,0.0,0.0,0.0,0.0,0.0,0.0,0.0,0.0,0.0,0.0,0.0,0.0,0.0,0.0,0.0,0.0,0.0,0.0,0.0,0.0,0.0,0.0,0.0,0.0,0.0,0.0,0.0,0.0,0.0,0.0,0.0,0.0,0.0,0.0,0.0,0.0,0.0,0.0,0.0,0.0,0.0,0.0,0.0,0.0,0.0,0.0,0.0,0.0,0.0,0.0,0.0,0.0,0.0,0.0,0.0,0.0,0.0,0.0,-4.0274,-4.0213,-4.1247,-4.1791,-4.17,-4.0217,-3.8612,0.0,0.0,0.0,0.0,0.0,0.0,0.0,0.0,0.0,0.0,0.0,0.0,0.0,0.0,0.0,0.0,0.0,0.0,0.0,0.0,0.0,0.0,0.0,0.0,0.0,0.0,0.0,0.0,0.0,0.0,0.0,0.0,0.0,0.0,0.0,0.0,0.0,0.0,0.0,0.0,0.0,0.0,0.0,0.0,0.0,0.0,0.0,0.0,0.0,0.0,0.0,0.0,0.0,0.0,0.0,0.0,0.0,0.0,0.0,0.0,0.0,0.0,0.0,0.0,0.0,0.0,0.0,0.0,0.0,0.0,0.0,0.0,0.0,0.0,0.0,0.0,0.0,0.0,0.0,0.0,0.0,0.0,0.0,0.0,0.0,0.0,0.0,0.0,0.0,0.0,0.0,0.0,0.0,0.0,0.0,0.0,0.0,0.0,0.0,0.0,0.0,0.0,0.0,0.0,0.0,0.0,0.0,0.0,-4.1255,-4.2182,-4.2364,-4.2874,-4.3867,-4.1159,-3.9133,0.0,0.0,0.0,0.0,0.0,0.0,0.0,0.0,0.0,0.0,0.0,0.0,0.0,0.0,0.0,0.0,0.0,0.0,0.0,0.0,0.0,0.0,0.0,0.0,0.0,0.0,0.0,0.0,0.0,0.0,0.0,0.0,0.0,0.0,0.0,0.0,0.0,0.0,0.0,0.0,0.0,0.0,0.0,0.0,0.0,0.0,0.0,0.0,-4.8036,0.0,0.0,0.0,0.0,0.0,0.0,0.0,0.0,0.0,0.0,0.0,0.0,0.0,0.0,0.0,0.0,0.0,0.0,0.0,0.0,0.0,0.0,0.0,0.0,0.0,0.0,0.0,0.0,0.0,0.0,0.0,0.0,0.0,0.0,0.0,0.0,0.0,0.0,0.0,0.0,0.0,0.0,0.0,0.0,0.0,0.0,0.0,0.0,0.0,0.0,0.0,0.0,0.0,0.0,0.0,0.0,0.0,0.0,0.0,-4.1896,-4.3227,-4.3657,-4.4208,-4.4809,-4.2947,-4.089,0.0,0.0,0.0,0.0,0.0,0.0,0.0,0.0,0.0,0.0,0.0,0.0,0.0,0.0,0.0,0.0,0.0,0.0,0.0,0.0,0.0,0.0,0.0,0.0,0.0,0.0,0.0,0.0,0.0,0.0,0.0,0.0,0.0,0.0,0.0,0.0,0.0,0.0,0.0,0.0,0.0,0.0,0.0,0.0,0.0,0.0,0.0,0.0,0.0,0.0,0.0,0.0,0.0,0.0,0.0,0.0,0.0,0.0,0.0,0.0,0.0,0.0,0.0,0.0,0.0,0.0,0.0,0.0,0.0,0.0,0.0,0.0,0.0,0.0,0.0,0.0,0.0,0.0,0.0,0.0,0.0,0.0,0.0,0.0,0.0,0.0,0.0,0.0,0.0,0.0,0.0,0.0,0.0,0.0,0.0,0.0,0.0,0.0,0.0,0.0,0.0,0.0,0.0,0.0,0.0,0.0,0.0,-4.0919,-4.2573,-4.3988,-4.4967,-4.5514,-4.5574,-4.4766,-4.291,-4.0008,0.0,0.0,0.0,0.0,0.0,0.0,0.0,0.0,0.0,0.0,0.0,0.0,0.0,0.0,0.0,0.0,0.0,0.0,0.0,0.0,0.0,0.0,0.0,0.0,0.0,0.0,0.0,0.0,0.0,0.0,0.0,0.0,0.0,0.0,0.0,0.0,0.0,0.0,-4.5105,-4.7131,0.0,0.0,0.0,0.0,0.0,0.0,0.0,0.0,-5.0141,0.0,0.0,0.0,0.0,0.0,0.0,0.0,0.0,0.0,0.0,0.0,0.0,0.0,0.0,0.0,0.0,0.0,0.0,0.0,0.0,0.0,0.0,0.0,0.0,0.0,0.0,0.0,0.0,0.0,0.0,0.0,0.0,0.0,0.0,0.0,0.0,0.0,0.0,0.0,0.0,0.0,0.0,0.0,0.0,0.0,0.0,0.0,0.0,0.0,0.0,0.0,0.0,0.0,0.0,0.0,0.0,-4.095,-4.2282,-4.3928,-4.5783,-4.6052,-4.6411,-4.689,-4.5244,-4.3539,-4.1923,0.0,0.0,0.0,0.0,0.0,0.0,0.0,0.0,0.0,0.0,0.0,0.0,0.0,0.0,0.0,0.0,0.0,0.0,0.0,0.0,0.0,0.0,0.0,0.0,0.0,0.0,0.0,0.0,0.0,0.0,0.0,0.0,0.0,0.0,0.0,0.0,0.0,0.0,0.0,-4.8841,-4.948,0.0,0.0,0.0,0.0,0.0,0.0,0.0,0.0,-5.122,0.0,0.0,0.0,0.0,0.0,0.0,0.0,0.0,0.0,0.0,0.0,0.0,0.0,0.0,0.0,0.0,0.0,0.0,0.0,0.0,0.0,0.0,0.0,0.0,0.0,0.0,0.0,0.0,0.0,0.0,0.0,0.0,0.0,0.0,0.0,0.0,0.0,0.0,0.0,0.0,0.0,0.0,0.0,0.0,0.0,0.0,0.0,0.0,0.0,0.0,0.0,0.0,0.0,0.0,0.0,-4.0846,-4.2821,-4.4646,-4.6262,-4.6651,-4.683,-4.677,-4.5514,-4.4047,0.0,0.0,0.0,0.0,0.0,0.0,0.0,0.0,0.0,0.0,0.0,0.0,0.0,0.0,0.0,0.0,0.0,0.0,0.0,0.0,0.0,0.0,0.0,0.0,0.0,0.0,0.0,0.0,0.0,0.0,0.0,0.0,0.0,0.0,0.0,0.0,0.0,0.0,0.0,0.0,-4.972,-5.0054,-5.0792,0.0,0.0,0.0,0.0,0.0,0.0,-5.1396,-5.1226,0.0,0.0,0.0,0.0,0.0,0.0,0.0,0.0,0.0,0.0,0.0,0.0,0.0,0.0,0.0,0.0,0.0,0.0,0.0,0.0,0.0,0.0,0.0,0.0,0.0,0.0,0.0,0.0,0.0,0.0,0.0,0.0,0.0,0.0,0.0,0.0,0.0,0.0,0.0,0.0,0.0,0.0,0.0,0.0,0.0,0.0,0.0,0.0,0.0,0.0,0.0,0.0,0.0,0.0,0.0,-4.0816,-4.312,-4.4975,-4.6262,-4.683,-4.677,-4.6142,-4.5454,-4.4227,0.0,0.0,0.0,0.0,0.0,0.0,0.0,0.0,0.0,0.0,0.0,0.0,0.0,0.0,0.0,0.0,0.0,0.0,0.0,0.0,0.0,0.0,0.0,0.0,0.0,0.0,0.0,0.0,0.0,0.0,0.0,0.0,0.0,0.0,0.0,0.0,0.0,0.0,0.0,0.0,0.0,-5.0759,-5.143,-5.096,0.0,0.0,0.0,0.0,-5.1832,-5.2034,0.0,0.0,0.0,0.0,0.0,0.0,0.0,0.0,0.0,0.0,0.0,0.0,0.0,0.0,0.0,0.0,0.0,0.0,0.0,0.0,0.0,0.0,0.0,0.0,0.0,0.0,0.0,0.0,0.0,0.0,0.0,0.0,0.0,0.0,0.0,0.0,0.0,0.0,0.0,0.0,0.0,0.0,0.0,0.0,0.0,0.0,0.0,0.0,0.0,0.0,0.0,0.0,0.0,0.0,0.0,0.0,-4.2073,-4.3569,-4.4975,-4.6232,-4.6411,-4.6112,-4.5424,-4.4766,-4.3698,0.0,0.0,0.0,0.0,0.0,0.0,0.0,0.0,0.0,0.0,0.0,0.0,0.0,0.0,0.0,0.0,0.0,0.0,0.0,0.0,0.0,0.0,0.0,0.0,0.0,0.0,0.0,0.0,0.0,0.0,0.0,0.0,0.0,0.0,0.0,0.0,0.0,0.0,0.0,0.0,0.0,-5.1927,-5.0692,-5.173,-5.2065,0.0,0.0,-5.2499,-5.2561,-5.4414,0.0,0.0,0.0,0.0,0.0,0.0,0.0,0.0,0.0,0.0,0.0,0.0,0.0,0.0,0.0,0.0,0.0,0.0,0.0,0.0,0.0,0.0,0.0,0.0,0.0,0.0,0.0,0.0,0.0,0.0,0.0,0.0,0.0,0.0,0.0,0.0,0.0,0.0,0.0,0.0,0.0,0.0,0.0,0.0,0.0,0.0,0.0,0.0,0.0,0.0,0.0,0.0,0.0,0.0,0.0,-4.0382,-4.2186,-4.3578,-4.4945,-4.6262,-4.5933,-4.5424,-4.4766,-4.4107,-4.3071,0.0,0.0,0.0,0.0,0.0,0.0,0.0,0.0,0.0,0.0,0.0,0.0,0.0,0.0,0.0,0.0,0.0,0.0,0.0,0.0,0.0,0.0,0.0,0.0,0.0,0.0,0.0,0.0,0.0,0.0,0.0,0.0,0.0,0.0,0.0,0.0,0.0,0.0,0.0,0.0,0.0,0.0,-5.1586,-5.1858,0.0,0.0,0.0,-5.272,-5.3047,0.0,0.0,0.0,0.0,0.0,0.0,0.0,0.0,0.0,0.0,0.0,0.0,0.0,0.0,0.0,0.0,0.0,0.0,0.0,0.0,0.0,0.0,0.0,0.0,0.0,0.0,0.0,0.0,0.0,0.0,0.0,0.0,0.0,0.0,0.0,0.0,0.0,0.0,0.0,0.0,0.0,0.0,0.0,0.0,0.0,0.0,0.0,0.0,0.0,0.0,0.0,0.0,0.0,0.0,0.0,0.0,0.0,-4.206,-4.3578,-4.4796,-4.5753,-4.5221,-4.4654,-4.4077,-4.3439,0.0,0.0,0.0,0.0,0.0,0.0,0.0,0.0,0.0,0.0,0.0,0.0,0.0,0.0,0.0,0.0,0.0,0.0,0.0,0.0,0.0,0.0,0.0,0.0,0.0,0.0,0.0,-4.1593,0.0,0.0,0.0,0.0,0.0,0.0,0.0,0.0,0.0,0.0,0.0,0.0,0.0,0.0,-5.1888,-5.2113,-5.2217,-5.242,0.0,0.0,-5.2942,-5.3599,-5.4216,-5.4156,0.0,0.0,0.0,0.0,0.0,0.0,0.0,0.0,0.0,0.0,0.0,0.0,0.0,0.0,0.0,0.0,0.0,0.0,0.0,0.0,0.0,0.0,0.0,0.0,0.0,0.0,0.0,0.0,0.0,0.0,0.0,0.0,0.0,0.0,0.0,0.0,0.0,0.0,0.0,0.0,0.0,0.0,0.0,0.0,0.0,0.0,0.0,0.0,0.0,0.0,0.0,0.0,0.0,0.0,0.0,-4.206,-4.3578,-4.4377,-4.4466,-4.4191,-4.3834,-4.3339,-4.296,-4.2178,0.0,0.0,0.0,0.0,0.0,0.0,0.0,0.0,0.0,0.0,0.0,0.0,0.0,0.0,0.0,0.0,0.0,0.0,0.0,0.0,0.0,0.0,0.0,0.0,0.0,0.0,0.0,0.0,0.0,0.0,0.0,0.0,0.0,0.0,0.0,0.0,0.0,0.0,0.0,0.0,0.0,-5.2357,-5.1516,-5.318,-5.4283,0.0,0.0,-5.3817,-5.4328,-5.5888,-5.6204,-5.3738,0.0,0.0,0.0,0.0,0.0,0.0,0.0,0.0,0.0,0.0,0.0,0.0,0.0,0.0,0.0,0.0,0.0,0.0,0.0,0.0,0.0,0.0,0.0,0.0,0.0,0.0,0.0,0.0,0.0,0.0,0.0,0.0,0.0,0.0,0.0,0.0,0.0,0.0,0.0,0.0,0.0,0.0,0.0,0.0,0.0,0.0,0.0,0.0,0.0,0.0,0.0,0.0,0.0,-4.0831,-4.1745,-4.279,-4.3671,-4.4442,-4.4063,-4.3915,-4.4116,-4.395,-4.3196,0.0,0.0,0.0,0.0,0.0,0.0,0.0,0.0,0.0,0.0,0.0,0.0,0.0,0.0,0.0,0.0,0.0,0.0,0.0,0.0,0.0,0.0,0.0,0.0,0.0,0.0,0.0,0.0,-4.4204,-4.4528,-4.4949,0.0,0.0,0.0,0.0,0.0,0.0,0.0,0.0,0.0,0.0,-5.2582,-5.2572,-5.3772,0.0,0.0,-5.4568,-5.4933,-5.5156,-5.5439,-5.5206,-5.4229,-5.3904,0.0,0.0,0.0,0.0,0.0,0.0,0.0,0.0,0.0,0.0,0.0,0.0,0.0,0.0,0.0,0.0,0.0,0.0,0.0,0.0,0.0,0.0,0.0,0.0,0.0,0.0,0.0,0.0,0.0,0.0,0.0,0.0,0.0,0.0,0.0,0.0,0.0,0.0,0.0,0.0,0.0,0.0,0.0,0.0,0.0,0.0,0.0,0.0,0.0,0.0,0.0,0.0,-4.1204,-4.1799,-4.2754,-4.372,-4.4604,-4.4137,-4.4108,-4.4604,-4.4464,-4.3763,0.0,0.0,0.0,0.0,0.0,0.0,0.0,0.0,0.0,0.0,0.0,0.0,0.0,0.0,0.0,0.0,0.0,0.0,0.0,0.0,0.0,0.0,0.0,0.0,0.0,0.0,0.0,0.0,-4.4982,-4.537,-4.605,0.0,0.0,0.0,0.0,0.0,0.0,0.0,0.0,0.0,0.0,-5.3202,-5.3665,-5.4361,-5.4825,-5.4858,-5.4891,-5.5189,-5.5852,-5.5322,-5.4858,-5.4858,0.0,0.0,0.0,0.0,0.0,0.0,0.0,0.0,0.0,0.0,0.0,0.0,0.0,0.0,0.0,0.0,0.0,0.0,0.0,0.0,0.0,0.0,0.0,0.0,0.0,0.0,0.0,0.0,0.0,0.0,-3.1436,0.0,0.0,0.0,0.0,0.0,0.0,0.0,0.0,0.0,0.0,0.0,0.0,0.0,0.0,0.0,0.0,0.0,0.0,0.0,0.0,0.0,0.0,-4.169,-4.2363,-4.373,-4.4575,-4.4634,-4.4379,-4.4379,-4.4579,-4.4237,-4.3484,-4.245,0.0,0.0,0.0,0.0,0.0,0.0,0.0,0.0,0.0,0.0,0.0,0.0,0.0,0.0,0.0,0.0,0.0,0.0,0.0,0.0,0.0,0.0,0.0,0.0,0.0,0.0,-4.4755,-4.5403,-4.605,0.0,0.0,0.0,0.0,0.0,0.0,0.0,0.0,0.0,0.0,-5.3102,-5.446,-5.4494,-5.5123,-5.562,-5.5587,-5.4427,-5.4229,-5.6316,-5.6051,-5.562,0.0,0.0,0.0,0.0,0.0,0.0,0.0,0.0,0.0,0.0,0.0,0.0,0.0,0.0,0.0,0.0,0.0,0.0,0.0,0.0,0.0,0.0,0.0,0.0,0.0,0.0,0.0,-3.3084,-3.3319,0.0,0.0,0.0,0.0,0.0,0.0,0.0,0.0,0.0,0.0,0.0,-3.6556,-3.73,0.0,0.0,0.0,0.0,0.0,0.0,0.0,0.0,0.0,0.0,0.0,0.0,-4.172,-4.2009,-4.3396,-4.4442,-4.4792,-4.4734,-4.4967,-4.5493,-4.5345,-4.4443,-4.2815,0.0,0.0,0.0,0.0,0.0,0.0,0.0,0.0,0.0,0.0,0.0,0.0,0.0,0.0,0.0,0.0,0.0,0.0,0.0,0.0,0.0,0.0,0.0,0.0,0.0,-4.4484,0.0,0.0,0.0,0.0,0.0,0.0,0.0,0.0,0.0,0.0,0.0,-5.0752,-5.1671,-5.3231,-5.4378,-5.4452,-5.5554,-5.6349,0.0,0.0,0.0,0.0,0.0,0.0,0.0,0.0,0.0,0.0,0.0,0.0,0.0,0.0,-6.1122,-5.7553,-5.6635,-5.6469,-5.6392,0.0,0.0,0.0,0.0,0.0,0.0,0.0,0.0,0.0,0.0,0.0,0.0,0.0,0.0,-3.3736,0.0,-3.4005,0.0,0.0,0.0,0.0,0.0,0.0,0.0,0.0,-3.5209,-3.6018,-3.6895,-3.7801,-3.8809,0.0,-4.0284,-4.004,0.0,0.0,0.0,0.0,0.0,0.0,0.0,0.0,-4.205,-4.2308,-4.3632,-4.4556,-4.4931,-4.5049,-4.5341,-4.5776,-4.5663,-4.4937,-4.3689,-4.3079,-4.2237,0.0,0.0,0.0,0.0,0.0,0.0,0.0,0.0,0.0,0.0,0.0,0.0,0.0,0.0,0.0,0.0,0.0,0.0,0.0,0.0,0.0,0.0,0.0,-4.5516,0.0,0.0,0.0,0.0,0.0,0.0,0.0,0.0,0.0,-4.9742,-5.088,-5.1941,-5.267,-5.4043,-5.5061,-5.5256,0.0,0.0,0.0,0.0,0.0,0.0,0.0,-5.7011,-5.7707,-5.7906,-5.8038,-5.8502,-6.027,-6.158,-6.1232,0.0,0.0,-5.9564,-5.8719,-5.8441,-5.8362,-5.884,-5.9385,-5.9851,-6.0424,-6.0851,0.0,0.0,0.0,0.0,0.0,0.0,0.0,0.0,-3.3703,-3.4064,0.0,-3.4268,0.0,0.0,0.0,0.0,0.0,-3.4935,0.0,0.0,-3.6157,-3.7253,-3.847,-3.871,-3.9774,-4.1608,-4.124,-4.1242,-4.1527,-3.9873,0.0,0.0,0.0,0.0,0.0,0.0,-4.2681,-4.3281,-4.4481,-4.511,-4.511,-4.5293,-4.5504,-4.5504,-4.5196,-4.4908,-4.485,-4.4298,-4.3689,-4.305,-4.244,0.0,0.0,0.0,0.0,0.0,0.0,0.0,0.0,0.0,0.0,0.0,0.0,0.0,0.0,0.0,0.0,0.0,0.0,0.0,0.0,-4.5885,0.0,0.0,0.0,0.0,0.0,0.0,0.0,0.0,0.0,0.0,-5.0644,-5.2346,-5.377,-5.4185,0.0,0.0,0.0,0.0,-5.6945,-5.7674,-5.721,-5.7243,-5.8634,-5.8866,-5.9131,-5.9893,0.0,0.0,-6.2179,-6.2808,-6.3126,-6.2378,-6.296,-6.3363,-6.318,-6.2259,-6.1547,-6.1417,-6.1383,-6.145,-6.1517,-6.233,-6.268,-3.4555,0.0,0.0,0.0,0.0,-3.5112,-3.5041,-3.5308,-3.4919,-3.4942,-3.535,-3.4809,0.0,0.0,0.0,0.0,0.0,0.0,-3.6263,-3.6734,-3.748,-3.7931,-3.8252,-3.9317,-4.0394,-4.1116,-4.1516,-4.2004,-4.2571,-4.1522,-4.0765,-4.0294,0.0,0.0,0.0,0.0,-4.347,-4.3698,-4.4619,-4.511,-4.511,-4.523,-4.5321,-4.5504,-4.5602,-4.5372,-4.4908,-4.4734,-4.424,-4.3459,-4.3458,0.0,0.0,0.0,0.0,0.0,0.0,0.0,0.0,0.0,0.0,0.0,0.0,0.0,0.0,0.0,0.0,0.0,0.0,0.0,-4.4654,-4.5885,-4.6808,0.0,0.0,0.0,0.0,0.0,0.0,0.0,0.0,0.0,-5.3221,-5.3772,-5.424,0.0,0.0,-5.6047,-5.5754,-5.6272,-5.6945,-5.7707,-5.7608,0.0,0.0,-5.8899,-5.933,-6.0589,-6.1998,-6.296,-6.2941,-6.3723,-6.4241,-6.4029,-6.4734,-6.5087,-6.4352,-6.3482,-6.2813,-6.2813,-6.2898,-6.3149,-6.3615,-6.4085,-6.4488,-3.544,-3.5991,-3.593,-3.59,-3.6057,-3.5949,-3.603,-3.6106,-3.5791,-3.5866,-3.6234,-3.5722,-3.5454,-3.5332,-3.4798,0.0,0.0,0.0,-3.702,-3.7642,-3.8165,-3.8467,-3.8693,-4.003,-4.0844,-4.1207,-4.1708,-4.2412,-4.3328,-4.2671,-4.212,-4.173,0.0,0.0,-4.2402,-4.3448,-4.4132,-4.4386,-4.5194,-4.56,-4.56,-4.5694,-4.5767,-4.5878,-4.597,-4.5863,-4.5314,-4.5285,-4.5022,-4.4409,-4.4326,-4.3893,0.0,0.0,0.0,0.0,0.0,0.0,0.0,0.0,0.0,0.0,0.0,-4.1475,0.0,0.0,0.0,0.0,-4.3873,-4.4849,-4.5723,-4.6678,0.0,0.0,0.0,0.0,0.0,0.0,0.0,-5.1556,-5.2851,-5.392,-5.4341,-5.4891,-5.5199,-5.518,-5.5665,-5.6001,-5.5776,0.0,-5.7376,-5.8138,-5.8502,-5.8933,-5.9661,-5.9794,-6.0258,-6.1715,-6.3192,-6.4088,-6.41,-6.4652,-6.5005,-6.5005,-6.5447,-6.5613,-6.5093,-6.4486,-6.4001,-6.3736,-6.3876,-6.4281,-6.498,-6.5287,-6.5593,-3.6175,-3.6095,-3.5908,-3.578,-3.5812,-3.6326,-3.6507,-3.6459,-3.6483,-3.6747,-3.7156,-3.6627,-3.6411,-3.6362,-3.5905,0.0,-3.6889,-3.6889,-3.7461,-3.8488,-3.8512,-3.8938,-3.9772,-4.0613,-4.1205,-4.1776,-4.1952,-4.2604,-4.3645,-4.3466,-4.3328,-4.3245,-4.3046,-4.3104,-4.3582,-4.4172,-4.479,-4.5408,-4.597,-4.6279,-4.6279,-4.6474,-4.6519,-4.6361,-4.6332,-4.6258,-4.5924,-4.5866,-4.5776,-4.5475,-4.4957,-4.4352,-4.3718,0.0,0.0,0.0,0.0,0.0,0.0,0.0,0.0,0.0,0.0,0.0,0.0,0.0,0.0,0.0,-4.6034,0.0,-4.7412,-4.784,0.0,0.0,0.0,-4.9684,-5.0186,-5.1394,-5.2236,-5.2365,0.0,0.0,-5.447,-5.5668,-5.6334,-5.5961,-5.6057,-5.6329,-5.6566,-5.7285,-5.8138,-5.8866,-5.9529,-6.0291,-6.0953,-6.1285,-6.1848,-6.3107,-6.4531,-6.5293,-6.5326,-6.5359,-6.5392,-6.5359,-6.5425,-6.5392,-6.5425,-6.5392,-6.5293,-6.4531,-6.4573,-6.5014,-6.5813,-6.6001,-6.6142,-3.6155,-3.6822,-3.7356,-3.7278,-3.6767,-3.7109,-3.7082,-3.6749,-3.6725,-3.6876,-3.7156,-3.6627,-3.6411,-3.6411,-3.6266,-3.6609,-3.7424,-3.7424,-3.7922,-3.8748,-3.9377,-3.986,-4.0009,-4.1064,-4.1651,-4.2055,-4.2123,-4.26,-4.336,-4.3774,-4.4138,-4.4502,-4.5135,-4.4987,-4.4256,-4.479,-4.5436,-4.6055,-4.6223,-4.6307,-4.6279,-4.6446,-4.6328,-4.5921,-4.6081,-4.5981,-4.5623,-4.5595,-4.5595,-4.5504,-4.5541,-4.5194,-4.4381,-4.3314,0.0,0.0,0.0,0.0,0.0,0.0,0.0,0.0,0.0,-4.324,-4.1829,0.0,-4.5511,0.0,-4.6937,-4.785,-4.7775,-4.7977,0.0,0.0,-4.9448,-5.0037,-5.1512,-5.2009,-5.2624,-5.3758,-5.4179,-5.46,-5.5118,-5.5928,-5.6446,-5.6366,-5.7119,-5.7691,-5.7806,-5.8261,-5.8899,-5.9562,-5.9893,-6.0456,-6.1715,-6.2908,-6.367,-6.4067,-6.4862,-6.5392,-6.5425,-6.5425,-6.5425,-6.5425,-6.5425,-6.5425,-6.5425,-6.5856,-6.5955,-6.5326,-6.516,-6.5647,-6.6908,-6.6742,-6.6566,-3.6431,-3.6796,-3.809,-3.799,-3.7037,-3.7604,-3.7655,-3.7501,-3.7027,-3.7144,-3.7331,-3.7044,-3.6924,-3.6924,-3.7028,-3.738,-3.775,-3.775,-3.8129,-3.8631,-3.916,-3.9618,-4.0103,-4.0946,-4.1605,-4.2133,-4.241,-4.2754,-4.331,-4.3861,-4.43,-4.5044,-4.5603,-4.5762,-4.5689,-4.5998,-4.6476,-4.7094,-4.7122,-4.7122,-4.7122,-4.7193,-4.6869,-4.6158,-4.632,-4.6175,-4.535,-4.5595,-4.5595,-4.5321,-4.5335,-4.5107,-4.4671,-4.3806,-4.3342,0.0,0.0,0.0,0.0,0.0,0.0,0.0,0.0,0.0,0.0,0.0,-4.6593,-4.6747,-4.7833,-4.8472,-4.8624,-4.8802,-4.9228,-5.0025,-5.0314,-5.0871,-5.1985,-5.2708,-5.3499,-5.4308,-5.4665,-5.4988,-5.5377,-5.6349,-5.6964,-5.6996,-5.8209,-5.8852,-5.8379,-5.8888,-5.9529,-5.9926,-6.0258,-6.0854,-6.2013,-6.3405,-6.4365,-6.4432,-6.4962,-6.5425,-6.5425,-6.5425,-6.5425,-6.5425,-6.5425,-6.5425,-6.5425,-6.5724,-6.5955,-6.5955,-6.5624,-6.5856,-6.6883,-6.6817,-6.6808,-3.6727,-3.6652,-3.8213,-3.8298,-3.7333,-3.7799,-3.7989,-3.8105,-3.7331,-3.7251,-3.7596,-3.7596,-3.7596,-3.7596,-3.7892,-3.7974,-3.7974,-3.7974,-3.8104,-3.8315,-3.8567,-3.9071,-4.0096,-4.0715,-4.1454,-4.2258,-4.2735,-4.3098,-4.3381,-4.3661,-4.4282,-4.5096,-4.543,-4.6162,-4.7319,-4.7403,-4.7656,-4.8106,-4.8134,-4.8134,-4.8134,-4.8134,-4.7616,-4.6627,-4.6736,-4.6358,-4.5195,-4.5595,-4.5595,-4.5201,-4.4895,-4.4787,-4.4758,-4.4181,-4.3834,0.0,-4.4037,0.0,0.0,0.0,0.0,0.0,0.0,0.0,0.0,-4.6454,-4.8035,-4.8004,-4.8636,-4.917,-4.9521,-4.985,-5.0295,-5.0871,-5.1481,-5.1931,-5.2216,-5.3549,-5.4438,-5.4503,-5.5053,-5.5409,-5.5442,-5.6672,-5.7547,-5.7729,-5.897,-5.9651,-5.8871,-5.9433,-6.0076,-6.0158,-6.0854,-6.1715,-6.2378,-6.3603,-6.4531,-6.4597,-6.5028,-6.5392,-6.5425,-6.5425,-6.5425,-6.5425,-6.5425,-6.5425,-6.5425,-6.5492,-6.5757,-6.6187,-6.5989,-6.6145,-6.6841,-6.6941,-6.7188,-3.7037,-3.7465,-3.8253,-3.8687,-3.8849,-3.8574,-3.7901,-3.6936,-3.6843,-3.6928,-3.7251,-3.7489,-3.7596,-3.7596,-3.7892,-3.7974,-3.7974,-3.7974,-3.7974,-3.8128,-3.9188,-3.9867,-4.0123,-4.1324,-4.2065,-4.2476,-4.2575,-4.2737,-4.3098,-4.383,-4.4621,-4.5475,-4.6234,-4.6984,-4.7864,0.0,0.0,0.0,-4.8134,-4.8134,-4.8134,-4.8134,-4.7544,-4.6433,-4.6377,0.0,-4.5195,-4.523,-4.5413,-4.5685,-4.566,0.0,0.0,0.0,0.0,0.0,0.0,0.0,0.0,0.0,0.0,0.0,-4.5251,-4.5455,-4.5324,-4.726,-4.8544,-4.8731,-4.9331,-4.9742,-4.9821,-5.0612,-5.1184,-5.1421,-5.2187,-5.3021,-5.3808,-5.4244,-5.46,-5.515,-5.5345,-5.5409,-5.5539,-5.6672,-5.7547,-5.7676,-5.9068,-5.9957,-5.9984,-6.0271,-6.0604,-6.0903,-6.1947,-6.2842,-6.304,-6.4266,-6.516,-6.526,-6.5293,-6.5425,-6.5425,-6.5425,-6.5425,-6.5425,-6.5425,-6.5425,-6.5425,-6.5889,-6.6088,-6.5724,-6.66,-6.7687,-6.8386,-6.8053,-6.8235,-3.6705,0.0,-3.8006,-3.842,0.0,-3.8407,-3.7976,-3.7234,-3.698,-3.6974,-3.7302,-3.802,-3.8238,-3.7976,-3.8299,-3.8407,-3.8383,-3.8383,-3.8527,-3.8815,-3.9454,-4.0037,-4.0415,-4.1086,-4.1963,-4.2935,-4.2935,-4.3312,-4.4017,-4.4469,-4.507,-4.6008,-4.6437,-4.7042,-4.7829,-4.8313,-4.8724,-4.9033,-4.9033,-4.8893,-4.8583,-4.8583,-4.7993,-4.6813,0.0,0.0,0.0,0.0,0.0,0.0,0.0,0.0,0.0,0.0,0.0,-4.5343,-4.5111,-4.4792,-4.4472,-4.4734,-4.5084,-4.5375,-4.6622,-4.7476,-4.7719,-4.8701,-4.96,-5.0374,-5.0753,-5.0943,-5.1055,-5.1533,-5.1917,-5.2157,-5.3005,-5.3745,-5.418,-5.4616,-5.5021,-5.5345,-5.5409,-5.5539,-5.5928,-5.6867,-5.7676,-5.8097,-5.9091,-6.0066,-6.0292,-6.0548,-6.0901,-6.1583,-6.2842,-6.3769,-6.3868,-6.4664,-6.5392,-6.5425,-6.5425,-6.5425,-6.5425,-6.5425,-6.5425,-6.5425,-6.5425,-6.5425,-6.5425,-6.5724,-6.5856,-6.5624,-6.65,-6.7735,-6.856,-6.8727,-6.9209,-3.6012,-3.6979,-3.7655,-3.7876,-3.7812,-3.8146,-3.8159,-3.7885,0.0,0.0,0.0,-3.8618,-3.8904,-3.8523,-3.8742,-3.896,-3.896,-3.896,-3.92,-3.9609,-3.9705,-4.0081,-4.0692,-4.0789,-4.1712,-4.3243,-4.3268,-4.3886,-4.4965,-4.4965,-4.5423,-4.6236,-4.6293,-4.684,-4.7993,-4.8406,-4.9174,-5.0213,-4.9848,-4.9398,-4.8893,-4.8864,-4.8359,-4.7235,-4.6897,-4.6333,-4.5616,-4.5645,-4.5608,-4.5373,-4.5248,-4.5488,-4.5982,-4.5518,-4.5518,-4.6156,-4.6127,-4.5808,-4.5285,-4.5634,-4.599,-4.6043,-4.7775,-4.9078,-4.9694,-4.9963,-5.0563,-5.1733,-5.1954,-5.2099,-5.2263,-5.2554,-5.2699,-5.2973,-5.3745,-5.4325,-5.4358,-5.4972,-5.5377,-5.5409,-5.5409,-5.5701,-5.6381,-5.7093,-5.7838,-5.8551,-5.9231,-5.9892,-6.0292,-6.0633,-6.1084,-6.1815,-6.2842,-6.3868,-6.4167,-6.4697,-6.5227,-6.5392,-6.5425,-6.5425,-6.5425,-6.5425,-6.5425,-6.5425,-6.5425,-6.5425,-6.5425,-6.5459,-6.5459,-6.568,-6.649,-6.7491,-6.8372,-6.9189,-7.0097,-3.587,-3.7124,-3.7254,-3.7708,-3.8358,-3.8625,-3.8661,-3.8436,-3.7907,-3.7678,-3.7791,-3.8424,-3.876,-3.8689,-3.9268,-3.9489,-3.9489,-3.9489,-3.9537,0.0,-4.0066,-4.0331,-4.054,-4.0974,-4.1735,-4.2872,-4.3012,-4.354,-4.4568,-4.4644,-4.5145,-4.5866,-4.5953,-4.7033,-4.9118,-5.0039,-5.0831,-5.145,-4.9454,-4.8331,-4.8246,-4.8246,-4.7937,-4.7263,-4.7122,-4.6884,-4.6429,-4.6671,-4.6575,-4.6246,-4.6408,-4.6592,-4.6679,-4.6592,-4.6853,-4.7404,-4.6998,-4.665,-4.6534,-4.6127,-4.6195,-4.6725,-4.7698,-4.8553,-4.9017,-5.0153,-5.0911,-5.1164,-5.1701,-5.2099,-5.2377,-5.3082,-5.3565,-5.3873,-5.4697,-5.5198,-5.5134,-5.5312,-5.5409,-5.5409,-5.5409,-5.5701,-5.6478,-5.7158,-5.7903,-5.8583,-5.9295,-5.9892,-6.0325,-6.075,-6.1035,-6.1318,-6.1947,-6.2676,-6.3405,-6.4067,-6.473,-6.5326,-6.5392,-6.5425,-6.5425,-6.5425,-6.5425,-6.5425,-6.5425,-6.5425,-6.5425,-6.5425,-6.5747,-6.6423,-6.7335,-6.8339,-6.9312,-7.006,-7.0924,-3.5284,-3.6725,-3.6887,-3.755,-3.8653,-3.9507,-3.9716,-3.9377,-3.9124,-3.8827,-3.8596,-3.9171,-3.9467,-3.932,-3.9658,-3.9906,-4.0018,-4.0042,-4.0186,-4.0499,-4.1004,-4.1244,-4.1293,-4.1798,-4.2538,-4.3497,-4.3639,-4.4289,-4.5141,-4.5429,-4.5725,-4.6091,-4.6578,-4.7558,-4.8791,-4.9713,-5.0416,-5.0775,-5.0354,-4.996,-4.9623,-4.9286,-4.8836,-4.8218,-4.7572,-4.7094,-4.6982,-4.6809,-4.6757,-4.6756,-4.6973,-4.716,-4.7346,-4.7346,-4.7491,-4.7753,-4.7521,-4.7346,-4.7346,-4.7102,-4.6933,-4.6991,-4.8022,-4.8736,-4.8854,-5.0285,-5.1454,-5.208,-5.2428,-5.2776,-5.3291,-5.3943,-5.4301,-5.4498,-5.5002,-5.5409,-5.5409,-5.5409,-5.5409,-5.5442,-5.5766,-5.6284,-5.6996,-5.7709,-5.8421,-5.9101,-5.9642,-6.0066,-6.0378,-6.0633,-6.1084,-6.1649,-6.2312,-6.2842,-6.3239,-6.3868,-6.4432,-6.4796,-6.5194,-6.5359,-6.5425,-6.5425,-6.5425,-6.5425,-6.5425,-6.5425,-6.5425,-6.5425,-6.5846,-6.6746,-6.7748,-6.8663,-6.957,-7.075,-7.1747,-3.4906,-3.6638,-3.6814,-3.7763,-3.9045,-4.0185,-4.0403,-4.0066,-4.0043,-3.9656,-3.9175,-3.9826,-4.0011,-3.9888,-3.9978,-4.0206,-4.0458,-4.0571,-4.0787,-4.1196,-4.1605,-4.1846,-4.2014,-4.2399,-4.3143,-4.3941,-4.435,-4.4886,-4.5768,-4.618,-4.639,-4.6627,-4.7547,-4.8235,-4.8568,-4.9444,-5.0062,-5.0438,-5.1309,-5.1421,-5.0691,-5.0213,-4.9679,-4.9033,-4.8134,-4.7572,-4.7403,-4.7123,-4.7076,-4.7224,-4.7415,-4.773,-4.7985,-4.7985,-4.8072,-4.8159,-4.8072,-4.7927,-4.7846,-4.775,-4.7524,-4.6963,-4.8471,-4.9194,-4.8903,-5.0412,-5.1862,-5.2723,-5.2965,-5.3344,-5.4052,-5.4497,-5.4813,-5.4896,-5.5164,-5.5409,-5.5409,-5.5409,-5.5409,-5.5474,-5.6057,-5.6737,-5.7482,-5.8194,-5.8874,-5.949,-5.9979,-6.0239,-6.0378,-6.0633,-6.115,-6.173,-6.2444,-6.2742,-6.2974,-6.3405,-6.3835,-6.4067,-6.4674,-6.4972,-6.516,-6.526,-6.5425,-6.5425,-6.5425,-6.5425,-6.5425,-6.5425,-6.5913,-6.7068,-6.7915,-6.8752,-7.008,-7.1456,-7.2375,-3.5426,-3.7184,-3.7253,-3.8317,-3.9735,-4.0208,-4.0304,-4.0135,-4.0066,-3.9744,-3.9403,-3.9661,-3.9779,-3.9849,-4.0408,-4.0616,-4.0639,-4.0985,-4.1124,-4.1172,-4.1244,-4.1509,-4.199,-4.2062,-4.2804,-4.3916,-4.4375,-4.4935,-4.5842,-4.623,-4.6552,-4.7172,-4.8536,-4.9372,-4.9836,-5.0627,-5.1291,-5.1618,-5.1731,-5.1225,-5.0129,-4.9988,-4.9651,-4.9061,-4.8949,-4.8612,-4.8021,-4.8267,-4.8127,-4.7909,-4.8046,-4.8336,-4.8528,-4.8653,-4.8885,-4.9407,-4.8943,-4.8391,-4.7869,-4.7817,-4.7497,-4.7095,-4.88,-4.9523,-4.8353,-5.0592,-5.2175,-5.2345,-5.2744,-5.3461,-5.4232,-5.4613,-5.4896,-5.5031,-5.5246,-5.5409,-5.5409,-5.5409,-5.5409,-5.5409,-5.6122,-5.677,-5.7579,-5.8292,-5.8939,-5.9619,-6.0066,-6.0292,-6.0378,-6.075,-6.1035,-6.1218,-6.1351,-6.1649,-6.2113,-6.2312,-6.2775,-6.3305,-6.3958,-6.4354,-6.4476,-6.4929,-6.5392,-6.5227,-6.5425,-6.5425,-6.5425,-6.5459,-6.6068,-6.7424,-6.8294,-6.9052,-7.0772,-7.2035,-7.2507,-3.4351,-3.6143,-3.6534,-3.8125,-4.0159,-4.0932,-4.1171,-4.0938,-4.064,-4.0226,-3.9744,-3.9564,-3.9567,-3.9802,-4.0246,-4.0479,-4.0735,-4.1081,-4.1196,-4.1244,-4.1798,-4.223,-4.2471,-4.312,-4.3625,-4.4207,-4.4744,-4.5379,-4.5995,-4.6834,-4.7352,-4.7739,-4.8651,-4.9323,-4.9676,-5.0569,-5.1266,-5.1596,-5.1677,-5.1534,-5.1056,-5.0691,-5.0213,-4.9623,-4.923,-4.8752,-4.819,-4.8207,-4.8296,-4.8311,-4.8481,-4.8804,-4.9029,-4.9194,-4.9407,-4.964,-4.9436,-4.9001,-4.8391,-4.8333,-4.8072,-4.7433,-4.9123,-4.9824,-4.927,-5.1086,-5.2394,-5.266,-5.2934,-5.3376,-5.4147,-5.4528,-5.4813,-5.4948,-5.5196,-5.5409,-5.5409,-5.5409,-5.5539,-5.5992,-5.6705,-5.7385,-5.8097,-5.881,-5.936,-5.9684,-5.9979,-6.0239,-6.0378,-6.0633,-6.0919,-6.1035,-6.1119,-6.1218,-6.155,-6.1947,-6.2278,-6.2643,-6.3219,-6.3682,-6.3835,-6.4299,-6.4796,-6.4796,-6.5127,-6.5359,-6.5425,-6.5459,-6.5969,-6.7413,-6.9228,-7.0327,-7.1847,-7.2562,-7.309,-3.3969,-3.5741,-3.6804,-3.8358,-4.0248,-4.1113,-4.1228,-4.1044,-4.0778,-4.0318,-3.9836,-3.9469,-3.9426,-3.9684,-4.0013,-4.0246,-4.0619,-4.1109,-4.1273,-4.1509,-4.2351,-4.2832,-4.3024,-4.3721,-4.4202,-4.447,-4.511,-4.5921,-4.6563,-4.7633,-4.8255,-4.8384,-4.8911,-4.9455,-4.9825,-5.0569,-5.1017,-5.1376,-5.1706,-5.1787,-5.1702,-5.1365,-5.0831,-5.0241,-4.9595,-4.9005,-4.8415,-4.8218,-4.8207,-4.8481,-4.881,-4.9009,-4.9305,-4.9774,-4.9959,-4.993,-4.9756,-4.9494,-4.9001,-4.9001,-4.8711,-4.8283,-4.9444,-5.0275,-5.0241,-5.1493,-5.259,-5.3007,-5.3281,-5.3629,-5.4008,-5.4444,-5.4697,-5.4813,-5.5113,-5.5328,-5.5409,-5.5409,-5.5701,-5.6413,-5.7061,-5.7935,-5.8777,-5.936,-5.9684,-5.9716,-5.9892,-6.0152,-6.0378,-6.0548,-6.0802,-6.1035,-6.1119,-6.1119,-6.1152,-6.1483,-6.1848,-6.2047,-6.251,-6.2974,-6.304,-6.3603,-6.4067,-6.4133,-6.473,-6.5061,-6.5061,-6.5249,-6.6013,-6.7309,-6.9015,-7.0789,-7.203,-7.2671,-7.3171,-3.479,-3.7322,-3.8633,-3.9236,-3.9508,-4.0175,-4.0127,-3.9931,-4.0014,-3.9836,-3.9446,-3.9331,-3.9308,-3.9308,-3.9684,-4.0013,-4.0293,-4.1069,-4.1612,-4.1894,-4.2471,-4.3024,-4.3457,-4.3529,-4.3842,-4.4347,-4.5353,-4.6489,-4.7708,-4.841,-4.8812,-4.8897,-4.9456,-4.989,-5.0309,-5.0706,-5.1045,-5.1376,-5.1706,-5.1787,-5.1787,-5.1759,-5.1421,-5.0831,-5.0241,-4.9623,-4.9033,-4.8443,-4.8263,-4.8509,-4.8895,-4.9066,-4.9392,-5.0208,-5.0627,-5.054,-5.0046,-4.9669,-4.9611,-4.9582,-4.932,-4.8981,-4.997,-5.0508,-5.0154,-5.1748,-5.2885,-5.3102,-5.3575,-5.404,-5.4071,-5.4327,-5.4528,-5.4781,-5.4948,-5.5196,-5.5409,-5.5409,-5.5766,-5.6413,-5.7191,-5.8162,-5.9425,-5.9684,-5.9716,-5.9716,-5.9979,-6.0152,-6.0378,-6.0548,-6.0835,-6.1002,-6.1119,-6.1119,-6.1119,-6.1251,-6.1251,-6.1384,-6.1848,-6.2212,-6.2477,-6.2742,-6.3107,-6.3471,-6.4034,-6.4365,-6.4619,-6.5313,-6.6363,-6.7588,-6.8744,-7.034,-7.1559,-7.2024,-7.2589,-3.4289,-3.6753,-3.821,-3.8995,-3.9463,-3.9814,-3.9972,-4.0014,-4.006,-3.9951,-3.9744,-3.9446,-3.9308,-3.9308,-3.9426,-3.9779,-4.0246,-4.0925,-4.1345,-4.1557,-4.2351,-4.2856,-4.3072,-4.3697,-4.413,-4.4347,-4.4887,-4.6068,-4.7533,-4.8233,-4.8862,-4.9367,-4.9655,-4.9904,-5.0243,-5.0682,-5.1017,-5.1128,-5.1568,-5.1787,-5.1787,-5.1787,-5.1674,-5.145,-5.0859,-5.0241,-4.9651,-4.9398,-4.939,-4.9493,-4.9905,-5.0138,-5.0341,-5.0948,-5.1091,-5.0714,-5.0452,-5.0133,-4.9756,-4.9698,-4.9582,-4.9504,-5.0199,-5.0738,-5.0846,-5.2001,-5.2989,-5.3128,-5.3656,-5.4103,-5.4189,-5.4242,-5.4497,-5.4781,-5.4948,-5.5228,-5.5328,-5.5409,-5.5701,-5.6478,-5.7482,-5.8648,-5.9393,-5.9716,-5.9716,-5.9716,-5.9892,-6.0152,-6.0378,-6.0548,-6.0802,-6.1002,-6.1119,-6.1119,-6.1119,-6.1119,-6.1119,-6.1152,-6.1384,-6.1483,-6.1682,-6.2146,-6.251,-6.2676,-6.3206,-6.3989,-6.4254,-6.5413,-6.6604,-6.764,-6.8761,-6.9838,-7.0799,-7.1628,-7.2329,-3.4645,-3.584,-3.7424,-3.8412,-3.875,-3.9098,-3.9344,-3.9665,-3.9711,-3.9671,-3.9744,-3.9446,-3.9308,-3.9308,-3.9426,-3.9779,-4.0246,-4.0877,-4.1205,-4.1509,-4.2351,-4.276,-4.2904,-4.3673,-4.4082,-4.4154,-4.4839,-4.5944,-4.7282,-4.7979,-4.8736,-4.9274,-4.9672,-4.9917,-5.0086,-5.046,-5.0795,-5.1017,-5.1486,-5.1677,-5.1787,-5.1787,-5.1787,-5.1731,-5.1365,-5.0888,-5.0297,-5.0073,-4.996,-5.0065,-5.0379,-5.0805,-5.1156,-5.1424,-5.1527,-5.1294,-5.0888,-5.0481,-5.0046,-4.9785,-4.9698,-4.9669,-5.0154,-5.0537,-5.0793,-5.1911,-5.2729,-5.333,-5.3734,-5.4198,-5.4609,-5.4749,-5.4762,-5.5048,-5.5301,-5.5435,-5.5683,-5.5766,-5.6122,-5.6899,-5.813,-5.9101,-5.9587,-5.9684,-5.9716,-5.9716,-5.9892,-6.0066,-6.0378,-6.0548,-6.0717,-6.1002,-6.1119,-6.1119,-6.1119,-6.1119,-6.1119,-6.1152,-6.1152,-6.1119,-6.1185,-6.1616,-6.1881,-6.198,-6.2595,-6.3391,-6.4428,-6.5621,-6.6671,-6.7708,-6.8656,-6.9739,-7.0625,-7.1403,-7.2205,-3.5718,-3.4919,-3.6646,-3.7549,-3.7648,-3.789,-3.8185,-3.8612,-3.8761,-3.9117,-3.9377,-3.9308,-3.9331,-3.9354,-3.9659,-3.9966,-4.0458,-4.0952,-4.1424,-4.1894,-4.2423,-4.2711,-4.2808,-4.3337,-4.3649,-4.3721,-4.496,-4.6088,-4.6981,-4.7728,-4.8284,-4.8652,-4.9421,-4.9825,-5.0037,-5.0317,-5.0599,-5.0906,-5.1266,-5.1596,-5.1787,-5.1787,-5.1787,-5.1787,-5.1731,-5.145,-5.0888,-5.0354,-5.0129,-5.0178,-5.0416,-5.1033,-5.188,-5.1873,-5.1933,-5.2194,-5.1381,-5.0801,-5.0598,-5.0104,-4.9901,-4.9814,-4.9853,-5.0291,-5.0899,-5.169,-5.2673,-5.3495,-5.4116,-5.4672,-5.562,-5.5462,-5.5257,-5.5719,-5.5677,-5.5846,-5.6247,-5.6478,-5.677,-5.7482,-5.8583,-5.9555,-5.9716,-5.9716,-5.9716,-5.9716,-5.9716,-5.9892,-6.0292,-6.041,-6.0633,-6.0919,-6.1119,-6.1119,-6.1119,-6.1119,-6.1119,-6.1119,-6.1119,-6.1119,-6.1119,-6.1384,-6.1417,-6.155,-6.2345,-6.3226,-6.4667,-6.5895,-6.7214,-6.8183,-6.8974,-6.9601,-7.0313,-7.1116,-7.2022,-3.5616,-3.5517,-3.7138,-3.768,-3.7517,-3.7758,-3.8118,-3.838,-3.8693,-3.9049,-3.9308,-3.9308,-3.9492,-3.9767,-3.9956,-4.0499,-4.1328,-4.1469,-4.1543,-4.1513,-4.199,-4.2447,-4.2808,-4.3265,-4.3721,-4.4082,-4.4543,-4.5227,-4.6137,-4.7055,-4.7708,-4.8498,-4.9404,-4.9838,-4.989,-5.0254,-5.0599,-5.0906,-5.1266,-5.1514,-5.1787,-5.1787,-5.1787,-5.1787,-5.1787,-5.1674,-5.1506,-5.1309,-5.1225,-5.1197,-5.144,-5.1953,-5.2598,-5.2827,-5.2804,-5.2572,-5.2223,-5.1527,-5.083,-5.0859,-5.0743,-5.054,-5.0714,-5.1075,-5.1403,-5.2479,-5.3216,-5.3561,-5.4598,-5.5689,-5.5525,-5.5746,-5.5796,-5.5611,-5.5719,-5.5922,-5.626,-5.6427,-5.6834,-5.745,-5.7968,-5.8615,-5.9425,-5.9684,-5.9652,-5.9684,-5.9684,-5.9804,-6.0152,-6.0325,-6.0463,-6.0717,-6.0919,-6.1119,-6.1119,-6.1119,-6.1119,-6.1119,-6.1119,-6.1119,-6.1119,-6.1119,-6.1119,-6.1384,-6.2146,-6.3212,-6.4686,-6.6201,-6.7468,-6.8522,-6.9236,-6.9735,-7.0073,-7.0749,-7.156,-3.5619,-3.5476,-3.7095,-3.7658,-3.7396,-3.7616,-3.7998,-3.838,-3.8596,-3.8953,-3.919,-3.9308,-3.9469,-3.9744,-3.9767,-4.031,-4.121,-4.1234,-4.1235,-4.1273,-4.1966,-4.2447,-4.2808,-4.3289,-4.3818,-4.4251,-4.4347,-4.4763,-4.5699,-4.6588,-4.7506,-4.8428,-4.9453,-4.9837,-4.989,-5.0227,-5.0487,-5.0906,-5.1155,-5.1348,-5.1677,-5.1787,-5.1787,-5.1787,-5.1787,-5.1787,-5.1787,-5.1787,-5.1787,-5.1896,-5.2141,-5.2573,-5.2894,-5.329,-5.3326,-5.2978,-5.263,-5.2078,-5.1207,-5.112,-5.112,-5.083,-5.1033,-5.1381,-5.1728,-5.3,-5.3633,-5.3584,-5.4974,-5.6157,-5.6031,-5.6088,-5.6144,-5.5939,-5.608,-5.6263,-5.6356,-5.6427,-5.664,-5.7093,-5.745,-5.8032,-5.8626,-5.9231,-5.924,-5.9337,-5.9499,-5.9892,-6.0152,-6.0292,-6.0548,-6.0717,-6.1002,-6.1119,-6.1119,-6.1119,-6.1119,-6.1119,-6.1119,-6.1119,-6.1119,-6.1119,-6.1119,-6.1351,-6.1947,-6.2931,-6.4252,-6.6129,-6.7598,-6.8504,-6.9509,-7.001,-7.0372,-7.0314,-7.0979,-3.556,-3.519,-3.6646,-3.7396,-3.7374,-3.7374,-3.7758,-3.838,-3.838,-3.8716,-3.919,-3.9308,-3.9354,-3.9377,-3.9515,-3.9939,-4.027,-4.0575,-4.0974,-4.1561,-4.223,-4.276,-4.2928,-4.3409,-4.3914,-4.4275,-4.4347,-4.4889,-4.5797,-4.6709,-4.7554,-4.859,-4.9402,-4.997,-4.9939,-5.0064,-5.0348,-5.0795,-5.0906,-5.1238,-5.1787,-5.1787,-5.1787,-5.1787,-5.1787,-5.1787,-5.1787,-5.1787,-5.1787,-5.1896,-5.2329,-5.268,-5.2787,-5.3213,-5.3471,-5.3413,-5.292,-5.2397,-5.173,-5.1468,-5.1062,-5.0888,-5.1004,-5.1075,-5.1829,-5.3109,-5.3929,-5.3861,-5.5246,-5.6366,-5.6752,-5.6683,-5.6479,-5.6503,-5.6454,-5.6573,-5.6459,-5.6413,-5.6575,-5.6672,-5.7093,-5.7676,-5.7829,-5.84,-5.8691,-5.8959,-5.9402,-5.9914,-6.0239,-6.0378,-6.0666,-6.0835,-6.1002,-6.1119,-6.1119,-6.1119,-6.1119,-6.1119,-6.1119,-6.1119,-6.1119,-6.1119,-6.1119,-6.1351,-6.1932,-6.2882,-6.4203,-6.6201,-6.7809,-6.8947,-6.9722,-7.0419,-7.0496,-7.0252,-7.0517,-3.5273,-3.5046,-3.6767,-3.7374,-3.7374,-3.7374,-3.7758,-3.838,-3.838,-3.8716,-3.919,-3.9308,-3.9492,-3.9836,-3.9836,-4.0426,-4.1067,-4.1304,-4.1757,-4.2375,-4.2567,-4.3,-4.3361,-4.3842,-4.4154,-4.4275,-4.4251,-4.4787,-4.5772,-4.6659,-4.7618,-4.8435,-4.9482,-4.9844,-4.9917,-4.9973,-5.0348,-5.0795,-5.0906,-5.1238,-5.1677,-5.1787,-5.1787,-5.1787,-5.1787,-5.1787,-5.1787,-5.1787,-5.1896,-5.2113,-5.2465,-5.2787,-5.3001,-5.3319,-5.35,-5.3471,-5.3355,-5.2978,-5.2514,-5.2514,-5.2281,-5.1527,-5.1643,-5.2209,-5.2387,-5.3288,-5.3892,-5.4204,-5.5317,-5.628,-5.6461,-5.6518,-5.6344,-5.6242,-5.6263,-5.6176,-5.5942,-5.6154,-5.6478,-5.651,-5.6672,-5.7191,-5.7818,-5.8335,-5.8658,-5.9143,-5.9642,-6.0066,-6.0239,-6.0463,-6.0717,-6.0835,-6.0919,-6.1002,-6.1119,-6.1119,-6.1119,-6.1119,-6.1119,-6.1119,-6.1119,-6.1119,-6.1119,-6.1185,-6.2248,-6.3149,-6.4909,-6.6812,-6.8061,-6.9125,-6.9865,-7.0326,-7.007,-6.9931,-7.0441,-3.5046,-3.5294,-3.6646,-3.7374,-3.7637,-3.7758,-3.8118,-3.8477,-3.8596,-3.8834,-3.919,-3.9308,-3.9469,-3.9721,-3.9744,-4.0144,-4.0901,-4.1044,-4.1354,-4.1899,-4.2303,-4.2687,-4.3144,-4.3577,-4.3697,-4.3673,-4.4038,-4.4913,-4.601,-4.6857,-4.788,-4.9022,-4.9621,-4.9925,-4.9986,-5.0,-5.0348,-5.0795,-5.0906,-5.1238,-5.1787,-5.1787,-5.1787,-5.1787,-5.1787,-5.1787,-5.1787,-5.1787,-5.1896,-5.2221,-5.2573,-5.2787,-5.3107,-5.3319,-5.35,-5.35,-5.35,-5.3239,-5.2775,-5.292,-5.263,-5.1904,-5.202,-5.231,-5.2763,-5.3414,-5.3946,-5.4083,-5.5335,-5.5875,-5.5827,-5.5978,-5.6061,-5.5854,-5.5892,-5.5698,-5.5442,-5.5766,-5.5992,-5.6025,-5.6089,-5.6284,-5.7288,-5.7806,-5.8303,-5.8842,-5.9534,-5.9903,-6.0239,-6.0548,-6.0717,-6.0835,-6.0919,-6.1035,-6.1119,-6.1119,-6.1119,-6.1119,-6.1152,-6.1152,-6.1218,-6.1218,-6.1368,-6.1717,-6.2565,-6.3701,-6.526,-6.6704,-6.7632,-6.8657,-6.9566,-6.9921,-6.9749,-6.9694,-7.0272,-3.4901,-3.5541,-3.6646,-3.7374,-3.7998,-3.8261,-3.8477,-3.8812,-3.8812,-3.893,-3.9308,-3.9308,-3.9331,-3.9308,-3.9518,-3.959,-3.9966,-4.0294,-4.0574,-4.1089,-4.1585,-4.211,-4.2495,-4.2832,-4.2928,-4.3072,-4.3757,-4.4836,-4.5994,-4.7042,-4.8338,-4.9301,-4.981,-4.9983,-5.0091,-5.015,-5.046,-5.0906,-5.1017,-5.1238,-5.1677,-5.1787,-5.1787,-5.1787,-5.1787,-5.1787,-5.1787,-5.1787,-5.1896,-5.2221,-5.2544,-5.2787,-5.3107,-5.3424,-5.353,-5.35,-5.35,-5.3268,-5.2833,-5.2775,-5.2426,-5.1817,-5.1715,-5.1971,-5.2613,-5.3224,-5.3772,-5.3982,-5.5209,-5.5493,-5.5257,-5.5516,-5.5633,-5.5486,-5.5392,-5.5442,-5.5409,-5.5409,-5.5409,-5.5442,-5.5474,-5.5539,-5.596,-5.6737,-5.7871,-5.8885,-5.9534,-6.0022,-6.0325,-6.0548,-6.0835,-6.1002,-6.1035,-6.1119,-6.1119,-6.1119,-6.1119,-6.1119,-6.1185,-6.1218,-6.1534,-6.1684,-6.1833,-6.2249,-6.3082,-6.3997,-6.5013,-6.6268,-6.7273,-6.8118,-6.8968,-6.9351,-6.9437,-6.9582,-6.9941,-3.5767,-3.6258,-3.7517,-3.8141,-3.8261,-3.838,-3.8596,-3.8812,-3.8812,-3.9049,-3.919,-3.9308,-3.9308,-3.9308,-3.9544,-3.9779,-4.013,-4.0363,-4.0711,-4.1081,-4.1268,-4.1389,-4.1749,-4.2303,-4.2711,-4.2879,-4.3625,-4.4561,-4.5607,-4.663,-4.7801,-4.914,-4.9521,-4.9883,-5.0238,-5.0407,-5.0906,-5.1266,-5.1238,-5.1375,-5.1565,-5.1674,-5.1674,-5.1674,-5.1702,-5.1731,-5.1759,-5.1787,-5.1896,-5.2221,-5.2544,-5.2808,-5.329,-5.3424,-5.35,-5.35,-5.35,-5.3442,-5.3297,-5.3152,-5.2804,-5.1889,-5.2129,-5.2307,-5.2118,-5.2795,-5.3461,-5.3922,-5.4356,-5.4623,-5.4677,-5.5346,-5.5441,-5.5274,-5.5328,-5.5409,-5.5409,-5.5409,-5.5409,-5.5507,-5.5863,-5.6446,-5.6964,-5.7579,-5.8421,-5.9101,-5.9599,-6.0087,-6.0378,-6.0548,-6.0835,-6.1035,-6.1119,-6.1119,-6.1119,-6.1119,-6.1119,-6.1119,-6.1152,-6.1302,-6.1584,-6.2083,-6.2266,-6.2796,-6.362,-6.4415,-6.5244,-6.5895,-6.6934,-6.7661,-6.8378,-6.8772,-6.9095,-6.9311,-6.9703,-3.6135,-3.6989,-3.7736,-3.8358,-3.8596,-3.8716,-3.8953,-3.9049,-3.9049,-3.9167,-3.9308,-3.9308,-3.9308,-3.9308,-3.9684,-3.9919,-4.013,-4.0479,-4.0826,-4.1196,-4.1196,-4.1196,-4.1432,-4.2011,-4.2538,-4.2369,-4.3375,-4.4342,-4.526,-4.6439,-4.7745,-4.878,-4.9063,-4.9392,-4.9803,-4.9996,-5.0131,-5.0348,-5.054,-5.0621,-5.0944,-5.0944,-5.0944,-5.0944,-5.0916,-5.0916,-5.0888,-5.0916,-5.1299,-5.1818,-5.2117,-5.2607,-5.3155,-5.3424,-5.35,-5.35,-5.35,-5.3326,-5.3181,-5.3268,-5.3156,-5.2205,-5.2556,-5.2738,-5.2733,-5.3065,-5.3326,-5.3876,-5.4103,-5.4189,-5.4412,-5.4868,-5.5153,-5.5242,-5.5246,-5.5409,-5.5409,-5.5409,-5.5409,-5.5474,-5.5701,-5.6251,-5.6964,-5.7838,-5.8421,-5.881,-5.9664,-6.0152,-6.0378,-6.0548,-6.0835,-6.1002,-6.1119,-6.1119,-6.1119,-6.1119,-6.1119,-6.1119,-6.1152,-6.1351,-6.1534,-6.2181,-6.2863,-6.3424,-6.4143,-6.4698,-6.5499,-6.6035,-6.6408,-6.6969,-6.7644,-6.8249,-6.8854,-6.9208,-6.9706,-3.6401,-3.7495,-3.7856,-3.8335,-3.893,-3.919,-3.9308,-3.9308,-3.9308,-3.9308,-3.9308,-3.9308,-3.9308,-3.9426,-3.9779,-3.9919,-4.0153,-4.0503,-4.0966,-4.1196,-4.1196,-4.1196,-4.1432,-4.1904,-4.2257,-4.1679,-4.33,-4.4367,-4.5167,-4.6379,-4.746,-4.8408,-4.8651,-4.8896,-4.9111,-4.9218,-4.957,-4.9839,-4.9867,-4.9945,-5.0101,-5.0101,-5.0101,-5.0129,-5.0129,-5.0129,-5.0263,-5.0263,-5.0614,-5.1518,-5.1623,-5.2148,-5.279,-5.329,-5.35,-5.35,-5.35,-5.3326,-5.3227,-5.339,-5.3466,-5.2902,-5.3047,-5.3175,-5.3438,-5.3396,-5.3621,-5.3876,-5.4189,-5.4242,-5.4412,-5.4761,-5.496,-5.5113,-5.5246,-5.5409,-5.5409,-5.5409,-5.5409,-5.5442,-5.5766,-5.6284,-5.677,-5.7482,-5.8,-5.8551,-5.9491,-6.012,-6.0345,-6.0548,-6.0802,-6.1002,-6.1119,-6.1119,-6.1119,-6.1119,-6.1119,-6.1119,-6.1152,-6.1501,-6.1747,-6.2628,-6.3385,-6.403,-6.4653,-6.5113,-6.5324,-6.5565,-6.5997,-6.6342,-6.705,-6.7866,-6.8502,-6.9139,-6.9672,-3.7374,-3.7495,-3.8574,-3.919,-3.9167,-3.9285,-3.9262,-3.9308,-3.9262,-3.9308,-3.9308,-3.9308,-3.9449,-3.9684,-3.9989,-4.0363,-4.0826,-4.1081,-4.1081,-4.1196,-4.1196,-4.1196,-4.1335,-4.2176,-4.2396,-4.2836,-4.4029,-4.4976,-4.5226,-4.6024,-4.7109,-4.778,-4.8126,-4.8531,-4.9181,-4.9616,-4.9553,-4.9603,-4.9631,-4.9764,-4.9764,-4.9764,-4.9764,-4.9764,-4.9735,-4.9868,-4.9953,-5.0142,-5.0663,-5.1279,-5.1299,-5.165,-5.2214,-5.3048,-5.3326,-5.3355,-5.3326,-5.3152,-5.3094,-5.3892,-5.3626,-5.3139,-5.3627,-5.3775,-5.3523,-5.3502,-5.3876,-5.4017,-5.4242,-5.4412,-5.4412,-5.4781,-5.5031,-5.5113,-5.5246,-5.5409,-5.5409,-5.5409,-5.5409,-5.5442,-5.5863,-5.6284,-5.6737,-5.7191,-5.7773,-5.8345,-5.9036,-5.9814,-6.0233,-6.0468,-6.0736,-6.0886,-6.1119,-6.1119,-6.1119,-6.1119,-6.1119,-6.1152,-6.1268,-6.1914,-6.2401,-6.3196,-6.392,-6.4307,-6.4667,-6.4945,-6.5183,-6.5229,-6.5442,-6.5793,-6.6601,-6.7516,-6.8222,-6.8965,-6.9778,-3.7456,-3.7691,-3.8273,-3.8527,-3.8527,-3.8527,-3.8688,-3.8918,-3.8941,-3.9078,-3.9239,-3.9308,-3.9426,-3.9802,-4.013,-4.0595,-4.1057,-4.1196,-4.1196,-4.1196,-4.1196,-4.1196,-4.1408,-4.2463,-4.302,-4.3689,-4.4852,-4.5503,-4.5192,-4.6008,-4.681,-4.7206,-4.7625,-4.8,-4.8506,-4.8742,-4.9033,-4.9061,-4.9061,-4.9061,-4.9033,-4.9033,-4.9033,-4.9033,-4.9033,-4.9108,-4.9183,-4.9285,-4.9905,-5.0538,-5.0759,-5.1193,-5.1757,-5.2178,-5.2514,-5.2543,-5.2572,-5.2572,-5.263,-5.3231,-5.3331,-5.3451,-5.4074,-5.4299,-5.4037,-5.4096,-5.4103,-5.4242,-5.4327,-5.4497,-5.4613,-5.4948,-5.5031,-5.5113,-5.5246,-5.5409,-5.5409,-5.5409,-5.5409,-5.5409,-5.5604,-5.5992,-5.651,-5.6996,-5.7664,-5.8203,-5.8678,-5.9259,-5.9872,-6.0107,-6.0307,-6.087,-6.102,-6.1119,-6.1119,-6.1119,-6.1119,-6.1119,-6.1351,-6.1881,-6.2448,-6.3056,-6.3761,-6.4374,-6.4675,-6.494,-6.4915,-6.4988,-6.5093,-6.5338,-6.6426,-6.7341,-6.8117,-6.8823,-6.9706,-3.7223,-3.7565,-3.7793,-3.7793,-3.7793,-3.7793,-3.8045,-3.8367,-3.8413,-3.8619,-3.9081,-3.9104,-3.936,-3.9873,-4.0316,-4.0711,-4.1196,-4.1196,-4.1196,-4.1196,-4.1196,-4.1196,-4.1898,-4.2865,-4.3776,-4.43,-4.5526,-4.5994,-4.5684,-4.6168,-4.6692,-4.7059,-4.7343,-4.7521,-4.7912,-4.8229,-4.8134,-4.8134,-4.8134,-4.8134,-4.8134,-4.8134,-4.8134,-4.8235,-4.8235,-4.8364,-4.8752,-4.8852,-4.9366,-5.004,-5.0356,-5.0543,-5.1265,-5.1294,-5.1236,-5.1265,-5.1439,-5.1585,-5.2063,-5.2629,-5.3426,-5.3672,-5.3955,-5.4328,-5.446,-5.4238,-5.4189,-5.4327,-5.4497,-5.4581,-5.4781,-5.5031,-5.5113,-5.5196,-5.5328,-5.5409,-5.5409,-5.5409,-5.5409,-5.5409,-5.5409,-5.5636,-5.6122,-5.6741,-5.7261,-5.772,-5.8162,-5.874,-5.9317,-5.94,-5.9762,-6.0506,-6.092,-6.1053,-6.1119,-6.1119,-6.1119,-6.1119,-6.1285,-6.1632,-6.2087,-6.2591,-6.3427,-6.4339,-6.4769,-6.4987,-6.4847,-6.481,-6.5019,-6.5475,-6.6389,-6.7198,-6.7902,-6.8749,-6.9633,-3.7429,-3.6971,-3.7543,-3.7793,-3.7747,-3.7724,-3.7793,-3.7862,-3.7885,-3.8021,-3.8433,-3.8501,-3.8961,-3.9817,-4.0636,-4.1033,-4.1196,-4.1196,-4.1196,-4.1196,-4.1287,-4.1631,-4.2312,-4.3346,-4.4207,-4.4791,-4.5928,-4.6384,-4.633,-4.6618,-4.6901,-4.7212,-4.7521,-4.7829,-4.7931,-4.8004,-4.8134,-4.8134,-4.8134,-4.8134,-4.8134,-4.8134,-4.8207,-4.8409,-4.8481,-4.8581,-4.8781,-4.9009,-4.9494,-4.9997,-4.9977,-5.0162,-5.0569,-5.0191,-4.9959,-5.0249,-5.093,-5.1887,-5.2328,-5.2881,-5.3441,-5.3651,-5.4233,-5.4455,-5.4253,-5.4175,-5.4189,-5.4412,-5.4613,-5.4781,-5.5031,-5.5278,-5.5328,-5.5328,-5.5328,-5.5409,-5.5409,-5.5409,-5.5409,-5.5409,-5.5409,-5.5409,-5.5636,-5.6286,-5.6873,-5.7299,-5.7724,-5.8216,-5.8708,-5.897,-5.9216,-5.9926,-6.0556,-6.0755,-6.0953,-6.0953,-6.1252,-6.1169,-6.1318,-6.1614,-6.2361,-6.2986,-6.3449,-6.4288,-6.4742,-6.5162,-6.5127,-6.5125,-6.5085,-6.5502,-6.6241,-6.7014,-6.7717,-6.8602,-6.9382,-3.6809,-3.6587,-3.6809,-3.692,-3.692,-3.692,-3.7215,-3.7557,-3.7604,-3.799,-3.8424,-3.847,-3.8977,-3.9855,-4.053,-4.0908,-4.1124,-4.1172,-4.1196,-4.1287,-4.1402,-4.1834,-4.2612,-4.3548,-4.4403,-4.5233,-4.5982,-4.6544,-4.6623,-4.675,-4.6977,-4.7108,-4.7521,-4.7726,-4.7931,-4.8032,-4.8134,-4.8134,-4.8134,-4.8134,-4.8134,-4.8134,-4.8207,-4.8481,-4.8481,-4.8681,-4.9108,-4.9207,-4.949,-4.9849,-4.9756,-4.9785,-4.9988,-4.9872,-4.9698,-4.9727,-5.0133,-5.0825,-5.1473,-5.2286,-5.2873,-5.3407,-5.3985,-5.4215,-5.4065,-5.4017,-5.4274,-5.4613,-5.4729,-5.498,-5.5196,-5.5328,-5.5409,-5.5409,-5.5409,-5.5409,-5.5409,-5.5409,-5.5409,-5.5409,-5.5409,-5.5491,-5.5604,-5.6027,-5.6482,-5.6661,-5.7018,-5.7456,-5.8144,-5.8687,-5.8966,-5.9264,-5.986,-6.039,-6.0589,-6.0721,-6.1399,-6.1499,-6.1716,-6.2072,-6.298,-6.3655,-6.3904,-6.4286,-6.4775,-6.5125,-6.5336,-6.5367,-6.5251,-6.5566,-6.5951,-6.6688,-6.739,-6.799,-6.8806,-3.6472,-3.6386,-3.6386,-3.6254,-3.6254,-3.6254,-3.6616,-3.7159,-3.7293,-3.7635,-3.8272,-3.8547,-3.9054,-3.9658,-4.0146,-4.0643,-4.0956,-4.1124,-4.1287,-4.1402,-4.172,-4.2287,-4.3148,-4.4096,-4.4843,-4.5475,-4.6223,-4.6596,-4.6828,-4.7081,-4.7184,-4.7108,-4.7624,-4.7829,-4.7829,-4.8032,-4.8134,-4.8134,-4.8134,-4.8134,-4.8134,-4.8134,-4.8308,-4.8509,-4.871,-4.8881,-4.9305,-4.9404,-4.9502,-4.9698,-4.9727,-4.9727,-4.9756,-4.9727,-4.9863,-4.996,-5.0233,-5.0573,-5.1128,-5.1822,-5.2296,-5.304,-5.3588,-5.411,-5.4143,-5.4189,-5.4359,-5.4729,-5.4896,-5.5031,-5.5278,-5.5409,-5.5409,-5.5409,-5.5409,-5.5409,-5.5409,-5.5409,-5.5409,-5.5409,-5.5491,-5.5604,-5.5766,-5.5846,-5.6072,-5.6198,-5.6422,-5.6822,-5.743,-5.8171,-5.8436,-5.8634,-5.9198,-5.9794,-6.0306,-6.0621,-6.1327,-6.1837,-6.2058,-6.2539,-6.3388,-6.3832,-6.4008,-6.439,-6.4876,-6.5085,-6.5329,-6.5322,-6.5384,-6.5658,-6.5936,-6.6393,-6.6957,-6.7558,-6.8302,-3.6928,-3.6712,-3.6386,-3.6254,-3.6254,-3.6254,-3.63,-3.6501,-3.6696,-3.7045,-3.7557,-3.8299,-3.8803,-3.9091,-3.9922,-4.0379,-4.0499,-4.098,-4.1353,-4.172,-4.2174,-4.3073,-4.3899,-4.4692,-4.5474,-4.6272,-4.6645,-4.6801,-4.7005,-4.7418,-4.7494,-4.7726,-4.7829,-4.8032,-4.8032,-4.8032,-4.8134,-4.8134,-4.8134,-4.8134,-4.8134,-4.8134,-4.8308,-4.871,-4.8881,-4.9079,-4.9571,-4.9669,-4.9698,-4.9698,-4.9698,-4.9698,-4.9698,-4.9863,-5.0057,-5.0442,-5.0698,-5.1071,-5.166,-5.2031,-5.267,-5.3559,-5.4025,-5.4088,-5.4134,-5.4242,-5.4528,-5.4729,-5.4896,-5.5113,-5.5246,-5.5409,-5.5409,-5.5409,-5.5409,-5.5409,-5.5409,-5.5409,-5.5409,-5.5409,-5.5491,-5.5685,-5.5846,-5.6006,-5.6165,-5.6244,-5.6447,-5.6768,-5.69,-5.7508,-5.7707,-5.8005,-5.8568,-5.9245,-6.007,-6.0645,-6.1107,-6.1897,-6.2402,-6.2931,-6.3681,-6.3938,-6.4182,-6.4529,-6.4911,-6.5149,-6.5349,-6.5415,-6.5545,-6.5675,-6.5918,-6.6239,-6.6667,-6.7302,-6.8016,-3.6647,-3.6712,-3.658,-3.6495,-3.6254,-3.6254,-3.6386,-3.6603,-3.682,-3.7251,-3.7679,-3.8107,-3.8503,-3.8936,-3.9513,-4.0114,-4.0427,-4.0956,-4.1533,-4.2061,-4.2737,-4.3602,-4.4479,-4.5261,-4.5822,-4.656,-4.6873,-4.7081,-4.7418,-4.7624,-4.7801,-4.7903,-4.8032,-4.8032,-4.8134,-4.8134,-4.8134,-4.8134,-4.8134,-4.8134,-4.8134,-4.8134,-4.8308,-4.881,-4.8881,-4.9178,-4.9571,-4.9698,-4.9698,-4.9698,-4.9698,-4.9698,-4.9766,-5.0057,-5.0537,-5.0887,-5.1169,-5.1819,-5.2366,-5.2637,-5.3082,-5.3726,-5.4103,-5.4103,-5.4103,-5.4157,-5.4444,-5.4697,-5.4896,-5.5113,-5.5328,-5.5409,-5.5409,-5.5409,-5.5409,-5.5409,-5.5409,-5.5409,-5.5409,-5.5409,-5.5491,-5.5604,-5.5846,-5.6086,-5.6244,-5.6402,-5.6525,-5.6713,-5.6846,-5.6912,-5.7177,-5.7454,-5.7951,-5.8707,-5.9531,-6.0224,-6.093,-6.1791,-6.2678,-6.3259,-6.3867,-6.4288,-6.4601,-6.4843,-6.4979,-6.518,-6.5415,-6.551,-6.5675,-6.574,-6.5839,-6.5911,-6.641,-6.6946,-6.7517,-3.6779,-3.7012,-3.6928,-3.6712,-3.6386,-3.6363,-3.6495,-3.6712,-3.7143,-3.7572,-3.7974,-3.7998,-3.8166,-3.8647,-3.9128,-3.9513,-3.9922,-4.0467,-4.1394,-4.2053,-4.2881,-4.3888,-4.4967,-4.5795,-4.635,-4.6873,-4.7081,-4.7391,-4.7624,-4.7726,-4.7903,-4.8004,-4.8134,-4.8134,-4.8134,-4.8134,-4.8134,-4.8134,-4.8134,-4.8134,-4.8134,-4.8207,-4.8409,-4.8909,-4.9009,-4.9305,-4.96,-4.9698,-4.9698,-4.9698,-4.9698,-4.9698,-4.996,-5.0316,-5.0793,-5.1263,-5.1789,-5.2516,-5.3082,-5.3377,-5.3552,-5.4017,-5.4103,-5.4103,-5.4103,-5.4189,-5.456,-5.4729,-5.4864,-5.5113,-5.5409,-5.5409,-5.5409,-5.5409,-5.5409,-5.5409,-5.5409,-5.5409,-5.5409,-5.5409,-5.5572,-5.5846,-5.5974,-5.6244,-5.6402,-5.6525,-5.6603,-5.668,-5.6713,-5.6779,-5.6779,-5.7133,-5.7409,-5.8197,-5.8986,-5.9785,-6.0612,-6.1747,-6.2606,-6.3308,-6.3834,-6.4356,-6.474,-6.4911,-6.5046,-6.5247,-6.5379,-6.5575,-6.574,-6.5804,-6.5804,-6.5839,-6.5946,-6.641,-6.6767,-3.7283,-3.7572,-3.7596,-3.7036,-3.6386,-3.6603,-3.6712,-3.682,-3.7251,-3.7679,-3.7974,-3.7974,-3.7998,-3.819,-3.8719,-3.9117,-3.9285,-3.9695,-4.0746,-4.2082,-4.2894,-4.4066,-4.5183,-4.6161,-4.6474,-4.695,-4.7288,-4.7596,-4.7726,-4.7931,-4.8004,-4.8106,-4.8134,-4.8134,-4.8134,-4.8134,-4.8134,-4.8134,-4.8134,-4.8134,-4.8207,-4.8409,-4.8681,-4.8909,-4.9108,-4.9404,-4.96,-4.9698,-4.9698,-4.9698,-4.9698,-4.9766,-4.996,-5.0419,-5.105,-5.1759,-5.2393,-5.3165,-5.3868,-5.3985,-5.4071,-5.4103,-5.4103,-5.4103,-5.4189,-5.4444,-5.4729,-5.4864,-5.5031,-5.5278,-5.5409,-5.5345,-5.5312,-5.5377,-5.5377,-5.5345,-5.5312,-5.5409,-5.5409,-5.5491,-5.5846,-5.6086,-5.6211,-5.6369,-5.6525,-5.668,-5.668,-5.668,-5.668,-5.6834,-5.6911,-5.7096,-5.749,-5.8261,-5.9099,-5.9507,-6.0281,-6.1466,-6.244,-6.3032,-6.3658,-6.4144,-6.4526,-6.4873,-6.5114,-6.5313,-6.551,-6.564,-6.574,-6.5804,-6.5804,-6.5804,-6.5839,-6.5911,-6.6268,-3.6805,-3.712,-3.7453,-3.7251,-3.6904,-3.6928,-3.6904,-3.7036,-3.7382,-3.7785,-3.7974,-3.7974,-3.7974,-3.8248,-3.8693,-3.8983,-3.9188,-4.0301,-4.153,-4.2387,-4.2943,-4.3885,-4.4931,-4.5826,-4.6373,-4.6716,-4.7216,-4.7717,-4.8004,-4.7892,-4.8078,-4.8134,-4.8106,-4.8134,-4.8134,-4.8134,-4.8106,-4.8308,-4.8409,-4.8409,-4.861,-4.871,-4.8909,-4.9108,-4.9207,-4.9404,-4.9698,-4.9698,-4.9698,-4.9669,-4.9766,-4.9873,-5.0169,-5.0777,-5.1152,-5.1748,-5.2324,-5.2627,-5.3376,-5.3809,-5.4242,-5.4125,-5.4189,-5.4157,-5.4327,-5.4412,-5.4697,-5.4948,-5.5113,-5.5246,-5.5328,-5.4924,-5.4859,-5.5183,-5.5215,-5.515,-5.515,-5.5345,-5.5409,-5.5604,-5.5846,-5.6165,-5.6323,-5.6447,-5.6603,-5.668,-5.668,-5.6757,-5.6757,-5.7139,-5.7364,-5.7554,-5.791,-5.8647,-5.9208,-5.9596,-6.0186,-6.1224,-6.2021,-6.2612,-6.3201,-6.3823,-6.4415,-6.4831,-6.5171,-6.5445,-6.5575,-6.564,-6.574,-6.5804,-6.5804,-6.5804,-6.5804,-6.5804,-6.5911,-3.6357,-3.6653,-3.7011,-3.7049,-3.6885,-3.7192,-3.7358,-3.7465,-3.7679,-3.7892,-3.7974,-3.7974,-3.7974,-3.82,-3.8631,-3.9145,-3.93,-4.0078,-4.1562,-4.2398,-4.289,-4.3717,-4.4624,-4.5449,-4.5843,-4.6311,-4.6807,-4.7231,-4.7347,-4.7459,-4.7572,-4.774,-4.8021,-4.8106,-4.8134,-4.8207,-4.8308,-4.8481,-4.8581,-4.871,-4.881,-4.9009,-4.9108,-4.9305,-4.9404,-4.9502,-4.9698,-4.9698,-4.9669,-4.9708,-4.9756,-4.9927,-5.0381,-5.085,-5.108,-5.1475,-5.1978,-5.2219,-5.2911,-5.3164,-5.3406,-5.347,-5.401,-5.4412,-5.4497,-5.4665,-5.4864,-5.5031,-5.5113,-5.5084,-5.5053,-5.4535,-5.4535,-5.4891,-5.4859,-5.4794,-5.5312,-5.5507,-5.5685,-5.5766,-5.6006,-5.6244,-5.6402,-5.6525,-5.668,-5.668,-5.668,-5.6834,-5.6987,-5.7364,-5.7775,-5.7993,-5.828,-5.8907,-5.9357,-5.9701,-6.0354,-6.1078,-6.1631,-6.2083,-6.267,-6.3287,-6.4084,-6.4852,-6.5131,-6.5439,-6.5575,-6.574,-6.5804,-6.5804,-6.5804,-6.5804,-6.5804,-6.5804,-6.5804,-3.593,-3.6338,-3.6411,-3.6459,-3.6501,-3.7154,-3.7559,-3.7926,-3.7974,-3.7974,-3.7974,-3.7974,-3.7974,-3.808,-3.834,-3.8785,-3.9411,-3.9772,-4.108,-4.218,-4.2817,-4.3641,-4.4439,-4.5183,-4.5465,-4.569,-4.6153,-4.6602,-4.6392,-4.6785,-4.7038,-4.7319,-4.7881,-4.8151,-4.8207,-4.8409,-4.861,-4.8681,-4.8781,-4.9009,-4.9079,-4.9178,-4.9305,-4.9404,-4.9502,-4.9513,-4.9553,-4.9494,-4.9465,-4.9484,-4.964,-4.9715,-5.0064,-5.0506,-5.0697,-5.1056,-5.1497,-5.1922,-5.2232,-5.2472,-5.2763,-5.3099,-5.3917,-5.4461,-5.4717,-5.4736,-5.5031,-5.5113,-5.5246,-5.4875,-5.4567,-5.4405,-5.4244,-5.4341,-5.4308,-5.468,-5.544,-5.5749,-5.5927,-5.6086,-5.6244,-5.6447,-5.6525,-5.668,-5.6834,-5.6987,-5.7139,-5.748,-5.7554,-5.7628,-5.8065,-5.8562,-5.8841,-5.9182,-5.9589,-5.9861,-6.0032,-6.0683,-6.1055,-6.1536,-6.2188,-6.2811,-6.347,-6.4237,-6.5012,-6.5397,-6.5604,-6.574,-6.5804,-6.5804,-6.5804,-6.5804,-6.5804,-6.5804,-6.5804,-3.5713,-3.5881,-3.6242,-3.6411,-3.6459,-3.6645,-3.6956,-3.7421,-3.7805,-3.7974,-3.7974,-3.7974,-3.7853,-3.808,-3.8921,-3.9287,-3.9905,-4.0743,-4.165,-4.2404,-4.2932,-4.3476,-4.3986,-4.4733,-4.5094,-4.5386,-4.5776,-4.6139,-4.6364,-4.656,-4.6841,-4.7291,-4.7828,-4.8211,-4.8396,-4.8781,-4.8724,-4.8823,-4.8993,-4.9149,-4.9317,-4.9386,-4.9484,-4.9426,-4.9397,-4.9349,-4.9088,-4.9097,-4.8952,-4.8552,-4.8909,-4.9221,-4.9883,-5.0095,-5.0226,-5.0304,-5.0799,-5.134,-5.1677,-5.222,-5.2573,-5.2669,-5.3407,-5.3826,-5.4276,-5.4581,-5.5002,-5.5117,-5.5037,-5.4697,-5.4211,-5.3952,-5.3837,-5.3786,-5.3851,-5.4287,-5.4966,-5.56,-5.5857,-5.6244,-5.6447,-5.6525,-5.668,-5.6834,-5.6987,-5.7214,-5.7514,-5.792,-5.8209,-5.8209,-5.8492,-5.8978,-5.9249,-5.9617,-5.9814,-6.0048,-6.0078,-6.0212,-6.0685,-6.1094,-6.1714,-6.2336,-6.2951,-6.3654,-6.4536,-6.5177,-6.5704,-6.5768,-6.5804,-6.5804,-6.5804,-6.5804,-6.5804,-6.5804,-6.5804,-3.5304,-3.5352,-3.5641,-3.5785,-3.5833,-3.6002,-3.629,-3.6627,-3.7132,-3.7348,-3.7348,-3.7324,-3.7557,-3.7947,-3.8814,-3.9576,-4.0282,-4.1439,-4.2387,-4.29,-4.3204,-4.3478,-4.3807,-4.426,-4.4455,-4.4869,-4.5105,-4.5408,-4.5774,-4.6236,-4.6517,-4.6643,-4.7461,-4.7815,-4.7983,-4.8121,-4.8276,-4.8574,-4.8902,-4.9242,-4.931,-4.9291,-4.9175,-4.9126,-4.9097,-4.8711,-4.8515,-4.8552,-4.8477,-4.8345,-4.8894,-4.9425,-4.991,-4.9925,-4.9903,-5.001,-5.0359,-5.0771,-5.1104,-5.1517,-5.2009,-5.2326,-5.2644,-5.2999,-5.3373,-5.3793,-5.439,-5.4713,-5.46,-5.4341,-5.3855,-5.348,-5.3298,-5.3116,-5.3421,-5.3759,-5.4534,-5.5332,-5.585,-5.6381,-5.6603,-5.668,-5.6757,-5.6911,-5.7139,-5.7439,-5.7848,-5.8351,-5.8632,-5.8771,-5.9046,-5.9516,-5.9748,-6.0008,-6.0072,-6.0107,-6.0107,-6.0171,-6.0431,-6.0874,-6.1353,-6.1965,-6.2648,-6.3387,-6.4126,-6.4733,-6.5268,-6.5697,-6.5804,-6.5804,-6.5804,-6.5804,-6.5804,-6.5804,-6.5804,-3.4775,-3.4775,-3.4823,-3.4919,-3.4919,-3.5376,-3.5569,-3.5593,-3.6199,-3.6488,-3.6633,-3.6705,-3.7282,-3.8138,-3.8919,-3.9822,-4.0664,-4.1753,-4.2385,-4.319,-4.3133,-4.3322,-4.3582,-4.3843,-4.4171,-4.4143,-4.4321,-4.4818,-4.4828,-4.5402,-4.5949,-4.5761,-4.6785,-4.7281,-4.7463,-4.7626,-4.7779,-4.8019,-4.8548,-4.903,-4.874,-4.8566,-4.8391,-4.8173,-4.8086,-4.7998,-4.8097,-4.8407,-4.8743,-4.9044,-4.927,-4.9612,-4.9895,-5.0003,-4.9978,-5.0042,-5.0373,-5.0561,-5.0749,-5.1064,-5.1198,-5.1512,-5.175,-5.2074,-5.245,-5.3226,-5.3873,-5.4179,-5.4017,-5.3661,-5.3285,-5.3006,-5.279,-5.278,-5.3029,-5.3596,-5.4579,-5.5413,-5.6117,-5.6536,-5.6603,-5.668,-5.6757,-5.6987,-5.7487,-5.7741,-5.8209,-5.8771,-5.9114,-5.9317,-5.9551,-5.9943,-6.0008,-6.0072,-6.0072,-6.0107,-6.0107,-6.0234,-6.0423,-6.0583,-6.099,-6.1636,-6.2414,-6.2949,-6.3484,-6.4126,-6.4697,-6.5126,-6.5518,-6.5804,-6.5804,-6.5804,-6.5768,-6.5697,-6.5804,-3.4222,-3.427,-3.4655,-3.4823,-3.4823,-3.4968,-3.5113,-3.5332,-3.5891,-3.6603,-3.7302,-3.7843,-3.8354,-3.8818,-3.9367,-4.0155,-4.0983,-4.1612,-4.2011,-4.2371,-4.2675,-4.3101,-4.3361,-4.3538,-4.3854,-4.4219,-4.4425,-4.4406,-4.462,-4.5194,-4.577,-4.6016,-4.6633,-4.7022,-4.7051,-4.7239,-4.7514,-4.7485,-4.7746,-4.8159,-4.7956,-4.805,-4.8056,-4.8282,-4.8407,-4.8356,-4.8507,-4.8653,-4.8498,-4.8364,-4.8859,-4.9428,-5.0153,-5.0153,-5.0278,-5.0434,-5.0512,-5.0666,-5.0743,-5.0896,-5.1048,-5.1124,-5.1361,-5.1394,-5.1815,-5.2754,-5.3304,-5.3402,-5.3304,-5.2994,-5.2779,-5.2563,-5.2421,-5.2473,-5.2589,-5.3601,-5.4543,-5.5445,-5.6272,-5.6581,-5.6757,-5.6834,-5.6911,-5.7222,-5.7712,-5.8249,-5.8737,-5.9249,-5.9617,-5.9814,-5.9748,-6.0008,-6.0008,-6.0072,-6.0072,-6.0171,-6.0171,-6.0297,-6.0485,-6.0609,-6.0757,-6.1234,-6.1878,-6.2271,-6.277,-6.3413,-6.4019,-6.459,-6.4983,-6.5304,-6.5475,-6.5332,-6.5538,-6.5538,-6.5689,-3.3837,-3.4149,-3.4342,-3.4487,-3.4511,-3.4727,-3.492,-3.526,-3.5842,-3.675,-3.7469,-3.7967,-3.8389,-3.9056,-3.9459,-4.0208,-4.0938,-4.1534,-4.1957,-4.2175,-4.2244,-4.2614,-4.2992,-4.3104,-4.3497,-4.3863,-4.4011,-4.4196,-4.4174,-4.4419,-4.4858,-4.5235,-4.5878,-4.6345,-4.6437,-4.6645,-4.6998,-4.6911,-4.6998,-4.6998,-4.7085,-4.7265,-4.7299,-4.7636,-4.7762,-4.8029,-4.826,-4.848,-4.8691,-4.8696,-4.921,-4.9724,-5.0231,-5.0356,-5.048,-5.0589,-5.0666,-5.0743,-5.0896,-5.0972,-5.1048,-5.1199,-5.1199,-5.1264,-5.1264,-5.2106,-5.243,-5.2495,-5.2268,-5.1988,-5.2368,-5.2389,-5.2212,-5.2236,-5.2547,-5.3188,-5.4287,-5.5279,-5.6312,-5.7147,-5.7248,-5.739,-5.7655,-5.8171,-5.8598,-5.8806,-5.9353,-5.9617,-5.9943,-6.0072,-6.0072,-6.0107,-6.0171,-6.0107,-6.0107,-6.0171,-6.0297,-6.0423,-6.0406,-6.0661,-6.0807,-6.0998,-6.1307,-6.1736,-6.2164,-6.2628,-6.327,-6.3841,-6.4189,-6.4465,-6.4608,-6.4715,-6.4992,-6.5161,-6.509,-3.3736,-3.4217,-3.4052,-3.4006,-3.4102,-3.4511,-3.5041,-3.5477,-3.6185,-3.7036,-3.7731,-3.7697,-3.7874,-3.8582,-3.9162,-3.9897,-4.0658,-4.1211,-4.173,-4.1937,-4.2088,-4.2172,-4.2345,-4.2486,-4.2879,-4.3251,-4.3602,-4.3437,-4.3361,-4.3713,-4.3947,-4.3892,-4.4268,-4.4937,-4.5082,-4.5518,-4.6069,-4.6127,-4.6247,-4.6101,-4.6247,-4.645,-4.6663,-4.6637,-4.6756,-4.7163,-4.7679,-4.8271,-4.8984,-4.9309,-4.9741,-5.0089,-5.0324,-5.0557,-5.0666,-5.0743,-5.0896,-5.0896,-5.0972,-5.1124,-5.1199,-5.1199,-5.1199,-5.1199,-5.1199,-5.1361,-5.1685,-5.1729,-5.1502,-5.1544,-5.1955,-5.2137,-5.2064,-5.2185,-5.2528,-5.2937,-5.403,-5.5165,-5.627,-5.7386,-5.7668,-5.7808,-5.8314,-5.8841,-5.9183,-5.9388,-5.9656,-5.9884,-6.0072,-6.0107,-6.0171,-6.0171,-6.0234,-6.0171,-6.003,-6.0051,-6.0105,-6.0052,-6.0093,-6.0522,-6.0784,-6.0701,-6.0808,-6.1236,-6.1664,-6.2092,-6.2545,-6.3081,-6.3357,-6.3728,-6.4087,-6.4362,-6.4351,-6.4483,-6.4291,-3.3518,-3.3522,-3.3428,-3.3763,-3.4314,-3.4459,-3.5178,-3.6402,-3.6998,-3.7794,-3.8463,-3.915,-3.9573,-4.0067,-3.9968,-4.0341,-4.0769,-4.1123,-4.0963,-4.0966,-4.1306,-4.1502,-4.1727,-4.204,-4.2411,-4.2725,-4.3101,-4.3162,-4.291,-4.3314,-4.3661,-4.3806,-4.4385,-4.4821,-4.4966,-4.5401,-4.5808,-4.5927,-4.6135,-4.6225,-4.6314,-4.6698,-4.7195,-4.7508,-4.8157,-4.8738,-4.9259,-4.9582,-4.9661,-4.9821,-5.0089,-5.0324,-5.0589,-5.0743,-5.0896,-5.0972,-5.1048,-5.1124,-5.1124,-5.1167,-5.1199,-5.1199,-5.1199,-5.1275,-5.1199,-5.1232,-5.1502,-5.162,-5.1457,-5.1531,-5.1843,-5.1917,-5.1941,-5.2323,-5.2738,-5.3069,-5.3765,-5.5029,-5.627,-5.6998,-5.7556,-5.7871,-5.8393,-5.8905,-5.9276,-5.9478,-5.9814,-6.0036,-6.0107,-6.0171,-6.0135,-6.0129,-6.0192,-5.9875,-5.9522,-5.9673,-5.9724,-5.9632,-5.9586,-5.9941,-6.0071,-6.013,-6.0344,-6.0986,-6.1295,-6.1652,-6.2069,-6.2487,-6.2928,-6.331,-6.3765,-6.3944,-6.386,-6.3703,-6.3509]}]]